<?xml version="1.0" encoding="UTF-8" standalone="no" ?>
<gpx xmlns="http://www.topografix.com/GPX/1/1" xmlns:xsi="http://www.w3.org/2001/XMLSchema-instance" xsi:schemaLocation="http://www.topografix.com/GPX/1/1 http://www.topografix.com/GPX/1/1/gpx.xsd" version="1.1" creator="VisuGPX - https://www.visugpx.com">
  <metadata>
    <name>91C07/21 Boucle 12 km autour de Yerres par Jean Marc IBP 37</name>
    <desc><![CDATA[20210505 - Yerres 12km]]></desc>
  </metadata>
  <trk>
    <name><![CDATA[91C07/21 Boucle 12 km autour de Yerres par Jean Marc IBP 37_1]]></name>
    <trkseg>
      <trkpt lat="48.71675" lon="2.47613">
        <ele>80.3</ele>
        <time>2021-05-05T07:20:42Z</time>
      </trkpt>
      <trkpt lat="48.71674" lon="2.47605">
        <ele>77.9</ele>
        <time>2021-05-05T07:20:47Z</time>
      </trkpt>
      <trkpt lat="48.71672" lon="2.47598">
        <ele>76.5</ele>
        <time>2021-05-05T07:20:52Z</time>
      </trkpt>
      <trkpt lat="48.71673" lon="2.47591">
        <ele>75.5</ele>
        <time>2021-05-05T07:21:00Z</time>
      </trkpt>
      <trkpt lat="48.71679" lon="2.47588">
        <ele>75.2</ele>
        <time>2021-05-05T07:21:06Z</time>
      </trkpt>
      <trkpt lat="48.71683" lon="2.47587">
        <ele>74.9</ele>
        <time>2021-05-05T07:21:11Z</time>
      </trkpt>
      <trkpt lat="48.71688" lon="2.47582">
        <ele>74.4</ele>
        <time>2021-05-05T07:21:19Z</time>
      </trkpt>
      <trkpt lat="48.71692" lon="2.47579">
        <ele>74.1</ele>
        <time>2021-05-05T07:21:24Z</time>
      </trkpt>
      <trkpt lat="48.71696" lon="2.47575">
        <ele>73.6</ele>
        <time>2021-05-05T07:21:31Z</time>
      </trkpt>
      <trkpt lat="48.71701" lon="2.4757">
        <ele>73.4</ele>
        <time>2021-05-05T07:21:34Z</time>
      </trkpt>
      <trkpt lat="48.71706" lon="2.4757">
        <ele>73</ele>
        <time>2021-05-05T07:21:39Z</time>
      </trkpt>
      <trkpt lat="48.7171" lon="2.47573">
        <ele>71.9</ele>
        <time>2021-05-05T07:21:56Z</time>
      </trkpt>
      <trkpt lat="48.71714" lon="2.4757">
        <ele>71.6</ele>
        <time>2021-05-05T07:22:03Z</time>
      </trkpt>
      <trkpt lat="48.71719" lon="2.47566">
        <ele>71.3</ele>
        <time>2021-05-05T07:22:09Z</time>
      </trkpt>
      <trkpt lat="48.71723" lon="2.47563">
        <ele>70.9</ele>
        <time>2021-05-05T07:22:17Z</time>
      </trkpt>
      <trkpt lat="48.71727" lon="2.47558">
        <ele>70.1</ele>
        <time>2021-05-05T07:22:38Z</time>
      </trkpt>
      <trkpt lat="48.71731" lon="2.47554">
        <ele>70</ele>
        <time>2021-05-05T07:22:41Z</time>
      </trkpt>
      <trkpt lat="48.71736" lon="2.47551">
        <ele>69.9</ele>
        <time>2021-05-05T07:22:44Z</time>
      </trkpt>
      <trkpt lat="48.71742" lon="2.47548">
        <ele>69.8</ele>
        <time>2021-05-05T07:22:48Z</time>
      </trkpt>
      <trkpt lat="48.71747" lon="2.47545">
        <ele>69.7</ele>
        <time>2021-05-05T07:22:51Z</time>
      </trkpt>
      <trkpt lat="48.71753" lon="2.47543">
        <ele>69.6</ele>
        <time>2021-05-05T07:22:55Z</time>
      </trkpt>
      <trkpt lat="48.71757" lon="2.47539">
        <ele>69.5</ele>
        <time>2021-05-05T07:22:59Z</time>
      </trkpt>
      <trkpt lat="48.71761" lon="2.47535">
        <ele>69.3</ele>
        <time>2021-05-05T07:23:06Z</time>
      </trkpt>
      <trkpt lat="48.71766" lon="2.47531">
        <ele>69.2</ele>
        <time>2021-05-05T07:23:15Z</time>
      </trkpt>
      <trkpt lat="48.71771" lon="2.47532">
        <ele>69</ele>
        <time>2021-05-05T07:23:25Z</time>
      </trkpt>
      <trkpt lat="48.71773" lon="2.47527">
        <ele>68.9</ele>
        <time>2021-05-05T07:23:53Z</time>
      </trkpt>
      <trkpt lat="48.71778" lon="2.47529">
        <ele>68.8</ele>
        <time>2021-05-05T07:24:14Z</time>
      </trkpt>
      <trkpt lat="48.71782" lon="2.47532">
        <ele>68.8</ele>
        <time>2021-05-05T07:24:19Z</time>
      </trkpt>
      <trkpt lat="48.71788" lon="2.47533">
        <ele>68.8</ele>
        <time>2021-05-05T07:24:25Z</time>
      </trkpt>
      <trkpt lat="48.71792" lon="2.47533">
        <ele>68.8</ele>
        <time>2021-05-05T07:24:28Z</time>
      </trkpt>
      <trkpt lat="48.71797" lon="2.47534">
        <ele>68.8</ele>
        <time>2021-05-05T07:24:31Z</time>
      </trkpt>
      <trkpt lat="48.71802" lon="2.47537">
        <ele>68.9</ele>
        <time>2021-05-05T07:24:35Z</time>
      </trkpt>
      <trkpt lat="48.71807" lon="2.4754">
        <ele>68.9</ele>
        <time>2021-05-05T07:24:39Z</time>
      </trkpt>
      <trkpt lat="48.71812" lon="2.47542">
        <ele>68.9</ele>
        <time>2021-05-05T07:24:44Z</time>
      </trkpt>
      <trkpt lat="48.71817" lon="2.47544">
        <ele>68.9</ele>
        <time>2021-05-05T07:24:49Z</time>
      </trkpt>
      <trkpt lat="48.71822" lon="2.47545">
        <ele>68.9</ele>
        <time>2021-05-05T07:24:54Z</time>
      </trkpt>
      <trkpt lat="48.71827" lon="2.47548">
        <ele>68.9</ele>
        <time>2021-05-05T07:24:59Z</time>
      </trkpt>
      <trkpt lat="48.71831" lon="2.47548">
        <ele>68.9</ele>
        <time>2021-05-05T07:25:03Z</time>
      </trkpt>
      <trkpt lat="48.71836" lon="2.47549">
        <ele>68.9</ele>
        <time>2021-05-05T07:25:06Z</time>
      </trkpt>
      <trkpt lat="48.71841" lon="2.47551">
        <ele>68.9</ele>
        <time>2021-05-05T07:25:09Z</time>
      </trkpt>
      <trkpt lat="48.71846" lon="2.47554">
        <ele>68.9</ele>
        <time>2021-05-05T07:25:12Z</time>
      </trkpt>
      <trkpt lat="48.71851" lon="2.47556">
        <ele>68.9</ele>
        <time>2021-05-05T07:25:16Z</time>
      </trkpt>
      <trkpt lat="48.71856" lon="2.47557">
        <ele>68.9</ele>
        <time>2021-05-05T07:25:21Z</time>
      </trkpt>
      <trkpt lat="48.71861" lon="2.47556">
        <ele>69</ele>
        <time>2021-05-05T07:25:29Z</time>
      </trkpt>
      <trkpt lat="48.71865" lon="2.47558">
        <ele>69</ele>
        <time>2021-05-05T07:25:34Z</time>
      </trkpt>
      <trkpt lat="48.7187" lon="2.4756">
        <ele>69</ele>
        <time>2021-05-05T07:25:40Z</time>
      </trkpt>
      <trkpt lat="48.71874" lon="2.47562">
        <ele>69</ele>
        <time>2021-05-05T07:25:45Z</time>
      </trkpt>
      <trkpt lat="48.7188" lon="2.47564">
        <ele>69</ele>
        <time>2021-05-05T07:25:48Z</time>
      </trkpt>
      <trkpt lat="48.71885" lon="2.47567">
        <ele>69.1</ele>
        <time>2021-05-05T07:25:51Z</time>
      </trkpt>
      <trkpt lat="48.7189" lon="2.47571">
        <ele>69.1</ele>
        <time>2021-05-05T07:25:58Z</time>
      </trkpt>
      <trkpt lat="48.71895" lon="2.47575">
        <ele>69.1</ele>
        <time>2021-05-05T07:26:02Z</time>
      </trkpt>
      <trkpt lat="48.719" lon="2.47577">
        <ele>69.1</ele>
        <time>2021-05-05T07:26:05Z</time>
      </trkpt>
      <trkpt lat="48.71905" lon="2.47578">
        <ele>69.1</ele>
        <time>2021-05-05T07:26:07Z</time>
      </trkpt>
      <trkpt lat="48.7191" lon="2.47581">
        <ele>69.2</ele>
        <time>2021-05-05T07:26:10Z</time>
      </trkpt>
      <trkpt lat="48.71914" lon="2.47584">
        <ele>69.2</ele>
        <time>2021-05-05T07:26:15Z</time>
      </trkpt>
      <trkpt lat="48.71919" lon="2.47587">
        <ele>69.3</ele>
        <time>2021-05-05T07:26:20Z</time>
      </trkpt>
      <trkpt lat="48.71925" lon="2.47588">
        <ele>69.3</ele>
        <time>2021-05-05T07:26:25Z</time>
      </trkpt>
      <trkpt lat="48.7193" lon="2.4759">
        <ele>69.4</ele>
        <time>2021-05-05T07:26:29Z</time>
      </trkpt>
      <trkpt lat="48.71935" lon="2.47591">
        <ele>69.4</ele>
        <time>2021-05-05T07:26:32Z</time>
      </trkpt>
      <trkpt lat="48.7194" lon="2.47594">
        <ele>69.5</ele>
        <time>2021-05-05T07:26:35Z</time>
      </trkpt>
      <trkpt lat="48.71944" lon="2.47598">
        <ele>69.5</ele>
        <time>2021-05-05T07:26:38Z</time>
      </trkpt>
      <trkpt lat="48.71949" lon="2.47601">
        <ele>69.6</ele>
        <time>2021-05-05T07:26:43Z</time>
      </trkpt>
      <trkpt lat="48.71952" lon="2.47606">
        <ele>69.7</ele>
        <time>2021-05-05T07:26:47Z</time>
      </trkpt>
      <trkpt lat="48.71957" lon="2.47605">
        <ele>69.9</ele>
        <time>2021-05-05T07:26:57Z</time>
      </trkpt>
      <trkpt lat="48.71962" lon="2.47604">
        <ele>70</ele>
        <time>2021-05-05T07:27:02Z</time>
      </trkpt>
      <trkpt lat="48.71966" lon="2.47607">
        <ele>70.1</ele>
        <time>2021-05-05T07:27:14Z</time>
      </trkpt>
      <trkpt lat="48.71969" lon="2.47613">
        <ele>70.2</ele>
        <time>2021-05-05T07:27:20Z</time>
      </trkpt>
      <trkpt lat="48.71974" lon="2.47611">
        <ele>70.2</ele>
        <time>2021-05-05T07:27:23Z</time>
      </trkpt>
      <trkpt lat="48.71977" lon="2.47617">
        <ele>70.3</ele>
        <time>2021-05-05T07:27:27Z</time>
      </trkpt>
      <trkpt lat="48.71978" lon="2.47624">
        <ele>70.3</ele>
        <time>2021-05-05T07:27:30Z</time>
      </trkpt>
      <trkpt lat="48.71983" lon="2.47627">
        <ele>70.3</ele>
        <time>2021-05-05T07:27:35Z</time>
      </trkpt>
      <trkpt lat="48.71989" lon="2.47631">
        <ele>70.3</ele>
        <time>2021-05-05T07:27:37Z</time>
      </trkpt>
      <trkpt lat="48.71993" lon="2.47639">
        <ele>70.4</ele>
        <time>2021-05-05T07:27:39Z</time>
      </trkpt>
      <trkpt lat="48.71997" lon="2.47644">
        <ele>70.4</ele>
        <time>2021-05-05T07:27:42Z</time>
      </trkpt>
      <trkpt lat="48.71997" lon="2.47652">
        <ele>70.4</ele>
        <time>2021-05-05T07:27:48Z</time>
      </trkpt>
      <trkpt lat="48.72" lon="2.47658">
        <ele>70.4</ele>
        <time>2021-05-05T07:27:52Z</time>
      </trkpt>
      <trkpt lat="48.72001" lon="2.47665">
        <ele>70.4</ele>
        <time>2021-05-05T07:27:55Z</time>
      </trkpt>
      <trkpt lat="48.72001" lon="2.47672">
        <ele>70.4</ele>
        <time>2021-05-05T07:27:57Z</time>
      </trkpt>
      <trkpt lat="48.72007" lon="2.47671">
        <ele>70.4</ele>
        <time>2021-05-05T07:28:00Z</time>
      </trkpt>
      <trkpt lat="48.72012" lon="2.47672">
        <ele>70.4</ele>
        <time>2021-05-05T07:28:02Z</time>
      </trkpt>
      <trkpt lat="48.72017" lon="2.47675">
        <ele>70.4</ele>
        <time>2021-05-05T07:28:13Z</time>
      </trkpt>
      <trkpt lat="48.7202" lon="2.47669">
        <ele>70.6</ele>
        <time>2021-05-05T07:28:50Z</time>
      </trkpt>
      <trkpt lat="48.72016" lon="2.47665">
        <ele>70.7</ele>
        <time>2021-05-05T07:29:08Z</time>
      </trkpt>
      <trkpt lat="48.72018" lon="2.47674">
        <ele>70.7</ele>
        <time>2021-05-05T07:29:14Z</time>
      </trkpt>
      <trkpt lat="48.72017" lon="2.47681">
        <ele>70.8</ele>
        <time>2021-05-05T07:29:17Z</time>
      </trkpt>
      <trkpt lat="48.72019" lon="2.47675">
        <ele>70.8</ele>
        <time>2021-05-05T07:29:22Z</time>
      </trkpt>
      <trkpt lat="48.72023" lon="2.47678">
        <ele>70.9</ele>
        <time>2021-05-05T07:29:33Z</time>
      </trkpt>
      <trkpt lat="48.72022" lon="2.47685">
        <ele>71.1</ele>
        <time>2021-05-05T07:29:46Z</time>
      </trkpt>
      <trkpt lat="48.72018" lon="2.4768">
        <ele>71.2</ele>
        <time>2021-05-05T07:29:58Z</time>
      </trkpt>
      <trkpt lat="48.72023" lon="2.47687">
        <ele>71.3</ele>
        <time>2021-05-05T07:30:05Z</time>
      </trkpt>
      <trkpt lat="48.72022" lon="2.47679">
        <ele>71.4</ele>
        <time>2021-05-05T07:30:16Z</time>
      </trkpt>
      <trkpt lat="48.7202" lon="2.47685">
        <ele>72</ele>
        <time>2021-05-05T07:30:51Z</time>
      </trkpt>
      <trkpt lat="48.72015" lon="2.47686">
        <ele>72.1</ele>
        <time>2021-05-05T07:31:05Z</time>
      </trkpt>
      <trkpt lat="48.72014" lon="2.47679">
        <ele>72.3</ele>
        <time>2021-05-05T07:31:19Z</time>
      </trkpt>
      <trkpt lat="48.72015" lon="2.47672">
        <ele>72.4</ele>
        <time>2021-05-05T07:31:24Z</time>
      </trkpt>
      <trkpt lat="48.72014" lon="2.47679">
        <ele>72.5</ele>
        <time>2021-05-05T07:31:33Z</time>
      </trkpt>
      <trkpt lat="48.72014" lon="2.47689">
        <ele>72.6</ele>
        <time>2021-05-05T07:31:39Z</time>
      </trkpt>
      <trkpt lat="48.72017" lon="2.47694">
        <ele>72.6</ele>
        <time>2021-05-05T07:31:47Z</time>
      </trkpt>
      <trkpt lat="48.72019" lon="2.47701">
        <ele>72.6</ele>
        <time>2021-05-05T07:31:57Z</time>
      </trkpt>
      <trkpt lat="48.72024" lon="2.47704">
        <ele>72.5</ele>
        <time>2021-05-05T07:32:04Z</time>
      </trkpt>
      <trkpt lat="48.72028" lon="2.47709">
        <ele>72.5</ele>
        <time>2021-05-05T07:32:11Z</time>
      </trkpt>
      <trkpt lat="48.72032" lon="2.47715">
        <ele>72.4</ele>
        <time>2021-05-05T07:32:17Z</time>
      </trkpt>
      <trkpt lat="48.72036" lon="2.47718">
        <ele>72.3</ele>
        <time>2021-05-05T07:32:20Z</time>
      </trkpt>
      <trkpt lat="48.7204" lon="2.47722">
        <ele>72.2</ele>
        <time>2021-05-05T07:32:23Z</time>
      </trkpt>
      <trkpt lat="48.72044" lon="2.47728">
        <ele>72.2</ele>
        <time>2021-05-05T07:32:26Z</time>
      </trkpt>
      <trkpt lat="48.72047" lon="2.47734">
        <ele>72</ele>
        <time>2021-05-05T07:32:30Z</time>
      </trkpt>
      <trkpt lat="48.72049" lon="2.47742">
        <ele>71.9</ele>
        <time>2021-05-05T07:32:35Z</time>
      </trkpt>
      <trkpt lat="48.72052" lon="2.47748">
        <ele>71.6</ele>
        <time>2021-05-05T07:32:43Z</time>
      </trkpt>
      <trkpt lat="48.72054" lon="2.47754">
        <ele>71.5</ele>
        <time>2021-05-05T07:32:47Z</time>
      </trkpt>
      <trkpt lat="48.72058" lon="2.47759">
        <ele>71.3</ele>
        <time>2021-05-05T07:32:50Z</time>
      </trkpt>
      <trkpt lat="48.72063" lon="2.47764">
        <ele>71.2</ele>
        <time>2021-05-05T07:32:54Z</time>
      </trkpt>
      <trkpt lat="48.72066" lon="2.4777">
        <ele>71.1</ele>
        <time>2021-05-05T07:32:57Z</time>
      </trkpt>
      <trkpt lat="48.72072" lon="2.47773">
        <ele>70.9</ele>
        <time>2021-05-05T07:33:01Z</time>
      </trkpt>
      <trkpt lat="48.72077" lon="2.47779">
        <ele>70.8</ele>
        <time>2021-05-05T07:33:04Z</time>
      </trkpt>
      <trkpt lat="48.72082" lon="2.47782">
        <ele>70.6</ele>
        <time>2021-05-05T07:33:08Z</time>
      </trkpt>
      <trkpt lat="48.72087" lon="2.47783">
        <ele>70.3</ele>
        <time>2021-05-05T07:33:15Z</time>
      </trkpt>
      <trkpt lat="48.72091" lon="2.47784">
        <ele>70.2</ele>
        <time>2021-05-05T07:33:18Z</time>
      </trkpt>
      <trkpt lat="48.72096" lon="2.47791">
        <ele>70</ele>
        <time>2021-05-05T07:33:24Z</time>
      </trkpt>
      <trkpt lat="48.72098" lon="2.47797">
        <ele>70</ele>
        <time>2021-05-05T07:33:26Z</time>
      </trkpt>
      <trkpt lat="48.72102" lon="2.47805">
        <ele>69.9</ele>
        <time>2021-05-05T07:33:31Z</time>
      </trkpt>
      <trkpt lat="48.72104" lon="2.47812">
        <ele>69.7</ele>
        <time>2021-05-05T07:33:35Z</time>
      </trkpt>
      <trkpt lat="48.72108" lon="2.47818">
        <ele>69.6</ele>
        <time>2021-05-05T07:33:40Z</time>
      </trkpt>
      <trkpt lat="48.72113" lon="2.4782">
        <ele>69.5</ele>
        <time>2021-05-05T07:33:44Z</time>
      </trkpt>
      <trkpt lat="48.72117" lon="2.47825">
        <ele>69.3</ele>
        <time>2021-05-05T07:33:50Z</time>
      </trkpt>
      <trkpt lat="48.7212" lon="2.47831">
        <ele>69.2</ele>
        <time>2021-05-05T07:33:53Z</time>
      </trkpt>
      <trkpt lat="48.72124" lon="2.47837">
        <ele>69.2</ele>
        <time>2021-05-05T07:33:56Z</time>
      </trkpt>
      <trkpt lat="48.72128" lon="2.47841">
        <ele>69.1</ele>
        <time>2021-05-05T07:33:59Z</time>
      </trkpt>
      <trkpt lat="48.72131" lon="2.47847">
        <ele>69</ele>
        <time>2021-05-05T07:34:02Z</time>
      </trkpt>
      <trkpt lat="48.72135" lon="2.47853">
        <ele>68.9</ele>
        <time>2021-05-05T07:34:07Z</time>
      </trkpt>
      <trkpt lat="48.7214" lon="2.47857">
        <ele>68.8</ele>
        <time>2021-05-05T07:34:14Z</time>
      </trkpt>
      <trkpt lat="48.72144" lon="2.47861">
        <ele>68.7</ele>
        <time>2021-05-05T07:34:18Z</time>
      </trkpt>
      <trkpt lat="48.72148" lon="2.47866">
        <ele>68.7</ele>
        <time>2021-05-05T07:34:21Z</time>
      </trkpt>
      <trkpt lat="48.72152" lon="2.47871">
        <ele>68.6</ele>
        <time>2021-05-05T07:34:31Z</time>
      </trkpt>
      <trkpt lat="48.72155" lon="2.47877">
        <ele>68.6</ele>
        <time>2021-05-05T07:34:35Z</time>
      </trkpt>
      <trkpt lat="48.72159" lon="2.47881">
        <ele>68.6</ele>
        <time>2021-05-05T07:34:37Z</time>
      </trkpt>
      <trkpt lat="48.72163" lon="2.47887">
        <ele>68.4</ele>
        <time>2021-05-05T07:34:55Z</time>
      </trkpt>
      <trkpt lat="48.72167" lon="2.47889">
        <ele>68.4</ele>
        <time>2021-05-05T07:35:00Z</time>
      </trkpt>
      <trkpt lat="48.72171" lon="2.47886">
        <ele>68.4</ele>
        <time>2021-05-05T07:35:05Z</time>
      </trkpt>
      <trkpt lat="48.72175" lon="2.47891">
        <ele>68.5</ele>
        <time>2021-05-05T07:35:19Z</time>
      </trkpt>
      <trkpt lat="48.72179" lon="2.4789">
        <ele>68.6</ele>
        <time>2021-05-05T07:35:34Z</time>
      </trkpt>
      <trkpt lat="48.72183" lon="2.47894">
        <ele>68.6</ele>
        <time>2021-05-05T07:35:58Z</time>
      </trkpt>
      <trkpt lat="48.72188" lon="2.47898">
        <ele>68.7</ele>
        <time>2021-05-05T07:36:06Z</time>
      </trkpt>
      <trkpt lat="48.72192" lon="2.47903">
        <ele>68.8</ele>
        <time>2021-05-05T07:36:12Z</time>
      </trkpt>
      <trkpt lat="48.72196" lon="2.47908">
        <ele>68.9</ele>
        <time>2021-05-05T07:36:19Z</time>
      </trkpt>
      <trkpt lat="48.722" lon="2.47913">
        <ele>69</ele>
        <time>2021-05-05T07:36:24Z</time>
      </trkpt>
      <trkpt lat="48.722" lon="2.47921">
        <ele>69.2</ele>
        <time>2021-05-05T07:36:32Z</time>
      </trkpt>
      <trkpt lat="48.72198" lon="2.47929">
        <ele>69.3</ele>
        <time>2021-05-05T07:36:36Z</time>
      </trkpt>
      <trkpt lat="48.72198" lon="2.47937">
        <ele>69.4</ele>
        <time>2021-05-05T07:36:40Z</time>
      </trkpt>
      <trkpt lat="48.722" lon="2.47944">
        <ele>69.6</ele>
        <time>2021-05-05T07:36:53Z</time>
      </trkpt>
      <trkpt lat="48.72205" lon="2.47949">
        <ele>69.5</ele>
        <time>2021-05-05T07:37:01Z</time>
      </trkpt>
      <trkpt lat="48.72207" lon="2.47957">
        <ele>69.5</ele>
        <time>2021-05-05T07:37:05Z</time>
      </trkpt>
      <trkpt lat="48.7221" lon="2.47964">
        <ele>69.5</ele>
        <time>2021-05-05T07:37:09Z</time>
      </trkpt>
      <trkpt lat="48.72213" lon="2.4797">
        <ele>69.4</ele>
        <time>2021-05-05T07:37:12Z</time>
      </trkpt>
      <trkpt lat="48.72217" lon="2.47974">
        <ele>69.3</ele>
        <time>2021-05-05T07:37:18Z</time>
      </trkpt>
      <trkpt lat="48.7222" lon="2.4798">
        <ele>69.2</ele>
        <time>2021-05-05T07:37:22Z</time>
      </trkpt>
      <trkpt lat="48.72224" lon="2.47986">
        <ele>69.1</ele>
        <time>2021-05-05T07:37:27Z</time>
      </trkpt>
      <trkpt lat="48.72227" lon="2.4799">
        <ele>69.1</ele>
        <time>2021-05-05T07:37:30Z</time>
      </trkpt>
      <trkpt lat="48.72232" lon="2.47995">
        <ele>69</ele>
        <time>2021-05-05T07:37:33Z</time>
      </trkpt>
      <trkpt lat="48.72237" lon="2.47999">
        <ele>69</ele>
        <time>2021-05-05T07:37:36Z</time>
      </trkpt>
      <trkpt lat="48.72241" lon="2.48003">
        <ele>68.9</ele>
        <time>2021-05-05T07:37:40Z</time>
      </trkpt>
      <trkpt lat="48.72244" lon="2.48009">
        <ele>68.8</ele>
        <time>2021-05-05T07:37:44Z</time>
      </trkpt>
      <trkpt lat="48.72247" lon="2.48014">
        <ele>68.7</ele>
        <time>2021-05-05T07:37:48Z</time>
      </trkpt>
      <trkpt lat="48.72252" lon="2.48018">
        <ele>68.7</ele>
        <time>2021-05-05T07:37:52Z</time>
      </trkpt>
      <trkpt lat="48.72257" lon="2.4802">
        <ele>68.6</ele>
        <time>2021-05-05T07:37:55Z</time>
      </trkpt>
      <trkpt lat="48.72262" lon="2.48022">
        <ele>68.6</ele>
        <time>2021-05-05T07:37:58Z</time>
      </trkpt>
      <trkpt lat="48.72268" lon="2.48028">
        <ele>68.5</ele>
        <time>2021-05-05T07:38:01Z</time>
      </trkpt>
      <trkpt lat="48.72273" lon="2.48032">
        <ele>68.4</ele>
        <time>2021-05-05T07:38:05Z</time>
      </trkpt>
      <trkpt lat="48.72276" lon="2.48038">
        <ele>68.3</ele>
        <time>2021-05-05T07:38:10Z</time>
      </trkpt>
      <trkpt lat="48.72281" lon="2.48043">
        <ele>68.3</ele>
        <time>2021-05-05T07:38:15Z</time>
      </trkpt>
      <trkpt lat="48.72286" lon="2.48045">
        <ele>68.2</ele>
        <time>2021-05-05T07:38:18Z</time>
      </trkpt>
      <trkpt lat="48.72286" lon="2.48054">
        <ele>68.2</ele>
        <time>2021-05-05T07:38:24Z</time>
      </trkpt>
      <trkpt lat="48.72287" lon="2.48061">
        <ele>68.1</ele>
        <time>2021-05-05T07:38:28Z</time>
      </trkpt>
      <trkpt lat="48.7229" lon="2.48066">
        <ele>68.1</ele>
        <time>2021-05-05T07:38:32Z</time>
      </trkpt>
      <trkpt lat="48.72294" lon="2.48072">
        <ele>68.1</ele>
        <time>2021-05-05T07:38:36Z</time>
      </trkpt>
      <trkpt lat="48.72298" lon="2.48076">
        <ele>68.1</ele>
        <time>2021-05-05T07:38:39Z</time>
      </trkpt>
      <trkpt lat="48.72303" lon="2.48079">
        <ele>68</ele>
        <time>2021-05-05T07:38:43Z</time>
      </trkpt>
      <trkpt lat="48.72308" lon="2.48082">
        <ele>67.9</ele>
        <time>2021-05-05T07:38:46Z</time>
      </trkpt>
      <trkpt lat="48.72312" lon="2.48085">
        <ele>67.9</ele>
        <time>2021-05-05T07:38:49Z</time>
      </trkpt>
      <trkpt lat="48.72317" lon="2.48089">
        <ele>67.8</ele>
        <time>2021-05-05T07:38:52Z</time>
      </trkpt>
      <trkpt lat="48.72322" lon="2.48092">
        <ele>67.8</ele>
        <time>2021-05-05T07:38:55Z</time>
      </trkpt>
      <trkpt lat="48.72326" lon="2.48096">
        <ele>67.7</ele>
        <time>2021-05-05T07:38:58Z</time>
      </trkpt>
      <trkpt lat="48.7233" lon="2.481">
        <ele>67.7</ele>
        <time>2021-05-05T07:39:01Z</time>
      </trkpt>
      <trkpt lat="48.72334" lon="2.48104">
        <ele>67.7</ele>
        <time>2021-05-05T07:39:04Z</time>
      </trkpt>
      <trkpt lat="48.72338" lon="2.48107">
        <ele>67.6</ele>
        <time>2021-05-05T07:39:08Z</time>
      </trkpt>
      <trkpt lat="48.72341" lon="2.48114">
        <ele>67.6</ele>
        <time>2021-05-05T07:39:12Z</time>
      </trkpt>
      <trkpt lat="48.72342" lon="2.48121">
        <ele>67.5</ele>
        <time>2021-05-05T07:39:16Z</time>
      </trkpt>
      <trkpt lat="48.72346" lon="2.48124">
        <ele>67.5</ele>
        <time>2021-05-05T07:39:20Z</time>
      </trkpt>
      <trkpt lat="48.7235" lon="2.48129">
        <ele>67.5</ele>
        <time>2021-05-05T07:39:29Z</time>
      </trkpt>
      <trkpt lat="48.72353" lon="2.48135">
        <ele>67.5</ele>
        <time>2021-05-05T07:39:34Z</time>
      </trkpt>
      <trkpt lat="48.72356" lon="2.4814">
        <ele>67.5</ele>
        <time>2021-05-05T07:39:40Z</time>
      </trkpt>
      <trkpt lat="48.72358" lon="2.48147">
        <ele>67.5</ele>
        <time>2021-05-05T07:39:45Z</time>
      </trkpt>
      <trkpt lat="48.72363" lon="2.48151">
        <ele>67.5</ele>
        <time>2021-05-05T07:39:51Z</time>
      </trkpt>
      <trkpt lat="48.72367" lon="2.48154">
        <ele>67.6</ele>
        <time>2021-05-05T07:39:57Z</time>
      </trkpt>
      <trkpt lat="48.72371" lon="2.48158">
        <ele>67.6</ele>
        <time>2021-05-05T07:40:01Z</time>
      </trkpt>
      <trkpt lat="48.72376" lon="2.48167">
        <ele>67.6</ele>
        <time>2021-05-05T07:40:04Z</time>
      </trkpt>
      <trkpt lat="48.7238" lon="2.48172">
        <ele>67.6</ele>
        <time>2021-05-05T07:40:08Z</time>
      </trkpt>
      <trkpt lat="48.72383" lon="2.48177">
        <ele>67.6</ele>
        <time>2021-05-05T07:40:12Z</time>
      </trkpt>
      <trkpt lat="48.72387" lon="2.48182">
        <ele>67.6</ele>
        <time>2021-05-05T07:40:15Z</time>
      </trkpt>
      <trkpt lat="48.72391" lon="2.48186">
        <ele>67.6</ele>
        <time>2021-05-05T07:40:18Z</time>
      </trkpt>
      <trkpt lat="48.72395" lon="2.48191">
        <ele>67.6</ele>
        <time>2021-05-05T07:40:22Z</time>
      </trkpt>
      <trkpt lat="48.72399" lon="2.48195">
        <ele>67.6</ele>
        <time>2021-05-05T07:40:26Z</time>
      </trkpt>
      <trkpt lat="48.72404" lon="2.48199">
        <ele>67.6</ele>
        <time>2021-05-05T07:40:29Z</time>
      </trkpt>
      <trkpt lat="48.72411" lon="2.48203">
        <ele>67.6</ele>
        <time>2021-05-05T07:40:32Z</time>
      </trkpt>
      <trkpt lat="48.72414" lon="2.48209">
        <ele>67.6</ele>
        <time>2021-05-05T07:40:35Z</time>
      </trkpt>
      <trkpt lat="48.72418" lon="2.48213">
        <ele>67.5</ele>
        <time>2021-05-05T07:40:40Z</time>
      </trkpt>
      <trkpt lat="48.72422" lon="2.48218">
        <ele>67.5</ele>
        <time>2021-05-05T07:40:49Z</time>
      </trkpt>
      <trkpt lat="48.72425" lon="2.48224">
        <ele>67.5</ele>
        <time>2021-05-05T07:40:53Z</time>
      </trkpt>
      <trkpt lat="48.72429" lon="2.4823">
        <ele>67.4</ele>
        <time>2021-05-05T07:40:56Z</time>
      </trkpt>
      <trkpt lat="48.72433" lon="2.48235">
        <ele>67.4</ele>
        <time>2021-05-05T07:41:00Z</time>
      </trkpt>
      <trkpt lat="48.72437" lon="2.48242">
        <ele>67.5</ele>
        <time>2021-05-05T07:41:07Z</time>
      </trkpt>
      <trkpt lat="48.72441" lon="2.48246">
        <ele>67.5</ele>
        <time>2021-05-05T07:41:10Z</time>
      </trkpt>
      <trkpt lat="48.72445" lon="2.48253">
        <ele>67.5</ele>
        <time>2021-05-05T07:41:13Z</time>
      </trkpt>
      <trkpt lat="48.72449" lon="2.4826">
        <ele>67.5</ele>
        <time>2021-05-05T07:41:16Z</time>
      </trkpt>
      <trkpt lat="48.72449" lon="2.48267">
        <ele>67.4</ele>
        <time>2021-05-05T07:41:21Z</time>
      </trkpt>
      <trkpt lat="48.72451" lon="2.48273">
        <ele>67.4</ele>
        <time>2021-05-05T07:41:26Z</time>
      </trkpt>
      <trkpt lat="48.72455" lon="2.48278">
        <ele>67.4</ele>
        <time>2021-05-05T07:41:31Z</time>
      </trkpt>
      <trkpt lat="48.72459" lon="2.48283">
        <ele>67.4</ele>
        <time>2021-05-05T07:41:34Z</time>
      </trkpt>
      <trkpt lat="48.72463" lon="2.48287">
        <ele>67.4</ele>
        <time>2021-05-05T07:41:38Z</time>
      </trkpt>
      <trkpt lat="48.72466" lon="2.48293">
        <ele>67.4</ele>
        <time>2021-05-05T07:41:43Z</time>
      </trkpt>
      <trkpt lat="48.72468" lon="2.48299">
        <ele>67.4</ele>
        <time>2021-05-05T07:41:49Z</time>
      </trkpt>
      <trkpt lat="48.7247" lon="2.48306">
        <ele>67.4</ele>
        <time>2021-05-05T07:41:53Z</time>
      </trkpt>
      <trkpt lat="48.72473" lon="2.48313">
        <ele>67.3</ele>
        <time>2021-05-05T07:41:58Z</time>
      </trkpt>
      <trkpt lat="48.72477" lon="2.48322">
        <ele>67.3</ele>
        <time>2021-05-05T07:42:01Z</time>
      </trkpt>
      <trkpt lat="48.72481" lon="2.48327">
        <ele>67.3</ele>
        <time>2021-05-05T07:42:06Z</time>
      </trkpt>
      <trkpt lat="48.72484" lon="2.48333">
        <ele>67.3</ele>
        <time>2021-05-05T07:42:14Z</time>
      </trkpt>
      <trkpt lat="48.72486" lon="2.4834">
        <ele>67.3</ele>
        <time>2021-05-05T07:42:19Z</time>
      </trkpt>
      <trkpt lat="48.72489" lon="2.48346">
        <ele>67.3</ele>
        <time>2021-05-05T07:42:22Z</time>
      </trkpt>
      <trkpt lat="48.72494" lon="2.48348">
        <ele>67.3</ele>
        <time>2021-05-05T07:42:26Z</time>
      </trkpt>
      <trkpt lat="48.72499" lon="2.48353">
        <ele>67.2</ele>
        <time>2021-05-05T07:42:31Z</time>
      </trkpt>
      <trkpt lat="48.72503" lon="2.48356">
        <ele>67.2</ele>
        <time>2021-05-05T07:42:35Z</time>
      </trkpt>
      <trkpt lat="48.72507" lon="2.48358">
        <ele>67.2</ele>
        <time>2021-05-05T07:42:39Z</time>
      </trkpt>
      <trkpt lat="48.72513" lon="2.48359">
        <ele>67.2</ele>
        <time>2021-05-05T07:42:43Z</time>
      </trkpt>
      <trkpt lat="48.72517" lon="2.48363">
        <ele>67.1</ele>
        <time>2021-05-05T07:42:46Z</time>
      </trkpt>
      <trkpt lat="48.72521" lon="2.48368">
        <ele>67.1</ele>
        <time>2021-05-05T07:42:49Z</time>
      </trkpt>
      <trkpt lat="48.72525" lon="2.48372">
        <ele>67.1</ele>
        <time>2021-05-05T07:42:53Z</time>
      </trkpt>
      <trkpt lat="48.72528" lon="2.48378">
        <ele>67.1</ele>
        <time>2021-05-05T07:42:57Z</time>
      </trkpt>
      <trkpt lat="48.72531" lon="2.48385">
        <ele>67.1</ele>
        <time>2021-05-05T07:43:01Z</time>
      </trkpt>
      <trkpt lat="48.72534" lon="2.48392">
        <ele>67</ele>
        <time>2021-05-05T07:43:04Z</time>
      </trkpt>
      <trkpt lat="48.72534" lon="2.484">
        <ele>67</ele>
        <time>2021-05-05T07:43:11Z</time>
      </trkpt>
      <trkpt lat="48.72532" lon="2.48407">
        <ele>67</ele>
        <time>2021-05-05T07:43:15Z</time>
      </trkpt>
      <trkpt lat="48.72537" lon="2.48409">
        <ele>66.9</ele>
        <time>2021-05-05T07:43:22Z</time>
      </trkpt>
      <trkpt lat="48.72541" lon="2.48414">
        <ele>66.9</ele>
        <time>2021-05-05T07:43:26Z</time>
      </trkpt>
      <trkpt lat="48.72545" lon="2.48419">
        <ele>66.8</ele>
        <time>2021-05-05T07:43:30Z</time>
      </trkpt>
      <trkpt lat="48.72549" lon="2.48422">
        <ele>66.7</ele>
        <time>2021-05-05T07:43:34Z</time>
      </trkpt>
      <trkpt lat="48.72555" lon="2.48427">
        <ele>66.7</ele>
        <time>2021-05-05T07:43:37Z</time>
      </trkpt>
      <trkpt lat="48.72559" lon="2.48433">
        <ele>66.6</ele>
        <time>2021-05-05T07:43:40Z</time>
      </trkpt>
      <trkpt lat="48.72563" lon="2.48436">
        <ele>66.6</ele>
        <time>2021-05-05T07:43:45Z</time>
      </trkpt>
      <trkpt lat="48.72566" lon="2.48442">
        <ele>66.5</ele>
        <time>2021-05-05T07:43:48Z</time>
      </trkpt>
      <trkpt lat="48.72569" lon="2.48448">
        <ele>66.5</ele>
        <time>2021-05-05T07:43:51Z</time>
      </trkpt>
      <trkpt lat="48.72572" lon="2.48453">
        <ele>66.4</ele>
        <time>2021-05-05T07:43:57Z</time>
      </trkpt>
      <trkpt lat="48.72574" lon="2.4846">
        <ele>66.3</ele>
        <time>2021-05-05T07:44:02Z</time>
      </trkpt>
      <trkpt lat="48.7258" lon="2.4847">
        <ele>66.2</ele>
        <time>2021-05-05T07:44:08Z</time>
      </trkpt>
      <trkpt lat="48.72583" lon="2.48476">
        <ele>66.2</ele>
        <time>2021-05-05T07:44:10Z</time>
      </trkpt>
      <trkpt lat="48.72587" lon="2.4848">
        <ele>66.1</ele>
        <time>2021-05-05T07:44:13Z</time>
      </trkpt>
      <trkpt lat="48.72591" lon="2.48485">
        <ele>66.1</ele>
        <time>2021-05-05T07:44:17Z</time>
      </trkpt>
      <trkpt lat="48.72596" lon="2.48489">
        <ele>66</ele>
        <time>2021-05-05T07:44:21Z</time>
      </trkpt>
      <trkpt lat="48.72601" lon="2.48491">
        <ele>66</ele>
        <time>2021-05-05T07:44:23Z</time>
      </trkpt>
      <trkpt lat="48.72609" lon="2.48498">
        <ele>65.9</ele>
        <time>2021-05-05T07:44:26Z</time>
      </trkpt>
      <trkpt lat="48.72612" lon="2.48502">
        <ele>65.9</ele>
        <time>2021-05-05T07:44:29Z</time>
      </trkpt>
      <trkpt lat="48.72616" lon="2.48508">
        <ele>65.8</ele>
        <time>2021-05-05T07:44:34Z</time>
      </trkpt>
      <trkpt lat="48.72618" lon="2.48514">
        <ele>65.8</ele>
        <time>2021-05-05T07:44:37Z</time>
      </trkpt>
      <trkpt lat="48.72619" lon="2.48522">
        <ele>65.6</ele>
        <time>2021-05-05T07:44:52Z</time>
      </trkpt>
      <trkpt lat="48.72623" lon="2.48527">
        <ele>65.6</ele>
        <time>2021-05-05T07:44:55Z</time>
      </trkpt>
      <trkpt lat="48.72627" lon="2.48533">
        <ele>65.6</ele>
        <time>2021-05-05T07:44:58Z</time>
      </trkpt>
      <trkpt lat="48.72631" lon="2.48537">
        <ele>65.5</ele>
        <time>2021-05-05T07:45:02Z</time>
      </trkpt>
      <trkpt lat="48.72635" lon="2.48538">
        <ele>65.5</ele>
        <time>2021-05-05T07:45:05Z</time>
      </trkpt>
      <trkpt lat="48.72641" lon="2.48539">
        <ele>65.5</ele>
        <time>2021-05-05T07:45:08Z</time>
      </trkpt>
      <trkpt lat="48.72646" lon="2.48542">
        <ele>65.4</ele>
        <time>2021-05-05T07:45:11Z</time>
      </trkpt>
      <trkpt lat="48.72651" lon="2.48543">
        <ele>65.4</ele>
        <time>2021-05-05T07:45:14Z</time>
      </trkpt>
      <trkpt lat="48.72655" lon="2.48545">
        <ele>65.3</ele>
        <time>2021-05-05T07:45:19Z</time>
      </trkpt>
      <trkpt lat="48.7266" lon="2.48549">
        <ele>65.3</ele>
        <time>2021-05-05T07:45:23Z</time>
      </trkpt>
      <trkpt lat="48.72664" lon="2.48554">
        <ele>65.2</ele>
        <time>2021-05-05T07:45:25Z</time>
      </trkpt>
      <trkpt lat="48.72669" lon="2.48559">
        <ele>65.2</ele>
        <time>2021-05-05T07:45:27Z</time>
      </trkpt>
      <trkpt lat="48.72675" lon="2.48562">
        <ele>65.2</ele>
        <time>2021-05-05T07:45:30Z</time>
      </trkpt>
      <trkpt lat="48.7268" lon="2.48565">
        <ele>65.1</ele>
        <time>2021-05-05T07:45:35Z</time>
      </trkpt>
      <trkpt lat="48.72682" lon="2.48571">
        <ele>65</ele>
        <time>2021-05-05T07:45:46Z</time>
      </trkpt>
      <trkpt lat="48.72677" lon="2.48576">
        <ele>64.9</ele>
        <time>2021-05-05T07:45:51Z</time>
      </trkpt>
      <trkpt lat="48.72678" lon="2.48568">
        <ele>64.7</ele>
        <time>2021-05-05T07:46:02Z</time>
      </trkpt>
      <trkpt lat="48.7268" lon="2.48574">
        <ele>64.4</ele>
        <time>2021-05-05T07:46:15Z</time>
      </trkpt>
      <trkpt lat="48.72685" lon="2.48575">
        <ele>64.3</ele>
        <time>2021-05-05T07:46:20Z</time>
      </trkpt>
      <trkpt lat="48.7269" lon="2.48574">
        <ele>64.2</ele>
        <time>2021-05-05T07:46:24Z</time>
      </trkpt>
      <trkpt lat="48.72696" lon="2.48574">
        <ele>64.1</ele>
        <time>2021-05-05T07:46:28Z</time>
      </trkpt>
      <trkpt lat="48.72702" lon="2.48574">
        <ele>64</ele>
        <time>2021-05-05T07:46:32Z</time>
      </trkpt>
      <trkpt lat="48.72707" lon="2.48574">
        <ele>64</ele>
        <time>2021-05-05T07:46:35Z</time>
      </trkpt>
      <trkpt lat="48.72713" lon="2.48574">
        <ele>63.9</ele>
        <time>2021-05-05T07:46:39Z</time>
      </trkpt>
      <trkpt lat="48.72719" lon="2.48573">
        <ele>63.8</ele>
        <time>2021-05-05T07:46:42Z</time>
      </trkpt>
      <trkpt lat="48.72728" lon="2.48573">
        <ele>63.7</ele>
        <time>2021-05-05T07:46:45Z</time>
      </trkpt>
      <trkpt lat="48.72733" lon="2.48577">
        <ele>63.7</ele>
        <time>2021-05-05T07:46:48Z</time>
      </trkpt>
      <trkpt lat="48.72739" lon="2.48584">
        <ele>63.6</ele>
        <time>2021-05-05T07:46:51Z</time>
      </trkpt>
      <trkpt lat="48.72744" lon="2.4859">
        <ele>63.6</ele>
        <time>2021-05-05T07:46:57Z</time>
      </trkpt>
      <trkpt lat="48.72748" lon="2.48595">
        <ele>63.5</ele>
        <time>2021-05-05T07:47:00Z</time>
      </trkpt>
      <trkpt lat="48.72752" lon="2.48599">
        <ele>63.4</ele>
        <time>2021-05-05T07:47:03Z</time>
      </trkpt>
      <trkpt lat="48.72756" lon="2.48604">
        <ele>63.3</ele>
        <time>2021-05-05T07:47:06Z</time>
      </trkpt>
      <trkpt lat="48.7276" lon="2.48609">
        <ele>63.2</ele>
        <time>2021-05-05T07:47:09Z</time>
      </trkpt>
      <trkpt lat="48.72764" lon="2.48606">
        <ele>63.1</ele>
        <time>2021-05-05T07:47:13Z</time>
      </trkpt>
      <trkpt lat="48.72768" lon="2.48604">
        <ele>63</ele>
        <time>2021-05-05T07:47:17Z</time>
      </trkpt>
      <trkpt lat="48.72774" lon="2.48607">
        <ele>62.9</ele>
        <time>2021-05-05T07:47:21Z</time>
      </trkpt>
      <trkpt lat="48.72777" lon="2.48612">
        <ele>62.8</ele>
        <time>2021-05-05T07:47:23Z</time>
      </trkpt>
      <trkpt lat="48.72782" lon="2.48614">
        <ele>62.7</ele>
        <time>2021-05-05T07:47:26Z</time>
      </trkpt>
      <trkpt lat="48.72785" lon="2.48607">
        <ele>62.6</ele>
        <time>2021-05-05T07:47:29Z</time>
      </trkpt>
      <trkpt lat="48.7279" lon="2.48595">
        <ele>62.5</ele>
        <time>2021-05-05T07:47:32Z</time>
      </trkpt>
      <trkpt lat="48.72793" lon="2.48588">
        <ele>62.4</ele>
        <time>2021-05-05T07:47:34Z</time>
      </trkpt>
      <trkpt lat="48.72798" lon="2.48578">
        <ele>62.4</ele>
        <time>2021-05-05T07:47:36Z</time>
      </trkpt>
      <trkpt lat="48.72804" lon="2.4857">
        <ele>62.3</ele>
        <time>2021-05-05T07:47:38Z</time>
      </trkpt>
      <trkpt lat="48.72808" lon="2.48563">
        <ele>62.2</ele>
        <time>2021-05-05T07:47:40Z</time>
      </trkpt>
      <trkpt lat="48.72814" lon="2.48552">
        <ele>62.1</ele>
        <time>2021-05-05T07:47:43Z</time>
      </trkpt>
      <trkpt lat="48.72819" lon="2.48548">
        <ele>62</ele>
        <time>2021-05-05T07:47:46Z</time>
      </trkpt>
      <trkpt lat="48.72824" lon="2.48544">
        <ele>62</ele>
        <time>2021-05-05T07:47:48Z</time>
      </trkpt>
      <trkpt lat="48.72829" lon="2.4854">
        <ele>61.9</ele>
        <time>2021-05-05T07:47:51Z</time>
      </trkpt>
      <trkpt lat="48.72831" lon="2.48534">
        <ele>61.8</ele>
        <time>2021-05-05T07:47:54Z</time>
      </trkpt>
      <trkpt lat="48.72836" lon="2.4853">
        <ele>61.7</ele>
        <time>2021-05-05T07:47:58Z</time>
      </trkpt>
      <trkpt lat="48.7284" lon="2.48525">
        <ele>61.6</ele>
        <time>2021-05-05T07:48:00Z</time>
      </trkpt>
      <trkpt lat="48.72846" lon="2.48516">
        <ele>61.5</ele>
        <time>2021-05-05T07:48:03Z</time>
      </trkpt>
      <trkpt lat="48.7285" lon="2.48511">
        <ele>61.4</ele>
        <time>2021-05-05T07:48:06Z</time>
      </trkpt>
      <trkpt lat="48.72854" lon="2.48506">
        <ele>61.4</ele>
        <time>2021-05-05T07:48:09Z</time>
      </trkpt>
      <trkpt lat="48.72859" lon="2.48502">
        <ele>61.3</ele>
        <time>2021-05-05T07:48:12Z</time>
      </trkpt>
      <trkpt lat="48.72863" lon="2.48498">
        <ele>61.3</ele>
        <time>2021-05-05T07:48:15Z</time>
      </trkpt>
      <trkpt lat="48.72869" lon="2.48496">
        <ele>61.2</ele>
        <time>2021-05-05T07:48:18Z</time>
      </trkpt>
      <trkpt lat="48.72874" lon="2.48494">
        <ele>61.2</ele>
        <time>2021-05-05T07:48:23Z</time>
      </trkpt>
      <trkpt lat="48.72878" lon="2.48489">
        <ele>61.1</ele>
        <time>2021-05-05T07:48:28Z</time>
      </trkpt>
      <trkpt lat="48.72884" lon="2.48484">
        <ele>61.1</ele>
        <time>2021-05-05T07:48:32Z</time>
      </trkpt>
      <trkpt lat="48.72888" lon="2.48483">
        <ele>61.1</ele>
        <time>2021-05-05T07:48:35Z</time>
      </trkpt>
      <trkpt lat="48.72893" lon="2.48482">
        <ele>61</ele>
        <time>2021-05-05T07:48:37Z</time>
      </trkpt>
      <trkpt lat="48.72898" lon="2.4848">
        <ele>61</ele>
        <time>2021-05-05T07:48:41Z</time>
      </trkpt>
      <trkpt lat="48.72903" lon="2.48479">
        <ele>61</ele>
        <time>2021-05-05T07:48:45Z</time>
      </trkpt>
      <trkpt lat="48.72908" lon="2.48475">
        <ele>60.9</ele>
        <time>2021-05-05T07:48:51Z</time>
      </trkpt>
      <trkpt lat="48.72914" lon="2.48469">
        <ele>60.9</ele>
        <time>2021-05-05T07:48:56Z</time>
      </trkpt>
      <trkpt lat="48.72919" lon="2.48466">
        <ele>60.9</ele>
        <time>2021-05-05T07:48:59Z</time>
      </trkpt>
      <trkpt lat="48.72924" lon="2.48463">
        <ele>60.9</ele>
        <time>2021-05-05T07:49:02Z</time>
      </trkpt>
      <trkpt lat="48.72928" lon="2.4846">
        <ele>60.8</ele>
        <time>2021-05-05T07:49:06Z</time>
      </trkpt>
      <trkpt lat="48.72934" lon="2.48456">
        <ele>60.8</ele>
        <time>2021-05-05T07:49:13Z</time>
      </trkpt>
      <trkpt lat="48.72938" lon="2.48453">
        <ele>60.8</ele>
        <time>2021-05-05T07:49:17Z</time>
      </trkpt>
      <trkpt lat="48.72942" lon="2.4845">
        <ele>60.9</ele>
        <time>2021-05-05T07:49:20Z</time>
      </trkpt>
      <trkpt lat="48.72947" lon="2.48448">
        <ele>60.9</ele>
        <time>2021-05-05T07:49:23Z</time>
      </trkpt>
      <trkpt lat="48.72952" lon="2.48446">
        <ele>60.9</ele>
        <time>2021-05-05T07:49:27Z</time>
      </trkpt>
      <trkpt lat="48.72958" lon="2.48443">
        <ele>61</ele>
        <time>2021-05-05T07:49:30Z</time>
      </trkpt>
      <trkpt lat="48.72963" lon="2.48439">
        <ele>61</ele>
        <time>2021-05-05T07:49:34Z</time>
      </trkpt>
      <trkpt lat="48.72968" lon="2.48437">
        <ele>61.2</ele>
        <time>2021-05-05T07:49:44Z</time>
      </trkpt>
      <trkpt lat="48.72973" lon="2.48436">
        <ele>61.2</ele>
        <time>2021-05-05T07:49:50Z</time>
      </trkpt>
      <trkpt lat="48.72977" lon="2.48432">
        <ele>61.3</ele>
        <time>2021-05-05T07:49:55Z</time>
      </trkpt>
      <trkpt lat="48.72982" lon="2.4843">
        <ele>61.4</ele>
        <time>2021-05-05T07:50:05Z</time>
      </trkpt>
      <trkpt lat="48.72987" lon="2.48425">
        <ele>61.5</ele>
        <time>2021-05-05T07:50:09Z</time>
      </trkpt>
      <trkpt lat="48.72994" lon="2.48422">
        <ele>61.5</ele>
        <time>2021-05-05T07:50:12Z</time>
      </trkpt>
      <trkpt lat="48.73" lon="2.48419">
        <ele>61.6</ele>
        <time>2021-05-05T07:50:15Z</time>
      </trkpt>
      <trkpt lat="48.73004" lon="2.48416">
        <ele>61.6</ele>
        <time>2021-05-05T07:50:18Z</time>
      </trkpt>
      <trkpt lat="48.7301" lon="2.4841">
        <ele>61.6</ele>
        <time>2021-05-05T07:50:22Z</time>
      </trkpt>
      <trkpt lat="48.73015" lon="2.48407">
        <ele>61.7</ele>
        <time>2021-05-05T07:50:24Z</time>
      </trkpt>
      <trkpt lat="48.73019" lon="2.48402">
        <ele>61.7</ele>
        <time>2021-05-05T07:50:27Z</time>
      </trkpt>
      <trkpt lat="48.73024" lon="2.484">
        <ele>61.8</ele>
        <time>2021-05-05T07:50:31Z</time>
      </trkpt>
      <trkpt lat="48.73029" lon="2.484">
        <ele>61.8</ele>
        <time>2021-05-05T07:50:37Z</time>
      </trkpt>
      <trkpt lat="48.73033" lon="2.48397">
        <ele>61.9</ele>
        <time>2021-05-05T07:50:43Z</time>
      </trkpt>
      <trkpt lat="48.73039" lon="2.48395">
        <ele>61.9</ele>
        <time>2021-05-05T07:50:46Z</time>
      </trkpt>
      <trkpt lat="48.73044" lon="2.48391">
        <ele>62</ele>
        <time>2021-05-05T07:50:51Z</time>
      </trkpt>
      <trkpt lat="48.73048" lon="2.48387">
        <ele>62</ele>
        <time>2021-05-05T07:50:54Z</time>
      </trkpt>
      <trkpt lat="48.73052" lon="2.48381">
        <ele>62</ele>
        <time>2021-05-05T07:50:58Z</time>
      </trkpt>
      <trkpt lat="48.73056" lon="2.48376">
        <ele>62.1</ele>
        <time>2021-05-05T07:51:02Z</time>
      </trkpt>
      <trkpt lat="48.73061" lon="2.48372">
        <ele>62.1</ele>
        <time>2021-05-05T07:51:06Z</time>
      </trkpt>
      <trkpt lat="48.73065" lon="2.48367">
        <ele>62.2</ele>
        <time>2021-05-05T07:51:11Z</time>
      </trkpt>
      <trkpt lat="48.73071" lon="2.48365">
        <ele>62.2</ele>
        <time>2021-05-05T07:51:15Z</time>
      </trkpt>
      <trkpt lat="48.73077" lon="2.48363">
        <ele>62.3</ele>
        <time>2021-05-05T07:51:20Z</time>
      </trkpt>
      <trkpt lat="48.73081" lon="2.48361">
        <ele>62.3</ele>
        <time>2021-05-05T07:51:23Z</time>
      </trkpt>
      <trkpt lat="48.73086" lon="2.48357">
        <ele>62.4</ele>
        <time>2021-05-05T07:51:27Z</time>
      </trkpt>
      <trkpt lat="48.73091" lon="2.48357">
        <ele>62.4</ele>
        <time>2021-05-05T07:51:32Z</time>
      </trkpt>
      <trkpt lat="48.73095" lon="2.48356">
        <ele>62.5</ele>
        <time>2021-05-05T07:51:39Z</time>
      </trkpt>
      <trkpt lat="48.731" lon="2.48352">
        <ele>62.6</ele>
        <time>2021-05-05T07:51:50Z</time>
      </trkpt>
      <trkpt lat="48.73105" lon="2.4835">
        <ele>62.6</ele>
        <time>2021-05-05T07:51:54Z</time>
      </trkpt>
      <trkpt lat="48.7311" lon="2.48348">
        <ele>62.6</ele>
        <time>2021-05-05T07:51:59Z</time>
      </trkpt>
      <trkpt lat="48.73115" lon="2.48347">
        <ele>62.6</ele>
        <time>2021-05-05T07:52:02Z</time>
      </trkpt>
      <trkpt lat="48.7312" lon="2.48346">
        <ele>62.7</ele>
        <time>2021-05-05T07:52:04Z</time>
      </trkpt>
      <trkpt lat="48.73125" lon="2.48345">
        <ele>62.7</ele>
        <time>2021-05-05T07:52:07Z</time>
      </trkpt>
      <trkpt lat="48.7313" lon="2.48345">
        <ele>62.7</ele>
        <time>2021-05-05T07:52:11Z</time>
      </trkpt>
      <trkpt lat="48.73135" lon="2.48343">
        <ele>62.7</ele>
        <time>2021-05-05T07:52:15Z</time>
      </trkpt>
      <trkpt lat="48.73139" lon="2.48341">
        <ele>62.7</ele>
        <time>2021-05-05T07:52:27Z</time>
      </trkpt>
      <trkpt lat="48.73139" lon="2.48334">
        <ele>62.7</ele>
        <time>2021-05-05T07:52:40Z</time>
      </trkpt>
      <trkpt lat="48.73143" lon="2.4833">
        <ele>62.6</ele>
        <time>2021-05-05T07:52:44Z</time>
      </trkpt>
      <trkpt lat="48.73147" lon="2.48324">
        <ele>62.6</ele>
        <time>2021-05-05T07:52:49Z</time>
      </trkpt>
      <trkpt lat="48.73148" lon="2.48316">
        <ele>62.6</ele>
        <time>2021-05-05T07:52:55Z</time>
      </trkpt>
      <trkpt lat="48.73153" lon="2.48313">
        <ele>62.5</ele>
        <time>2021-05-05T07:52:59Z</time>
      </trkpt>
      <trkpt lat="48.73156" lon="2.48306">
        <ele>62.5</ele>
        <time>2021-05-05T07:53:03Z</time>
      </trkpt>
      <trkpt lat="48.7316" lon="2.48301">
        <ele>62.5</ele>
        <time>2021-05-05T07:53:10Z</time>
      </trkpt>
      <trkpt lat="48.73165" lon="2.48301">
        <ele>62.4</ele>
        <time>2021-05-05T07:53:13Z</time>
      </trkpt>
      <trkpt lat="48.73169" lon="2.48298">
        <ele>62.4</ele>
        <time>2021-05-05T07:53:15Z</time>
      </trkpt>
      <trkpt lat="48.73174" lon="2.48296">
        <ele>62.4</ele>
        <time>2021-05-05T07:53:18Z</time>
      </trkpt>
      <trkpt lat="48.7318" lon="2.48293">
        <ele>62.4</ele>
        <time>2021-05-05T07:53:21Z</time>
      </trkpt>
      <trkpt lat="48.73184" lon="2.4829">
        <ele>62.4</ele>
        <time>2021-05-05T07:53:25Z</time>
      </trkpt>
      <trkpt lat="48.73189" lon="2.48286">
        <ele>62.4</ele>
        <time>2021-05-05T07:53:27Z</time>
      </trkpt>
      <trkpt lat="48.73194" lon="2.48281">
        <ele>62.4</ele>
        <time>2021-05-05T07:53:29Z</time>
      </trkpt>
      <trkpt lat="48.73198" lon="2.48278">
        <ele>62.4</ele>
        <time>2021-05-05T07:53:32Z</time>
      </trkpt>
      <trkpt lat="48.73204" lon="2.48276">
        <ele>62.3</ele>
        <time>2021-05-05T07:53:35Z</time>
      </trkpt>
      <trkpt lat="48.73214" lon="2.48274">
        <ele>62.3</ele>
        <time>2021-05-05T07:53:38Z</time>
      </trkpt>
      <trkpt lat="48.73219" lon="2.48272">
        <ele>62.3</ele>
        <time>2021-05-05T07:53:40Z</time>
      </trkpt>
      <trkpt lat="48.73225" lon="2.48269">
        <ele>62.3</ele>
        <time>2021-05-05T07:53:43Z</time>
      </trkpt>
      <trkpt lat="48.7323" lon="2.48265">
        <ele>62.3</ele>
        <time>2021-05-05T07:53:46Z</time>
      </trkpt>
      <trkpt lat="48.73235" lon="2.48262">
        <ele>62.3</ele>
        <time>2021-05-05T07:53:51Z</time>
      </trkpt>
      <trkpt lat="48.73241" lon="2.48267">
        <ele>62.3</ele>
        <time>2021-05-05T07:53:54Z</time>
      </trkpt>
      <trkpt lat="48.73246" lon="2.48272">
        <ele>62.3</ele>
        <time>2021-05-05T07:53:59Z</time>
      </trkpt>
      <trkpt lat="48.7325" lon="2.48279">
        <ele>62.2</ele>
        <time>2021-05-05T07:54:01Z</time>
      </trkpt>
      <trkpt lat="48.73253" lon="2.48286">
        <ele>62.2</ele>
        <time>2021-05-05T07:54:04Z</time>
      </trkpt>
      <trkpt lat="48.73255" lon="2.48292">
        <ele>62.2</ele>
        <time>2021-05-05T07:54:08Z</time>
      </trkpt>
      <trkpt lat="48.73259" lon="2.48297">
        <ele>62.2</ele>
        <time>2021-05-05T07:54:13Z</time>
      </trkpt>
      <trkpt lat="48.73263" lon="2.48302">
        <ele>62.1</ele>
        <time>2021-05-05T07:54:17Z</time>
      </trkpt>
      <trkpt lat="48.73266" lon="2.48308">
        <ele>62.1</ele>
        <time>2021-05-05T07:54:21Z</time>
      </trkpt>
      <trkpt lat="48.73269" lon="2.48314">
        <ele>62.1</ele>
        <time>2021-05-05T07:54:26Z</time>
      </trkpt>
      <trkpt lat="48.73274" lon="2.48319">
        <ele>62.1</ele>
        <time>2021-05-05T07:54:30Z</time>
      </trkpt>
      <trkpt lat="48.73277" lon="2.48326">
        <ele>62</ele>
        <time>2021-05-05T07:54:35Z</time>
      </trkpt>
      <trkpt lat="48.73279" lon="2.48334">
        <ele>62</ele>
        <time>2021-05-05T07:54:40Z</time>
      </trkpt>
      <trkpt lat="48.73283" lon="2.48339">
        <ele>62</ele>
        <time>2021-05-05T07:54:44Z</time>
      </trkpt>
      <trkpt lat="48.73286" lon="2.48345">
        <ele>62</ele>
        <time>2021-05-05T07:54:49Z</time>
      </trkpt>
      <trkpt lat="48.73289" lon="2.4835">
        <ele>62</ele>
        <time>2021-05-05T07:54:52Z</time>
      </trkpt>
      <trkpt lat="48.73293" lon="2.48356">
        <ele>61.9</ele>
        <time>2021-05-05T07:54:56Z</time>
      </trkpt>
      <trkpt lat="48.73295" lon="2.48365">
        <ele>61.9</ele>
        <time>2021-05-05T07:55:00Z</time>
      </trkpt>
      <trkpt lat="48.73298" lon="2.48371">
        <ele>61.9</ele>
        <time>2021-05-05T07:55:03Z</time>
      </trkpt>
      <trkpt lat="48.73299" lon="2.48378">
        <ele>61.9</ele>
        <time>2021-05-05T07:55:07Z</time>
      </trkpt>
      <trkpt lat="48.73301" lon="2.48385">
        <ele>61.9</ele>
        <time>2021-05-05T07:55:11Z</time>
      </trkpt>
      <trkpt lat="48.73303" lon="2.48391">
        <ele>61.9</ele>
        <time>2021-05-05T07:55:17Z</time>
      </trkpt>
      <trkpt lat="48.73304" lon="2.48398">
        <ele>61.9</ele>
        <time>2021-05-05T07:55:21Z</time>
      </trkpt>
      <trkpt lat="48.73303" lon="2.48406">
        <ele>62</ele>
        <time>2021-05-05T07:55:24Z</time>
      </trkpt>
      <trkpt lat="48.73304" lon="2.48413">
        <ele>62</ele>
        <time>2021-05-05T07:55:27Z</time>
      </trkpt>
      <trkpt lat="48.73306" lon="2.48421">
        <ele>62</ele>
        <time>2021-05-05T07:55:32Z</time>
      </trkpt>
      <trkpt lat="48.73306" lon="2.48428">
        <ele>62.1</ele>
        <time>2021-05-05T07:55:36Z</time>
      </trkpt>
      <trkpt lat="48.73306" lon="2.48435">
        <ele>62.1</ele>
        <time>2021-05-05T07:55:40Z</time>
      </trkpt>
      <trkpt lat="48.73308" lon="2.48442">
        <ele>62.1</ele>
        <time>2021-05-05T07:55:44Z</time>
      </trkpt>
      <trkpt lat="48.7331" lon="2.4845">
        <ele>62.2</ele>
        <time>2021-05-05T07:55:49Z</time>
      </trkpt>
      <trkpt lat="48.73313" lon="2.48459">
        <ele>62.2</ele>
        <time>2021-05-05T07:55:52Z</time>
      </trkpt>
      <trkpt lat="48.73317" lon="2.48464">
        <ele>62.2</ele>
        <time>2021-05-05T07:55:55Z</time>
      </trkpt>
      <trkpt lat="48.7332" lon="2.48468">
        <ele>62.2</ele>
        <time>2021-05-05T07:56:00Z</time>
      </trkpt>
      <trkpt lat="48.73324" lon="2.48474">
        <ele>62.3</ele>
        <time>2021-05-05T07:56:06Z</time>
      </trkpt>
      <trkpt lat="48.73328" lon="2.48478">
        <ele>62.3</ele>
        <time>2021-05-05T07:56:12Z</time>
      </trkpt>
      <trkpt lat="48.73333" lon="2.48482">
        <ele>62.3</ele>
        <time>2021-05-05T07:56:16Z</time>
      </trkpt>
      <trkpt lat="48.73338" lon="2.48484">
        <ele>62.3</ele>
        <time>2021-05-05T07:56:19Z</time>
      </trkpt>
      <trkpt lat="48.73343" lon="2.48486">
        <ele>62.3</ele>
        <time>2021-05-05T07:56:23Z</time>
      </trkpt>
      <trkpt lat="48.73348" lon="2.48485">
        <ele>62.3</ele>
        <time>2021-05-05T07:56:26Z</time>
      </trkpt>
      <trkpt lat="48.73352" lon="2.48481">
        <ele>62.3</ele>
        <time>2021-05-05T07:56:37Z</time>
      </trkpt>
      <trkpt lat="48.73357" lon="2.48479">
        <ele>62.3</ele>
        <time>2021-05-05T07:56:41Z</time>
      </trkpt>
      <trkpt lat="48.73361" lon="2.48475">
        <ele>62.3</ele>
        <time>2021-05-05T07:56:47Z</time>
      </trkpt>
      <trkpt lat="48.73365" lon="2.48471">
        <ele>62.3</ele>
        <time>2021-05-05T07:56:52Z</time>
      </trkpt>
      <trkpt lat="48.7337" lon="2.48469">
        <ele>62.3</ele>
        <time>2021-05-05T07:56:56Z</time>
      </trkpt>
      <trkpt lat="48.73375" lon="2.48468">
        <ele>62.3</ele>
        <time>2021-05-05T07:57:00Z</time>
      </trkpt>
      <trkpt lat="48.7338" lon="2.48467">
        <ele>62.3</ele>
        <time>2021-05-05T07:57:04Z</time>
      </trkpt>
      <trkpt lat="48.73385" lon="2.48469">
        <ele>62.3</ele>
        <time>2021-05-05T07:57:07Z</time>
      </trkpt>
      <trkpt lat="48.7339" lon="2.48472">
        <ele>62.3</ele>
        <time>2021-05-05T07:57:10Z</time>
      </trkpt>
      <trkpt lat="48.73395" lon="2.48472">
        <ele>62.4</ele>
        <time>2021-05-05T07:57:14Z</time>
      </trkpt>
      <trkpt lat="48.734" lon="2.48473">
        <ele>62.4</ele>
        <time>2021-05-05T07:57:18Z</time>
      </trkpt>
      <trkpt lat="48.73406" lon="2.48474">
        <ele>62.4</ele>
        <time>2021-05-05T07:57:22Z</time>
      </trkpt>
      <trkpt lat="48.73411" lon="2.48475">
        <ele>62.4</ele>
        <time>2021-05-05T07:57:26Z</time>
      </trkpt>
      <trkpt lat="48.73416" lon="2.48475">
        <ele>62.3</ele>
        <time>2021-05-05T07:57:31Z</time>
      </trkpt>
      <trkpt lat="48.73421" lon="2.48476">
        <ele>62.3</ele>
        <time>2021-05-05T07:57:35Z</time>
      </trkpt>
      <trkpt lat="48.73424" lon="2.48482">
        <ele>62.3</ele>
        <time>2021-05-05T07:57:48Z</time>
      </trkpt>
      <trkpt lat="48.73429" lon="2.48482">
        <ele>62.3</ele>
        <time>2021-05-05T07:57:59Z</time>
      </trkpt>
      <trkpt lat="48.73431" lon="2.48475">
        <ele>62.3</ele>
        <time>2021-05-05T07:58:08Z</time>
      </trkpt>
      <trkpt lat="48.73433" lon="2.48467">
        <ele>62.3</ele>
        <time>2021-05-05T07:58:14Z</time>
      </trkpt>
      <trkpt lat="48.73431" lon="2.48461">
        <ele>62.3</ele>
        <time>2021-05-05T07:58:18Z</time>
      </trkpt>
      <trkpt lat="48.73432" lon="2.48468">
        <ele>62.5</ele>
        <time>2021-05-05T07:58:45Z</time>
      </trkpt>
      <trkpt lat="48.73428" lon="2.48468">
        <ele>63.1</ele>
        <time>2021-05-05T07:59:21Z</time>
      </trkpt>
      <trkpt lat="48.73425" lon="2.48475">
        <ele>63.2</ele>
        <time>2021-05-05T07:59:30Z</time>
      </trkpt>
      <trkpt lat="48.73429" lon="2.48479">
        <ele>63.6</ele>
        <time>2021-05-05T08:00:55Z</time>
      </trkpt>
      <trkpt lat="48.73432" lon="2.48484">
        <ele>64</ele>
        <time>2021-05-05T08:01:41Z</time>
      </trkpt>
      <trkpt lat="48.73434" lon="2.48491">
        <ele>64.2</ele>
        <time>2021-05-05T08:01:52Z</time>
      </trkpt>
      <trkpt lat="48.73439" lon="2.48495">
        <ele>64.6</ele>
        <time>2021-05-05T08:02:10Z</time>
      </trkpt>
      <trkpt lat="48.73444" lon="2.48498">
        <ele>64.7</ele>
        <time>2021-05-05T08:02:17Z</time>
      </trkpt>
      <trkpt lat="48.73448" lon="2.485">
        <ele>64.8</ele>
        <time>2021-05-05T08:02:23Z</time>
      </trkpt>
      <trkpt lat="48.73452" lon="2.48495">
        <ele>64.9</ele>
        <time>2021-05-05T08:02:28Z</time>
      </trkpt>
      <trkpt lat="48.73457" lon="2.48493">
        <ele>64.9</ele>
        <time>2021-05-05T08:02:35Z</time>
      </trkpt>
      <trkpt lat="48.73462" lon="2.4849">
        <ele>65</ele>
        <time>2021-05-05T08:02:38Z</time>
      </trkpt>
      <trkpt lat="48.73467" lon="2.48485">
        <ele>65</ele>
        <time>2021-05-05T08:02:41Z</time>
      </trkpt>
      <trkpt lat="48.73471" lon="2.48479">
        <ele>65</ele>
        <time>2021-05-05T08:02:44Z</time>
      </trkpt>
      <trkpt lat="48.73476" lon="2.48474">
        <ele>65</ele>
        <time>2021-05-05T08:02:47Z</time>
      </trkpt>
      <trkpt lat="48.7348" lon="2.48471">
        <ele>65</ele>
        <time>2021-05-05T08:02:50Z</time>
      </trkpt>
      <trkpt lat="48.73485" lon="2.48465">
        <ele>65</ele>
        <time>2021-05-05T08:02:53Z</time>
      </trkpt>
      <trkpt lat="48.73488" lon="2.48461">
        <ele>65</ele>
        <time>2021-05-05T08:02:56Z</time>
      </trkpt>
      <trkpt lat="48.73492" lon="2.48455">
        <ele>65</ele>
        <time>2021-05-05T08:03:00Z</time>
      </trkpt>
      <trkpt lat="48.73497" lon="2.48454">
        <ele>65</ele>
        <time>2021-05-05T08:03:05Z</time>
      </trkpt>
      <trkpt lat="48.73502" lon="2.48453">
        <ele>65</ele>
        <time>2021-05-05T08:03:09Z</time>
      </trkpt>
      <trkpt lat="48.73507" lon="2.48451">
        <ele>65</ele>
        <time>2021-05-05T08:03:13Z</time>
      </trkpt>
      <trkpt lat="48.73512" lon="2.48447">
        <ele>65</ele>
        <time>2021-05-05T08:03:17Z</time>
      </trkpt>
      <trkpt lat="48.73515" lon="2.48442">
        <ele>65.1</ele>
        <time>2021-05-05T08:03:21Z</time>
      </trkpt>
      <trkpt lat="48.73519" lon="2.48438">
        <ele>65.1</ele>
        <time>2021-05-05T08:03:24Z</time>
      </trkpt>
      <trkpt lat="48.73523" lon="2.48435">
        <ele>65.1</ele>
        <time>2021-05-05T08:03:27Z</time>
      </trkpt>
      <trkpt lat="48.73527" lon="2.4843">
        <ele>65.1</ele>
        <time>2021-05-05T08:03:30Z</time>
      </trkpt>
      <trkpt lat="48.7353" lon="2.48425">
        <ele>65.1</ele>
        <time>2021-05-05T08:03:33Z</time>
      </trkpt>
      <trkpt lat="48.73534" lon="2.48421">
        <ele>65.2</ele>
        <time>2021-05-05T08:03:36Z</time>
      </trkpt>
      <trkpt lat="48.73538" lon="2.48415">
        <ele>65.2</ele>
        <time>2021-05-05T08:03:41Z</time>
      </trkpt>
      <trkpt lat="48.73541" lon="2.4841">
        <ele>65.2</ele>
        <time>2021-05-05T08:03:44Z</time>
      </trkpt>
      <trkpt lat="48.73545" lon="2.48405">
        <ele>65.3</ele>
        <time>2021-05-05T08:03:49Z</time>
      </trkpt>
      <trkpt lat="48.73549" lon="2.48398">
        <ele>65.3</ele>
        <time>2021-05-05T08:03:53Z</time>
      </trkpt>
      <trkpt lat="48.73553" lon="2.48393">
        <ele>65.4</ele>
        <time>2021-05-05T08:03:57Z</time>
      </trkpt>
      <trkpt lat="48.73557" lon="2.48388">
        <ele>65.5</ele>
        <time>2021-05-05T08:04:02Z</time>
      </trkpt>
      <trkpt lat="48.73562" lon="2.48384">
        <ele>65.6</ele>
        <time>2021-05-05T08:04:08Z</time>
      </trkpt>
      <trkpt lat="48.73566" lon="2.48379">
        <ele>65.7</ele>
        <time>2021-05-05T08:04:12Z</time>
      </trkpt>
      <trkpt lat="48.7357" lon="2.48372">
        <ele>65.8</ele>
        <time>2021-05-05T08:04:16Z</time>
      </trkpt>
      <trkpt lat="48.73574" lon="2.48368">
        <ele>65.8</ele>
        <time>2021-05-05T08:04:20Z</time>
      </trkpt>
      <trkpt lat="48.73578" lon="2.48364">
        <ele>65.9</ele>
        <time>2021-05-05T08:04:24Z</time>
      </trkpt>
      <trkpt lat="48.73582" lon="2.48359">
        <ele>66</ele>
        <time>2021-05-05T08:04:28Z</time>
      </trkpt>
      <trkpt lat="48.73587" lon="2.48354">
        <ele>66.1</ele>
        <time>2021-05-05T08:04:32Z</time>
      </trkpt>
      <trkpt lat="48.73591" lon="2.48349">
        <ele>66.3</ele>
        <time>2021-05-05T08:04:44Z</time>
      </trkpt>
      <trkpt lat="48.73596" lon="2.48345">
        <ele>66.4</ele>
        <time>2021-05-05T08:04:49Z</time>
      </trkpt>
      <trkpt lat="48.736" lon="2.48342">
        <ele>66.5</ele>
        <time>2021-05-05T08:04:52Z</time>
      </trkpt>
      <trkpt lat="48.73605" lon="2.48338">
        <ele>66.6</ele>
        <time>2021-05-05T08:04:56Z</time>
      </trkpt>
      <trkpt lat="48.7361" lon="2.48335">
        <ele>66.7</ele>
        <time>2021-05-05T08:05:00Z</time>
      </trkpt>
      <trkpt lat="48.73615" lon="2.48333">
        <ele>66.8</ele>
        <time>2021-05-05T08:05:05Z</time>
      </trkpt>
      <trkpt lat="48.73621" lon="2.48332">
        <ele>67</ele>
        <time>2021-05-05T08:05:11Z</time>
      </trkpt>
      <trkpt lat="48.73626" lon="2.48332">
        <ele>67.1</ele>
        <time>2021-05-05T08:05:16Z</time>
      </trkpt>
      <trkpt lat="48.7363" lon="2.48332">
        <ele>67.3</ele>
        <time>2021-05-05T08:05:20Z</time>
      </trkpt>
      <trkpt lat="48.73636" lon="2.48331">
        <ele>67.4</ele>
        <time>2021-05-05T08:05:25Z</time>
      </trkpt>
      <trkpt lat="48.73641" lon="2.48332">
        <ele>67.5</ele>
        <time>2021-05-05T08:05:30Z</time>
      </trkpt>
      <trkpt lat="48.73646" lon="2.48332">
        <ele>67.6</ele>
        <time>2021-05-05T08:05:35Z</time>
      </trkpt>
      <trkpt lat="48.73651" lon="2.48331">
        <ele>67.7</ele>
        <time>2021-05-05T08:05:41Z</time>
      </trkpt>
      <trkpt lat="48.73655" lon="2.48332">
        <ele>67.8</ele>
        <time>2021-05-05T08:05:46Z</time>
      </trkpt>
      <trkpt lat="48.73661" lon="2.48333">
        <ele>68</ele>
        <time>2021-05-05T08:05:52Z</time>
      </trkpt>
      <trkpt lat="48.73665" lon="2.48335">
        <ele>68.1</ele>
        <time>2021-05-05T08:05:57Z</time>
      </trkpt>
      <trkpt lat="48.73671" lon="2.48338">
        <ele>68.1</ele>
        <time>2021-05-05T08:06:01Z</time>
      </trkpt>
      <trkpt lat="48.73675" lon="2.48341">
        <ele>68.2</ele>
        <time>2021-05-05T08:06:04Z</time>
      </trkpt>
      <trkpt lat="48.73681" lon="2.48344">
        <ele>68.2</ele>
        <time>2021-05-05T08:06:08Z</time>
      </trkpt>
      <trkpt lat="48.73686" lon="2.48346">
        <ele>68.3</ele>
        <time>2021-05-05T08:06:11Z</time>
      </trkpt>
      <trkpt lat="48.73691" lon="2.48348">
        <ele>68.3</ele>
        <time>2021-05-05T08:06:14Z</time>
      </trkpt>
      <trkpt lat="48.73695" lon="2.48351">
        <ele>68.4</ele>
        <time>2021-05-05T08:06:17Z</time>
      </trkpt>
      <trkpt lat="48.737" lon="2.48355">
        <ele>68.5</ele>
        <time>2021-05-05T08:06:21Z</time>
      </trkpt>
      <trkpt lat="48.73704" lon="2.48358">
        <ele>68.5</ele>
        <time>2021-05-05T08:06:26Z</time>
      </trkpt>
      <trkpt lat="48.73708" lon="2.48363">
        <ele>68.6</ele>
        <time>2021-05-05T08:06:31Z</time>
      </trkpt>
      <trkpt lat="48.73712" lon="2.48367">
        <ele>68.7</ele>
        <time>2021-05-05T08:06:35Z</time>
      </trkpt>
      <trkpt lat="48.73714" lon="2.48374">
        <ele>68.7</ele>
        <time>2021-05-05T08:06:40Z</time>
      </trkpt>
      <trkpt lat="48.73715" lon="2.48382">
        <ele>68.8</ele>
        <time>2021-05-05T08:06:45Z</time>
      </trkpt>
      <trkpt lat="48.73718" lon="2.4839">
        <ele>68.9</ele>
        <time>2021-05-05T08:06:50Z</time>
      </trkpt>
      <trkpt lat="48.73721" lon="2.48395">
        <ele>68.9</ele>
        <time>2021-05-05T08:06:54Z</time>
      </trkpt>
      <trkpt lat="48.73724" lon="2.48403">
        <ele>69</ele>
        <time>2021-05-05T08:06:59Z</time>
      </trkpt>
      <trkpt lat="48.73726" lon="2.48409">
        <ele>69</ele>
        <time>2021-05-05T08:07:03Z</time>
      </trkpt>
      <trkpt lat="48.7373" lon="2.48414">
        <ele>69.1</ele>
        <time>2021-05-05T08:07:07Z</time>
      </trkpt>
      <trkpt lat="48.73734" lon="2.4842">
        <ele>69.1</ele>
        <time>2021-05-05T08:07:11Z</time>
      </trkpt>
      <trkpt lat="48.73739" lon="2.48425">
        <ele>69.2</ele>
        <time>2021-05-05T08:07:16Z</time>
      </trkpt>
      <trkpt lat="48.73743" lon="2.4843">
        <ele>69.2</ele>
        <time>2021-05-05T08:07:22Z</time>
      </trkpt>
      <trkpt lat="48.73747" lon="2.48433">
        <ele>69.2</ele>
        <time>2021-05-05T08:07:26Z</time>
      </trkpt>
      <trkpt lat="48.73751" lon="2.48438">
        <ele>69.3</ele>
        <time>2021-05-05T08:07:30Z</time>
      </trkpt>
      <trkpt lat="48.73754" lon="2.48444">
        <ele>69.3</ele>
        <time>2021-05-05T08:07:34Z</time>
      </trkpt>
      <trkpt lat="48.73755" lon="2.48451">
        <ele>69.3</ele>
        <time>2021-05-05T08:07:39Z</time>
      </trkpt>
      <trkpt lat="48.73758" lon="2.48458">
        <ele>69.3</ele>
        <time>2021-05-05T08:07:46Z</time>
      </trkpt>
      <trkpt lat="48.73761" lon="2.48464">
        <ele>69.4</ele>
        <time>2021-05-05T08:07:49Z</time>
      </trkpt>
      <trkpt lat="48.73766" lon="2.4847">
        <ele>69.4</ele>
        <time>2021-05-05T08:07:53Z</time>
      </trkpt>
      <trkpt lat="48.73769" lon="2.48475">
        <ele>69.4</ele>
        <time>2021-05-05T08:07:57Z</time>
      </trkpt>
      <trkpt lat="48.73772" lon="2.4848">
        <ele>69.4</ele>
        <time>2021-05-05T08:08:00Z</time>
      </trkpt>
      <trkpt lat="48.73776" lon="2.48487">
        <ele>69.4</ele>
        <time>2021-05-05T08:08:04Z</time>
      </trkpt>
      <trkpt lat="48.7378" lon="2.48491">
        <ele>69.3</ele>
        <time>2021-05-05T08:08:08Z</time>
      </trkpt>
      <trkpt lat="48.73784" lon="2.48495">
        <ele>69.3</ele>
        <time>2021-05-05T08:08:14Z</time>
      </trkpt>
      <trkpt lat="48.73788" lon="2.485">
        <ele>69.4</ele>
        <time>2021-05-05T08:08:23Z</time>
      </trkpt>
      <trkpt lat="48.73792" lon="2.485">
        <ele>69.5</ele>
        <time>2021-05-05T08:08:38Z</time>
      </trkpt>
      <trkpt lat="48.73798" lon="2.48499">
        <ele>69.6</ele>
        <time>2021-05-05T08:08:44Z</time>
      </trkpt>
      <trkpt lat="48.73802" lon="2.48495">
        <ele>69.6</ele>
        <time>2021-05-05T08:08:49Z</time>
      </trkpt>
      <trkpt lat="48.73808" lon="2.48494">
        <ele>69.7</ele>
        <time>2021-05-05T08:08:53Z</time>
      </trkpt>
      <trkpt lat="48.73813" lon="2.48492">
        <ele>69.7</ele>
        <time>2021-05-05T08:08:57Z</time>
      </trkpt>
      <trkpt lat="48.73818" lon="2.48488">
        <ele>69.8</ele>
        <time>2021-05-05T08:09:02Z</time>
      </trkpt>
      <trkpt lat="48.73822" lon="2.48482">
        <ele>69.8</ele>
        <time>2021-05-05T08:09:06Z</time>
      </trkpt>
      <trkpt lat="48.73825" lon="2.48477">
        <ele>69.9</ele>
        <time>2021-05-05T08:09:10Z</time>
      </trkpt>
      <trkpt lat="48.73829" lon="2.48476">
        <ele>69.9</ele>
        <time>2021-05-05T08:09:15Z</time>
      </trkpt>
      <trkpt lat="48.73833" lon="2.48472">
        <ele>70</ele>
        <time>2021-05-05T08:09:19Z</time>
      </trkpt>
      <trkpt lat="48.73838" lon="2.48469">
        <ele>70</ele>
        <time>2021-05-05T08:09:24Z</time>
      </trkpt>
      <trkpt lat="48.73843" lon="2.48465">
        <ele>70.1</ele>
        <time>2021-05-05T08:09:28Z</time>
      </trkpt>
      <trkpt lat="48.73847" lon="2.48462">
        <ele>70.1</ele>
        <time>2021-05-05T08:09:33Z</time>
      </trkpt>
      <trkpt lat="48.73853" lon="2.4846">
        <ele>70.2</ele>
        <time>2021-05-05T08:09:39Z</time>
      </trkpt>
      <trkpt lat="48.73857" lon="2.48459">
        <ele>70.2</ele>
        <time>2021-05-05T08:09:45Z</time>
      </trkpt>
      <trkpt lat="48.73862" lon="2.48459">
        <ele>70.2</ele>
        <time>2021-05-05T08:09:51Z</time>
      </trkpt>
      <trkpt lat="48.73867" lon="2.48461">
        <ele>70.3</ele>
        <time>2021-05-05T08:09:57Z</time>
      </trkpt>
      <trkpt lat="48.73872" lon="2.4846">
        <ele>70.3</ele>
        <time>2021-05-05T08:10:02Z</time>
      </trkpt>
      <trkpt lat="48.73876" lon="2.48461">
        <ele>70.3</ele>
        <time>2021-05-05T08:10:05Z</time>
      </trkpt>
      <trkpt lat="48.73881" lon="2.48462">
        <ele>70.3</ele>
        <time>2021-05-05T08:10:09Z</time>
      </trkpt>
      <trkpt lat="48.73885" lon="2.48463">
        <ele>70.3</ele>
        <time>2021-05-05T08:10:16Z</time>
      </trkpt>
      <trkpt lat="48.73891" lon="2.48462">
        <ele>70.3</ele>
        <time>2021-05-05T08:10:20Z</time>
      </trkpt>
      <trkpt lat="48.73896" lon="2.48464">
        <ele>70.3</ele>
        <time>2021-05-05T08:10:23Z</time>
      </trkpt>
      <trkpt lat="48.73903" lon="2.48466">
        <ele>70.3</ele>
        <time>2021-05-05T08:10:26Z</time>
      </trkpt>
      <trkpt lat="48.73908" lon="2.48466">
        <ele>70.3</ele>
        <time>2021-05-05T08:10:29Z</time>
      </trkpt>
      <trkpt lat="48.73913" lon="2.48465">
        <ele>70.2</ele>
        <time>2021-05-05T08:10:32Z</time>
      </trkpt>
      <trkpt lat="48.73919" lon="2.48464">
        <ele>70.2</ele>
        <time>2021-05-05T08:10:35Z</time>
      </trkpt>
      <trkpt lat="48.73924" lon="2.48464">
        <ele>70.2</ele>
        <time>2021-05-05T08:10:38Z</time>
      </trkpt>
      <trkpt lat="48.73929" lon="2.48461">
        <ele>70.2</ele>
        <time>2021-05-05T08:10:42Z</time>
      </trkpt>
      <trkpt lat="48.73934" lon="2.48458">
        <ele>70.2</ele>
        <time>2021-05-05T08:10:46Z</time>
      </trkpt>
      <trkpt lat="48.73939" lon="2.48456">
        <ele>70.2</ele>
        <time>2021-05-05T08:10:52Z</time>
      </trkpt>
      <trkpt lat="48.73944" lon="2.48454">
        <ele>70.2</ele>
        <time>2021-05-05T08:10:56Z</time>
      </trkpt>
      <trkpt lat="48.73949" lon="2.48453">
        <ele>70.2</ele>
        <time>2021-05-05T08:11:00Z</time>
      </trkpt>
      <trkpt lat="48.73954" lon="2.48452">
        <ele>70.2</ele>
        <time>2021-05-05T08:11:04Z</time>
      </trkpt>
      <trkpt lat="48.73958" lon="2.48452">
        <ele>70.3</ele>
        <time>2021-05-05T08:11:09Z</time>
      </trkpt>
      <trkpt lat="48.73964" lon="2.48453">
        <ele>70.3</ele>
        <time>2021-05-05T08:11:13Z</time>
      </trkpt>
      <trkpt lat="48.73969" lon="2.48453">
        <ele>70.3</ele>
        <time>2021-05-05T08:11:17Z</time>
      </trkpt>
      <trkpt lat="48.73974" lon="2.48454">
        <ele>70.3</ele>
        <time>2021-05-05T08:11:20Z</time>
      </trkpt>
      <trkpt lat="48.73979" lon="2.48457">
        <ele>70.3</ele>
        <time>2021-05-05T08:11:23Z</time>
      </trkpt>
      <trkpt lat="48.73983" lon="2.48458">
        <ele>70.4</ele>
        <time>2021-05-05T08:11:27Z</time>
      </trkpt>
      <trkpt lat="48.73989" lon="2.48459">
        <ele>70.4</ele>
        <time>2021-05-05T08:11:31Z</time>
      </trkpt>
      <trkpt lat="48.73994" lon="2.4846">
        <ele>70.4</ele>
        <time>2021-05-05T08:11:35Z</time>
      </trkpt>
      <trkpt lat="48.73999" lon="2.48459">
        <ele>70.4</ele>
        <time>2021-05-05T08:11:39Z</time>
      </trkpt>
      <trkpt lat="48.74005" lon="2.4846">
        <ele>70.4</ele>
        <time>2021-05-05T08:11:43Z</time>
      </trkpt>
      <trkpt lat="48.7401" lon="2.48462">
        <ele>70.4</ele>
        <time>2021-05-05T08:11:49Z</time>
      </trkpt>
      <trkpt lat="48.74015" lon="2.48462">
        <ele>70.4</ele>
        <time>2021-05-05T08:11:53Z</time>
      </trkpt>
      <trkpt lat="48.7402" lon="2.4846">
        <ele>70.4</ele>
        <time>2021-05-05T08:11:56Z</time>
      </trkpt>
      <trkpt lat="48.74024" lon="2.48458">
        <ele>70.4</ele>
        <time>2021-05-05T08:12:01Z</time>
      </trkpt>
      <trkpt lat="48.74029" lon="2.48456">
        <ele>70.4</ele>
        <time>2021-05-05T08:12:05Z</time>
      </trkpt>
      <trkpt lat="48.74034" lon="2.48455">
        <ele>70.4</ele>
        <time>2021-05-05T08:12:10Z</time>
      </trkpt>
      <trkpt lat="48.74039" lon="2.48456">
        <ele>70.4</ele>
        <time>2021-05-05T08:12:15Z</time>
      </trkpt>
      <trkpt lat="48.74043" lon="2.48459">
        <ele>70.4</ele>
        <time>2021-05-05T08:12:20Z</time>
      </trkpt>
      <trkpt lat="48.74047" lon="2.48464">
        <ele>70.4</ele>
        <time>2021-05-05T08:12:23Z</time>
      </trkpt>
      <trkpt lat="48.74052" lon="2.48463">
        <ele>70.3</ele>
        <time>2021-05-05T08:12:28Z</time>
      </trkpt>
      <trkpt lat="48.74059" lon="2.48463">
        <ele>70.3</ele>
        <time>2021-05-05T08:12:37Z</time>
      </trkpt>
      <trkpt lat="48.74063" lon="2.48458">
        <ele>70.3</ele>
        <time>2021-05-05T08:12:40Z</time>
      </trkpt>
      <trkpt lat="48.74067" lon="2.48452">
        <ele>70.3</ele>
        <time>2021-05-05T08:12:44Z</time>
      </trkpt>
      <trkpt lat="48.74072" lon="2.4845">
        <ele>70.2</ele>
        <time>2021-05-05T08:12:47Z</time>
      </trkpt>
      <trkpt lat="48.74077" lon="2.48447">
        <ele>70.2</ele>
        <time>2021-05-05T08:12:49Z</time>
      </trkpt>
      <trkpt lat="48.74082" lon="2.4845">
        <ele>70.2</ele>
        <time>2021-05-05T08:12:51Z</time>
      </trkpt>
      <trkpt lat="48.74087" lon="2.48455">
        <ele>70.2</ele>
        <time>2021-05-05T08:12:54Z</time>
      </trkpt>
      <trkpt lat="48.74092" lon="2.48462">
        <ele>70.2</ele>
        <time>2021-05-05T08:12:59Z</time>
      </trkpt>
      <trkpt lat="48.74098" lon="2.48465">
        <ele>70.1</ele>
        <time>2021-05-05T08:13:01Z</time>
      </trkpt>
      <trkpt lat="48.74103" lon="2.48463">
        <ele>70.1</ele>
        <time>2021-05-05T08:13:07Z</time>
      </trkpt>
      <trkpt lat="48.74107" lon="2.48468">
        <ele>70</ele>
        <time>2021-05-05T08:13:12Z</time>
      </trkpt>
      <trkpt lat="48.74113" lon="2.48469">
        <ele>70</ele>
        <time>2021-05-05T08:13:15Z</time>
      </trkpt>
      <trkpt lat="48.74117" lon="2.4847">
        <ele>70</ele>
        <time>2021-05-05T08:13:18Z</time>
      </trkpt>
      <trkpt lat="48.74124" lon="2.48473">
        <ele>70</ele>
        <time>2021-05-05T08:13:21Z</time>
      </trkpt>
      <trkpt lat="48.74128" lon="2.48477">
        <ele>70</ele>
        <time>2021-05-05T08:13:24Z</time>
      </trkpt>
      <trkpt lat="48.74132" lon="2.48484">
        <ele>69.9</ele>
        <time>2021-05-05T08:13:26Z</time>
      </trkpt>
      <trkpt lat="48.74137" lon="2.48485">
        <ele>69.9</ele>
        <time>2021-05-05T08:13:31Z</time>
      </trkpt>
      <trkpt lat="48.74143" lon="2.48489">
        <ele>69.9</ele>
        <time>2021-05-05T08:13:35Z</time>
      </trkpt>
      <trkpt lat="48.74147" lon="2.4849">
        <ele>69.9</ele>
        <time>2021-05-05T08:13:38Z</time>
      </trkpt>
      <trkpt lat="48.7415" lon="2.48483">
        <ele>69.8</ele>
        <time>2021-05-05T08:13:48Z</time>
      </trkpt>
      <trkpt lat="48.74155" lon="2.48489">
        <ele>69.8</ele>
        <time>2021-05-05T08:13:53Z</time>
      </trkpt>
      <trkpt lat="48.74159" lon="2.48493">
        <ele>69.7</ele>
        <time>2021-05-05T08:13:58Z</time>
      </trkpt>
      <trkpt lat="48.74164" lon="2.48494">
        <ele>69.7</ele>
        <time>2021-05-05T08:14:03Z</time>
      </trkpt>
      <trkpt lat="48.74168" lon="2.48502">
        <ele>69.6</ele>
        <time>2021-05-05T08:14:14Z</time>
      </trkpt>
      <trkpt lat="48.74172" lon="2.48505">
        <ele>69.6</ele>
        <time>2021-05-05T08:14:20Z</time>
      </trkpt>
      <trkpt lat="48.74178" lon="2.48503">
        <ele>69.6</ele>
        <time>2021-05-05T08:14:23Z</time>
      </trkpt>
      <trkpt lat="48.74184" lon="2.48506">
        <ele>69.6</ele>
        <time>2021-05-05T08:14:26Z</time>
      </trkpt>
      <trkpt lat="48.7419" lon="2.48516">
        <ele>69.6</ele>
        <time>2021-05-05T08:14:28Z</time>
      </trkpt>
      <trkpt lat="48.74193" lon="2.48522">
        <ele>69.6</ele>
        <time>2021-05-05T08:14:30Z</time>
      </trkpt>
      <trkpt lat="48.74198" lon="2.48527">
        <ele>69.5</ele>
        <time>2021-05-05T08:14:33Z</time>
      </trkpt>
      <trkpt lat="48.74202" lon="2.48532">
        <ele>69.5</ele>
        <time>2021-05-05T08:14:38Z</time>
      </trkpt>
      <trkpt lat="48.74204" lon="2.48539">
        <ele>69.4</ele>
        <time>2021-05-05T08:14:53Z</time>
      </trkpt>
      <trkpt lat="48.74209" lon="2.48544">
        <ele>69.4</ele>
        <time>2021-05-05T08:14:58Z</time>
      </trkpt>
      <trkpt lat="48.74214" lon="2.48549">
        <ele>69.4</ele>
        <time>2021-05-05T08:15:00Z</time>
      </trkpt>
      <trkpt lat="48.74226" lon="2.48549">
        <ele>69.3</ele>
        <time>2021-05-05T08:15:03Z</time>
      </trkpt>
      <trkpt lat="48.74231" lon="2.48548">
        <ele>69.3</ele>
        <time>2021-05-05T08:15:05Z</time>
      </trkpt>
      <trkpt lat="48.74233" lon="2.48542">
        <ele>69.3</ele>
        <time>2021-05-05T08:15:08Z</time>
      </trkpt>
      <trkpt lat="48.74239" lon="2.48546">
        <ele>69.2</ele>
        <time>2021-05-05T08:15:12Z</time>
      </trkpt>
      <trkpt lat="48.74243" lon="2.4855">
        <ele>69.2</ele>
        <time>2021-05-05T08:15:15Z</time>
      </trkpt>
      <trkpt lat="48.74248" lon="2.4855">
        <ele>69.1</ele>
        <time>2021-05-05T08:15:22Z</time>
      </trkpt>
      <trkpt lat="48.7425" lon="2.48556">
        <ele>69.1</ele>
        <time>2021-05-05T08:15:25Z</time>
      </trkpt>
      <trkpt lat="48.74255" lon="2.48558">
        <ele>69</ele>
        <time>2021-05-05T08:15:29Z</time>
      </trkpt>
      <trkpt lat="48.7426" lon="2.4856">
        <ele>69</ele>
        <time>2021-05-05T08:15:32Z</time>
      </trkpt>
      <trkpt lat="48.74265" lon="2.48563">
        <ele>69</ele>
        <time>2021-05-05T08:15:35Z</time>
      </trkpt>
      <trkpt lat="48.7427" lon="2.48567">
        <ele>69</ele>
        <time>2021-05-05T08:15:38Z</time>
      </trkpt>
      <trkpt lat="48.74271" lon="2.48575">
        <ele>68.8</ele>
        <time>2021-05-05T08:15:54Z</time>
      </trkpt>
      <trkpt lat="48.74275" lon="2.48581">
        <ele>68.7</ele>
        <time>2021-05-05T08:15:58Z</time>
      </trkpt>
      <trkpt lat="48.74278" lon="2.48586">
        <ele>68.7</ele>
        <time>2021-05-05T08:16:01Z</time>
      </trkpt>
      <trkpt lat="48.74281" lon="2.48593">
        <ele>68.6</ele>
        <time>2021-05-05T08:16:05Z</time>
      </trkpt>
      <trkpt lat="48.74285" lon="2.48596">
        <ele>68.6</ele>
        <time>2021-05-05T08:16:08Z</time>
      </trkpt>
      <trkpt lat="48.74289" lon="2.48601">
        <ele>68.5</ele>
        <time>2021-05-05T08:16:11Z</time>
      </trkpt>
      <trkpt lat="48.74295" lon="2.48599">
        <ele>68.5</ele>
        <time>2021-05-05T08:16:13Z</time>
      </trkpt>
      <trkpt lat="48.743" lon="2.48599">
        <ele>68.4</ele>
        <time>2021-05-05T08:16:15Z</time>
      </trkpt>
      <trkpt lat="48.74306" lon="2.48606">
        <ele>68.4</ele>
        <time>2021-05-05T08:16:18Z</time>
      </trkpt>
      <trkpt lat="48.74311" lon="2.4861">
        <ele>68.3</ele>
        <time>2021-05-05T08:16:21Z</time>
      </trkpt>
      <trkpt lat="48.74316" lon="2.48616">
        <ele>68.3</ele>
        <time>2021-05-05T08:16:24Z</time>
      </trkpt>
      <trkpt lat="48.7432" lon="2.4862">
        <ele>68.2</ele>
        <time>2021-05-05T08:16:28Z</time>
      </trkpt>
      <trkpt lat="48.74324" lon="2.48624">
        <ele>68.1</ele>
        <time>2021-05-05T08:16:34Z</time>
      </trkpt>
      <trkpt lat="48.74328" lon="2.48632">
        <ele>68</ele>
        <time>2021-05-05T08:16:38Z</time>
      </trkpt>
      <trkpt lat="48.74331" lon="2.48638">
        <ele>67.9</ele>
        <time>2021-05-05T08:16:41Z</time>
      </trkpt>
      <trkpt lat="48.74335" lon="2.48639">
        <ele>67.8</ele>
        <time>2021-05-05T08:16:45Z</time>
      </trkpt>
      <trkpt lat="48.7434" lon="2.48641">
        <ele>67.8</ele>
        <time>2021-05-05T08:16:49Z</time>
      </trkpt>
      <trkpt lat="48.74344" lon="2.48647">
        <ele>67.7</ele>
        <time>2021-05-05T08:16:52Z</time>
      </trkpt>
      <trkpt lat="48.74347" lon="2.48653">
        <ele>67.7</ele>
        <time>2021-05-05T08:16:55Z</time>
      </trkpt>
      <trkpt lat="48.74353" lon="2.48655">
        <ele>67.6</ele>
        <time>2021-05-05T08:16:59Z</time>
      </trkpt>
      <trkpt lat="48.74357" lon="2.48661">
        <ele>67.5</ele>
        <time>2021-05-05T08:17:07Z</time>
      </trkpt>
      <trkpt lat="48.74359" lon="2.48668">
        <ele>67.4</ele>
        <time>2021-05-05T08:17:10Z</time>
      </trkpt>
      <trkpt lat="48.74364" lon="2.48671">
        <ele>67.3</ele>
        <time>2021-05-05T08:17:16Z</time>
      </trkpt>
      <trkpt lat="48.74367" lon="2.48677">
        <ele>67.3</ele>
        <time>2021-05-05T08:17:19Z</time>
      </trkpt>
      <trkpt lat="48.74372" lon="2.4868">
        <ele>67.2</ele>
        <time>2021-05-05T08:17:24Z</time>
      </trkpt>
      <trkpt lat="48.74376" lon="2.48685">
        <ele>67.2</ele>
        <time>2021-05-05T08:17:27Z</time>
      </trkpt>
      <trkpt lat="48.74379" lon="2.48691">
        <ele>67.1</ele>
        <time>2021-05-05T08:17:30Z</time>
      </trkpt>
      <trkpt lat="48.74381" lon="2.48699">
        <ele>67.1</ele>
        <time>2021-05-05T08:17:32Z</time>
      </trkpt>
      <trkpt lat="48.74383" lon="2.48709">
        <ele>67.1</ele>
        <time>2021-05-05T08:17:34Z</time>
      </trkpt>
      <trkpt lat="48.74386" lon="2.48714">
        <ele>67</ele>
        <time>2021-05-05T08:17:37Z</time>
      </trkpt>
      <trkpt lat="48.7439" lon="2.48718">
        <ele>67</ele>
        <time>2021-05-05T08:17:41Z</time>
      </trkpt>
      <trkpt lat="48.74394" lon="2.48722">
        <ele>66.9</ele>
        <time>2021-05-05T08:17:47Z</time>
      </trkpt>
      <trkpt lat="48.74397" lon="2.48728">
        <ele>66.8</ele>
        <time>2021-05-05T08:17:52Z</time>
      </trkpt>
      <trkpt lat="48.74401" lon="2.48735">
        <ele>66.8</ele>
        <time>2021-05-05T08:17:57Z</time>
      </trkpt>
      <trkpt lat="48.74405" lon="2.48739">
        <ele>66.7</ele>
        <time>2021-05-05T08:18:01Z</time>
      </trkpt>
      <trkpt lat="48.74408" lon="2.48744">
        <ele>66.6</ele>
        <time>2021-05-05T08:18:06Z</time>
      </trkpt>
      <trkpt lat="48.74412" lon="2.48747">
        <ele>66.6</ele>
        <time>2021-05-05T08:18:11Z</time>
      </trkpt>
      <trkpt lat="48.74418" lon="2.48749">
        <ele>66.5</ele>
        <time>2021-05-05T08:18:15Z</time>
      </trkpt>
      <trkpt lat="48.74423" lon="2.48751">
        <ele>66.5</ele>
        <time>2021-05-05T08:18:18Z</time>
      </trkpt>
      <trkpt lat="48.74427" lon="2.48757">
        <ele>66.4</ele>
        <time>2021-05-05T08:18:21Z</time>
      </trkpt>
      <trkpt lat="48.74429" lon="2.48762">
        <ele>66.4</ele>
        <time>2021-05-05T08:18:24Z</time>
      </trkpt>
      <trkpt lat="48.74428" lon="2.48769">
        <ele>66.3</ele>
        <time>2021-05-05T08:18:30Z</time>
      </trkpt>
      <trkpt lat="48.74429" lon="2.48776">
        <ele>66.2</ele>
        <time>2021-05-05T08:18:36Z</time>
      </trkpt>
      <trkpt lat="48.74431" lon="2.48783">
        <ele>66.2</ele>
        <time>2021-05-05T08:18:40Z</time>
      </trkpt>
      <trkpt lat="48.74435" lon="2.48788">
        <ele>66.1</ele>
        <time>2021-05-05T08:18:44Z</time>
      </trkpt>
      <trkpt lat="48.74438" lon="2.48796">
        <ele>66</ele>
        <time>2021-05-05T08:18:49Z</time>
      </trkpt>
      <trkpt lat="48.74441" lon="2.48801">
        <ele>66</ele>
        <time>2021-05-05T08:18:53Z</time>
      </trkpt>
      <trkpt lat="48.74444" lon="2.48807">
        <ele>65.9</ele>
        <time>2021-05-05T08:18:57Z</time>
      </trkpt>
      <trkpt lat="48.74447" lon="2.48814">
        <ele>65.9</ele>
        <time>2021-05-05T08:19:01Z</time>
      </trkpt>
      <trkpt lat="48.7445" lon="2.4882">
        <ele>65.8</ele>
        <time>2021-05-05T08:19:05Z</time>
      </trkpt>
      <trkpt lat="48.74454" lon="2.48823">
        <ele>65.7</ele>
        <time>2021-05-05T08:19:10Z</time>
      </trkpt>
      <trkpt lat="48.74455" lon="2.48832">
        <ele>65.6</ele>
        <time>2021-05-05T08:19:15Z</time>
      </trkpt>
      <trkpt lat="48.74456" lon="2.48839">
        <ele>65.6</ele>
        <time>2021-05-05T08:19:18Z</time>
      </trkpt>
      <trkpt lat="48.74458" lon="2.48846">
        <ele>65.5</ele>
        <time>2021-05-05T08:19:22Z</time>
      </trkpt>
      <trkpt lat="48.74457" lon="2.48854">
        <ele>65.4</ele>
        <time>2021-05-05T08:19:25Z</time>
      </trkpt>
      <trkpt lat="48.7446" lon="2.48862">
        <ele>65.3</ele>
        <time>2021-05-05T08:19:32Z</time>
      </trkpt>
      <trkpt lat="48.74463" lon="2.48867">
        <ele>65.3</ele>
        <time>2021-05-05T08:19:35Z</time>
      </trkpt>
      <trkpt lat="48.74467" lon="2.48874">
        <ele>65.2</ele>
        <time>2021-05-05T08:19:38Z</time>
      </trkpt>
      <trkpt lat="48.74469" lon="2.4888">
        <ele>65.1</ele>
        <time>2021-05-05T08:19:41Z</time>
      </trkpt>
      <trkpt lat="48.74473" lon="2.48885">
        <ele>65.1</ele>
        <time>2021-05-05T08:19:46Z</time>
      </trkpt>
      <trkpt lat="48.74476" lon="2.48891">
        <ele>65</ele>
        <time>2021-05-05T08:19:50Z</time>
      </trkpt>
      <trkpt lat="48.74478" lon="2.48898">
        <ele>64.9</ele>
        <time>2021-05-05T08:19:55Z</time>
      </trkpt>
      <trkpt lat="48.74481" lon="2.48905">
        <ele>64.8</ele>
        <time>2021-05-05T08:19:59Z</time>
      </trkpt>
      <trkpt lat="48.74483" lon="2.48912">
        <ele>64.7</ele>
        <time>2021-05-05T08:20:05Z</time>
      </trkpt>
      <trkpt lat="48.74487" lon="2.48918">
        <ele>64.7</ele>
        <time>2021-05-05T08:20:09Z</time>
      </trkpt>
      <trkpt lat="48.74492" lon="2.48921">
        <ele>64.6</ele>
        <time>2021-05-05T08:20:14Z</time>
      </trkpt>
      <trkpt lat="48.74496" lon="2.48926">
        <ele>64.5</ele>
        <time>2021-05-05T08:20:19Z</time>
      </trkpt>
      <trkpt lat="48.74498" lon="2.48934">
        <ele>64.5</ele>
        <time>2021-05-05T08:20:23Z</time>
      </trkpt>
      <trkpt lat="48.74502" lon="2.4894">
        <ele>64.4</ele>
        <time>2021-05-05T08:20:28Z</time>
      </trkpt>
      <trkpt lat="48.74503" lon="2.48947">
        <ele>64.4</ele>
        <time>2021-05-05T08:20:31Z</time>
      </trkpt>
      <trkpt lat="48.74505" lon="2.48954">
        <ele>64.4</ele>
        <time>2021-05-05T08:20:35Z</time>
      </trkpt>
      <trkpt lat="48.74506" lon="2.48962">
        <ele>64.3</ele>
        <time>2021-05-05T08:20:39Z</time>
      </trkpt>
      <trkpt lat="48.74509" lon="2.48969">
        <ele>64.3</ele>
        <time>2021-05-05T08:20:44Z</time>
      </trkpt>
      <trkpt lat="48.74507" lon="2.48976">
        <ele>64.3</ele>
        <time>2021-05-05T08:20:48Z</time>
      </trkpt>
      <trkpt lat="48.74506" lon="2.48983">
        <ele>64.3</ele>
        <time>2021-05-05T08:20:52Z</time>
      </trkpt>
      <trkpt lat="48.74508" lon="2.4899">
        <ele>64.2</ele>
        <time>2021-05-05T08:20:58Z</time>
      </trkpt>
      <trkpt lat="48.74514" lon="2.48992">
        <ele>64.2</ele>
        <time>2021-05-05T08:21:02Z</time>
      </trkpt>
      <trkpt lat="48.74517" lon="2.48997">
        <ele>64.2</ele>
        <time>2021-05-05T08:21:06Z</time>
      </trkpt>
      <trkpt lat="48.7452" lon="2.49004">
        <ele>64.2</ele>
        <time>2021-05-05T08:21:12Z</time>
      </trkpt>
      <trkpt lat="48.74522" lon="2.4901">
        <ele>64.2</ele>
        <time>2021-05-05T08:21:18Z</time>
      </trkpt>
      <trkpt lat="48.74525" lon="2.49017">
        <ele>64.1</ele>
        <time>2021-05-05T08:21:23Z</time>
      </trkpt>
      <trkpt lat="48.74526" lon="2.49024">
        <ele>64.1</ele>
        <time>2021-05-05T08:21:26Z</time>
      </trkpt>
      <trkpt lat="48.74528" lon="2.4903">
        <ele>64.1</ele>
        <time>2021-05-05T08:21:28Z</time>
      </trkpt>
      <trkpt lat="48.74529" lon="2.49037">
        <ele>64.1</ele>
        <time>2021-05-05T08:21:34Z</time>
      </trkpt>
      <trkpt lat="48.74529" lon="2.49047">
        <ele>64.1</ele>
        <time>2021-05-05T08:21:37Z</time>
      </trkpt>
      <trkpt lat="48.74531" lon="2.49055">
        <ele>64.1</ele>
        <time>2021-05-05T08:21:41Z</time>
      </trkpt>
      <trkpt lat="48.74534" lon="2.4906">
        <ele>64</ele>
        <time>2021-05-05T08:21:49Z</time>
      </trkpt>
      <trkpt lat="48.74539" lon="2.4906">
        <ele>64</ele>
        <time>2021-05-05T08:21:54Z</time>
      </trkpt>
      <trkpt lat="48.74543" lon="2.49065">
        <ele>64</ele>
        <time>2021-05-05T08:21:58Z</time>
      </trkpt>
      <trkpt lat="48.74545" lon="2.49072">
        <ele>63.9</ele>
        <time>2021-05-05T08:22:06Z</time>
      </trkpt>
      <trkpt lat="48.74546" lon="2.49081">
        <ele>63.9</ele>
        <time>2021-05-05T08:22:09Z</time>
      </trkpt>
      <trkpt lat="48.74551" lon="2.49083">
        <ele>63.9</ele>
        <time>2021-05-05T08:22:12Z</time>
      </trkpt>
      <trkpt lat="48.74546" lon="2.49087">
        <ele>63.8</ele>
        <time>2021-05-05T08:22:17Z</time>
      </trkpt>
      <trkpt lat="48.74543" lon="2.49094">
        <ele>63.8</ele>
        <time>2021-05-05T08:22:19Z</time>
      </trkpt>
      <trkpt lat="48.74543" lon="2.49102">
        <ele>63.8</ele>
        <time>2021-05-05T08:22:28Z</time>
      </trkpt>
      <trkpt lat="48.74541" lon="2.49108">
        <ele>63.7</ele>
        <time>2021-05-05T08:22:33Z</time>
      </trkpt>
      <trkpt lat="48.74543" lon="2.49115">
        <ele>63.7</ele>
        <time>2021-05-05T08:22:38Z</time>
      </trkpt>
      <trkpt lat="48.74547" lon="2.49122">
        <ele>63.7</ele>
        <time>2021-05-05T08:22:41Z</time>
      </trkpt>
      <trkpt lat="48.74552" lon="2.49126">
        <ele>63.7</ele>
        <time>2021-05-05T08:22:44Z</time>
      </trkpt>
      <trkpt lat="48.74557" lon="2.49134">
        <ele>63.7</ele>
        <time>2021-05-05T08:22:47Z</time>
      </trkpt>
      <trkpt lat="48.74562" lon="2.49141">
        <ele>63.6</ele>
        <time>2021-05-05T08:22:50Z</time>
      </trkpt>
      <trkpt lat="48.74564" lon="2.49148">
        <ele>63.6</ele>
        <time>2021-05-05T08:22:53Z</time>
      </trkpt>
      <trkpt lat="48.74566" lon="2.49156">
        <ele>63.5</ele>
        <time>2021-05-05T08:22:57Z</time>
      </trkpt>
      <trkpt lat="48.7457" lon="2.4916">
        <ele>63.4</ele>
        <time>2021-05-05T08:23:05Z</time>
      </trkpt>
      <trkpt lat="48.74573" lon="2.49165">
        <ele>63.4</ele>
        <time>2021-05-05T08:23:09Z</time>
      </trkpt>
      <trkpt lat="48.74576" lon="2.49173">
        <ele>63.3</ele>
        <time>2021-05-05T08:23:15Z</time>
      </trkpt>
      <trkpt lat="48.74578" lon="2.49179">
        <ele>63.2</ele>
        <time>2021-05-05T08:23:20Z</time>
      </trkpt>
      <trkpt lat="48.7457" lon="2.49167">
        <ele>59.5</ele>
        <time>2021-05-05T08:23:24Z</time>
      </trkpt>
      <trkpt lat="48.74585" lon="2.49187">
        <ele>62.1</ele>
        <time>2021-05-05T08:23:26Z</time>
      </trkpt>
      <trkpt lat="48.7459" lon="2.49194">
        <ele>62.5</ele>
        <time>2021-05-05T08:23:28Z</time>
      </trkpt>
      <trkpt lat="48.74595" lon="2.49199">
        <ele>62.5</ele>
        <time>2021-05-05T08:23:30Z</time>
      </trkpt>
      <trkpt lat="48.746" lon="2.49201">
        <ele>62.7</ele>
        <time>2021-05-05T08:23:32Z</time>
      </trkpt>
      <trkpt lat="48.74604" lon="2.49207">
        <ele>62.8</ele>
        <time>2021-05-05T08:23:35Z</time>
      </trkpt>
      <trkpt lat="48.74606" lon="2.49214">
        <ele>62.8</ele>
        <time>2021-05-05T08:23:40Z</time>
      </trkpt>
      <trkpt lat="48.74603" lon="2.49221">
        <ele>62.8</ele>
        <time>2021-05-05T08:23:45Z</time>
      </trkpt>
      <trkpt lat="48.74599" lon="2.49225">
        <ele>62.8</ele>
        <time>2021-05-05T08:23:51Z</time>
      </trkpt>
      <trkpt lat="48.74597" lon="2.49232">
        <ele>62.8</ele>
        <time>2021-05-05T08:23:56Z</time>
      </trkpt>
      <trkpt lat="48.74593" lon="2.49238">
        <ele>62.7</ele>
        <time>2021-05-05T08:24:02Z</time>
      </trkpt>
      <trkpt lat="48.74589" lon="2.49242">
        <ele>62.7</ele>
        <time>2021-05-05T08:24:05Z</time>
      </trkpt>
      <trkpt lat="48.74584" lon="2.49245">
        <ele>62.7</ele>
        <time>2021-05-05T08:24:08Z</time>
      </trkpt>
      <trkpt lat="48.74577" lon="2.49246">
        <ele>62.6</ele>
        <time>2021-05-05T08:24:11Z</time>
      </trkpt>
      <trkpt lat="48.74573" lon="2.49247">
        <ele>62.6</ele>
        <time>2021-05-05T08:24:16Z</time>
      </trkpt>
      <trkpt lat="48.74568" lon="2.49251">
        <ele>62.6</ele>
        <time>2021-05-05T08:24:20Z</time>
      </trkpt>
      <trkpt lat="48.74564" lon="2.49255">
        <ele>62.5</ele>
        <time>2021-05-05T08:24:25Z</time>
      </trkpt>
      <trkpt lat="48.74559" lon="2.49258">
        <ele>62.4</ele>
        <time>2021-05-05T08:24:30Z</time>
      </trkpt>
      <trkpt lat="48.74552" lon="2.49258">
        <ele>62.4</ele>
        <time>2021-05-05T08:24:34Z</time>
      </trkpt>
      <trkpt lat="48.74546" lon="2.49258">
        <ele>62.3</ele>
        <time>2021-05-05T08:24:38Z</time>
      </trkpt>
      <trkpt lat="48.74542" lon="2.49254">
        <ele>62.3</ele>
        <time>2021-05-05T08:24:44Z</time>
      </trkpt>
      <trkpt lat="48.74536" lon="2.49248">
        <ele>62.2</ele>
        <time>2021-05-05T08:24:50Z</time>
      </trkpt>
      <trkpt lat="48.74533" lon="2.49243">
        <ele>62.1</ele>
        <time>2021-05-05T08:24:53Z</time>
      </trkpt>
      <trkpt lat="48.74529" lon="2.49238">
        <ele>62</ele>
        <time>2021-05-05T08:25:05Z</time>
      </trkpt>
      <trkpt lat="48.74523" lon="2.49235">
        <ele>61.9</ele>
        <time>2021-05-05T08:25:10Z</time>
      </trkpt>
      <trkpt lat="48.74519" lon="2.49231">
        <ele>61.8</ele>
        <time>2021-05-05T08:25:16Z</time>
      </trkpt>
      <trkpt lat="48.74515" lon="2.49225">
        <ele>61.6</ele>
        <time>2021-05-05T08:25:27Z</time>
      </trkpt>
      <trkpt lat="48.74511" lon="2.49223">
        <ele>61.5</ele>
        <time>2021-05-05T08:25:36Z</time>
      </trkpt>
      <trkpt lat="48.74506" lon="2.49222">
        <ele>61.3</ele>
        <time>2021-05-05T08:25:47Z</time>
      </trkpt>
      <trkpt lat="48.74501" lon="2.49223">
        <ele>61.2</ele>
        <time>2021-05-05T08:25:53Z</time>
      </trkpt>
      <trkpt lat="48.74495" lon="2.49226">
        <ele>61.1</ele>
        <time>2021-05-05T08:25:57Z</time>
      </trkpt>
      <trkpt lat="48.74491" lon="2.49225">
        <ele>61.1</ele>
        <time>2021-05-05T08:26:00Z</time>
      </trkpt>
      <trkpt lat="48.74484" lon="2.49222">
        <ele>61</ele>
        <time>2021-05-05T08:26:06Z</time>
      </trkpt>
      <trkpt lat="48.7448" lon="2.49222">
        <ele>60.9</ele>
        <time>2021-05-05T08:26:10Z</time>
      </trkpt>
      <trkpt lat="48.74475" lon="2.49218">
        <ele>60.8</ele>
        <time>2021-05-05T08:26:15Z</time>
      </trkpt>
      <trkpt lat="48.7447" lon="2.49215">
        <ele>60.7</ele>
        <time>2021-05-05T08:26:19Z</time>
      </trkpt>
      <trkpt lat="48.74465" lon="2.49216">
        <ele>60.6</ele>
        <time>2021-05-05T08:26:29Z</time>
      </trkpt>
      <trkpt lat="48.74461" lon="2.49219">
        <ele>60.5</ele>
        <time>2021-05-05T08:26:40Z</time>
      </trkpt>
      <trkpt lat="48.74457" lon="2.49214">
        <ele>60.5</ele>
        <time>2021-05-05T08:26:47Z</time>
      </trkpt>
      <trkpt lat="48.74456" lon="2.49207">
        <ele>60.4</ele>
        <time>2021-05-05T08:26:56Z</time>
      </trkpt>
      <trkpt lat="48.74451" lon="2.49207">
        <ele>60.3</ele>
        <time>2021-05-05T08:27:02Z</time>
      </trkpt>
      <trkpt lat="48.74446" lon="2.49207">
        <ele>60.3</ele>
        <time>2021-05-05T08:27:06Z</time>
      </trkpt>
      <trkpt lat="48.74441" lon="2.49207">
        <ele>60.2</ele>
        <time>2021-05-05T08:27:11Z</time>
      </trkpt>
      <trkpt lat="48.74436" lon="2.49206">
        <ele>60.2</ele>
        <time>2021-05-05T08:27:15Z</time>
      </trkpt>
      <trkpt lat="48.74432" lon="2.4921">
        <ele>60</ele>
        <time>2021-05-05T08:27:25Z</time>
      </trkpt>
      <trkpt lat="48.74427" lon="2.49211">
        <ele>60</ele>
        <time>2021-05-05T08:27:29Z</time>
      </trkpt>
      <trkpt lat="48.74422" lon="2.49209">
        <ele>59.9</ele>
        <time>2021-05-05T08:27:37Z</time>
      </trkpt>
      <trkpt lat="48.74418" lon="2.49207">
        <ele>59.9</ele>
        <time>2021-05-05T08:27:42Z</time>
      </trkpt>
      <trkpt lat="48.74417" lon="2.49213">
        <ele>59.6</ele>
        <time>2021-05-05T08:28:04Z</time>
      </trkpt>
      <trkpt lat="48.7442" lon="2.4922">
        <ele>59.5</ele>
        <time>2021-05-05T08:28:13Z</time>
      </trkpt>
      <trkpt lat="48.74418" lon="2.49228">
        <ele>59.5</ele>
        <time>2021-05-05T08:28:17Z</time>
      </trkpt>
      <trkpt lat="48.74417" lon="2.49237">
        <ele>59.4</ele>
        <time>2021-05-05T08:28:21Z</time>
      </trkpt>
      <trkpt lat="48.74415" lon="2.49244">
        <ele>59.4</ele>
        <time>2021-05-05T08:28:26Z</time>
      </trkpt>
      <trkpt lat="48.74413" lon="2.49253">
        <ele>59.3</ele>
        <time>2021-05-05T08:28:33Z</time>
      </trkpt>
      <trkpt lat="48.74413" lon="2.4926">
        <ele>59.3</ele>
        <time>2021-05-05T08:28:37Z</time>
      </trkpt>
      <trkpt lat="48.74413" lon="2.49268">
        <ele>59.2</ele>
        <time>2021-05-05T08:28:45Z</time>
      </trkpt>
      <trkpt lat="48.74416" lon="2.49275">
        <ele>59.1</ele>
        <time>2021-05-05T08:28:49Z</time>
      </trkpt>
      <trkpt lat="48.74414" lon="2.49281">
        <ele>59</ele>
        <time>2021-05-05T08:28:57Z</time>
      </trkpt>
      <trkpt lat="48.74411" lon="2.49288">
        <ele>58.9</ele>
        <time>2021-05-05T08:29:10Z</time>
      </trkpt>
      <trkpt lat="48.74408" lon="2.49294">
        <ele>58.8</ele>
        <time>2021-05-05T08:29:14Z</time>
      </trkpt>
      <trkpt lat="48.74408" lon="2.49302">
        <ele>58.7</ele>
        <time>2021-05-05T08:29:19Z</time>
      </trkpt>
      <trkpt lat="48.74408" lon="2.49309">
        <ele>58.7</ele>
        <time>2021-05-05T08:29:24Z</time>
      </trkpt>
      <trkpt lat="48.74405" lon="2.49318">
        <ele>58.6</ele>
        <time>2021-05-05T08:29:27Z</time>
      </trkpt>
      <trkpt lat="48.74404" lon="2.49324">
        <ele>58.6</ele>
        <time>2021-05-05T08:29:30Z</time>
      </trkpt>
      <trkpt lat="48.74406" lon="2.49331">
        <ele>58.4</ele>
        <time>2021-05-05T08:29:36Z</time>
      </trkpt>
      <trkpt lat="48.74409" lon="2.49341">
        <ele>58.3</ele>
        <time>2021-05-05T08:29:44Z</time>
      </trkpt>
      <trkpt lat="48.74411" lon="2.49349">
        <ele>58.2</ele>
        <time>2021-05-05T08:29:46Z</time>
      </trkpt>
      <trkpt lat="48.74412" lon="2.49358">
        <ele>58.1</ele>
        <time>2021-05-05T08:29:49Z</time>
      </trkpt>
      <trkpt lat="48.74415" lon="2.49365">
        <ele>58</ele>
        <time>2021-05-05T08:29:56Z</time>
      </trkpt>
      <trkpt lat="48.74416" lon="2.49372">
        <ele>57.7</ele>
        <time>2021-05-05T08:30:08Z</time>
      </trkpt>
      <trkpt lat="48.74419" lon="2.49378">
        <ele>57.5</ele>
        <time>2021-05-05T08:30:17Z</time>
      </trkpt>
      <trkpt lat="48.74421" lon="2.49385">
        <ele>57.4</ele>
        <time>2021-05-05T08:30:22Z</time>
      </trkpt>
      <trkpt lat="48.74422" lon="2.49393">
        <ele>57.3</ele>
        <time>2021-05-05T08:30:25Z</time>
      </trkpt>
      <trkpt lat="48.74424" lon="2.494">
        <ele>57.2</ele>
        <time>2021-05-05T08:30:28Z</time>
      </trkpt>
      <trkpt lat="48.74427" lon="2.49408">
        <ele>57.1</ele>
        <time>2021-05-05T08:30:32Z</time>
      </trkpt>
      <trkpt lat="48.74429" lon="2.49414">
        <ele>56.9</ele>
        <time>2021-05-05T08:30:41Z</time>
      </trkpt>
      <trkpt lat="48.74429" lon="2.49422">
        <ele>56.8</ele>
        <time>2021-05-05T08:30:43Z</time>
      </trkpt>
      <trkpt lat="48.74428" lon="2.49429">
        <ele>56.8</ele>
        <time>2021-05-05T08:30:46Z</time>
      </trkpt>
      <trkpt lat="48.74428" lon="2.49436">
        <ele>56.3</ele>
        <time>2021-05-05T08:31:13Z</time>
      </trkpt>
      <trkpt lat="48.74425" lon="2.4945">
        <ele>56.2</ele>
        <time>2021-05-05T08:31:16Z</time>
      </trkpt>
      <trkpt lat="48.74425" lon="2.49462">
        <ele>56.2</ele>
        <time>2021-05-05T08:31:18Z</time>
      </trkpt>
      <trkpt lat="48.74425" lon="2.49468">
        <ele>56.2</ele>
        <time>2021-05-05T08:31:20Z</time>
      </trkpt>
      <trkpt lat="48.74429" lon="2.49471">
        <ele>56.1</ele>
        <time>2021-05-05T08:31:30Z</time>
      </trkpt>
      <trkpt lat="48.74423" lon="2.49473">
        <ele>56.1</ele>
        <time>2021-05-05T08:31:40Z</time>
      </trkpt>
      <trkpt lat="48.7442" lon="2.49477">
        <ele>56.1</ele>
        <time>2021-05-05T08:31:43Z</time>
      </trkpt>
      <trkpt lat="48.74416" lon="2.49482">
        <ele>56</ele>
        <time>2021-05-05T08:31:50Z</time>
      </trkpt>
      <trkpt lat="48.74411" lon="2.49482">
        <ele>56</ele>
        <time>2021-05-05T08:31:56Z</time>
      </trkpt>
      <trkpt lat="48.74407" lon="2.49483">
        <ele>56</ele>
        <time>2021-05-05T08:32:00Z</time>
      </trkpt>
      <trkpt lat="48.74401" lon="2.49485">
        <ele>55.9</ele>
        <time>2021-05-05T08:32:05Z</time>
      </trkpt>
      <trkpt lat="48.74397" lon="2.49489">
        <ele>55.8</ele>
        <time>2021-05-05T08:32:13Z</time>
      </trkpt>
      <trkpt lat="48.74392" lon="2.49494">
        <ele>55.8</ele>
        <time>2021-05-05T08:32:17Z</time>
      </trkpt>
      <trkpt lat="48.74388" lon="2.49498">
        <ele>55.7</ele>
        <time>2021-05-05T08:32:22Z</time>
      </trkpt>
      <trkpt lat="48.74383" lon="2.49504">
        <ele>55.5</ele>
        <time>2021-05-05T08:32:29Z</time>
      </trkpt>
      <trkpt lat="48.74379" lon="2.49508">
        <ele>55.4</ele>
        <time>2021-05-05T08:32:32Z</time>
      </trkpt>
      <trkpt lat="48.74374" lon="2.49508">
        <ele>55.4</ele>
        <time>2021-05-05T08:32:35Z</time>
      </trkpt>
      <trkpt lat="48.74369" lon="2.4951">
        <ele>55.2</ele>
        <time>2021-05-05T08:32:39Z</time>
      </trkpt>
      <trkpt lat="48.74367" lon="2.49516">
        <ele>55</ele>
        <time>2021-05-05T08:32:45Z</time>
      </trkpt>
      <trkpt lat="48.74364" lon="2.49522">
        <ele>54.7</ele>
        <time>2021-05-05T08:32:55Z</time>
      </trkpt>
      <trkpt lat="48.74359" lon="2.49524">
        <ele>54.6</ele>
        <time>2021-05-05T08:32:58Z</time>
      </trkpt>
      <trkpt lat="48.74353" lon="2.49533">
        <ele>54.4</ele>
        <time>2021-05-05T08:33:01Z</time>
      </trkpt>
      <trkpt lat="48.74351" lon="2.49539">
        <ele>54.3</ele>
        <time>2021-05-05T08:33:04Z</time>
      </trkpt>
      <trkpt lat="48.74348" lon="2.49544">
        <ele>54.2</ele>
        <time>2021-05-05T08:33:08Z</time>
      </trkpt>
      <trkpt lat="48.74343" lon="2.49551">
        <ele>54</ele>
        <time>2021-05-05T08:33:12Z</time>
      </trkpt>
      <trkpt lat="48.74338" lon="2.49559">
        <ele>53.9</ele>
        <time>2021-05-05T08:33:15Z</time>
      </trkpt>
      <trkpt lat="48.74332" lon="2.4956">
        <ele>53.8</ele>
        <time>2021-05-05T08:33:18Z</time>
      </trkpt>
      <trkpt lat="48.74329" lon="2.49565">
        <ele>53.7</ele>
        <time>2021-05-05T08:33:22Z</time>
      </trkpt>
      <trkpt lat="48.74325" lon="2.49571">
        <ele>53.5</ele>
        <time>2021-05-05T08:33:30Z</time>
      </trkpt>
      <trkpt lat="48.7432" lon="2.49575">
        <ele>53.3</ele>
        <time>2021-05-05T08:33:34Z</time>
      </trkpt>
      <trkpt lat="48.74315" lon="2.49578">
        <ele>53.2</ele>
        <time>2021-05-05T08:33:37Z</time>
      </trkpt>
      <trkpt lat="48.7431" lon="2.4958">
        <ele>53.1</ele>
        <time>2021-05-05T08:33:40Z</time>
      </trkpt>
      <trkpt lat="48.74305" lon="2.49584">
        <ele>52.9</ele>
        <time>2021-05-05T08:33:45Z</time>
      </trkpt>
      <trkpt lat="48.74301" lon="2.49588">
        <ele>52.6</ele>
        <time>2021-05-05T08:33:49Z</time>
      </trkpt>
      <trkpt lat="48.74295" lon="2.49592">
        <ele>52.2</ele>
        <time>2021-05-05T08:34:00Z</time>
      </trkpt>
      <trkpt lat="48.74291" lon="2.49598">
        <ele>52.1</ele>
        <time>2021-05-05T08:34:02Z</time>
      </trkpt>
      <trkpt lat="48.74287" lon="2.49602">
        <ele>51.7</ele>
        <time>2021-05-05T08:34:06Z</time>
      </trkpt>
      <trkpt lat="48.74285" lon="2.49608">
        <ele>51.4</ele>
        <time>2021-05-05T08:34:12Z</time>
      </trkpt>
      <trkpt lat="48.74282" lon="2.49617">
        <ele>51</ele>
        <time>2021-05-05T08:34:18Z</time>
      </trkpt>
      <trkpt lat="48.74281" lon="2.49627">
        <ele>50.8</ele>
        <time>2021-05-05T08:34:21Z</time>
      </trkpt>
      <trkpt lat="48.74283" lon="2.49635">
        <ele>50.6</ele>
        <time>2021-05-05T08:34:24Z</time>
      </trkpt>
      <trkpt lat="48.74285" lon="2.49642">
        <ele>50.4</ele>
        <time>2021-05-05T08:34:28Z</time>
      </trkpt>
      <trkpt lat="48.74287" lon="2.4965">
        <ele>50.2</ele>
        <time>2021-05-05T08:34:33Z</time>
      </trkpt>
      <trkpt lat="48.74287" lon="2.49659">
        <ele>50</ele>
        <time>2021-05-05T08:34:37Z</time>
      </trkpt>
      <trkpt lat="48.74286" lon="2.49669">
        <ele>50</ele>
        <time>2021-05-05T08:34:39Z</time>
      </trkpt>
      <trkpt lat="48.74285" lon="2.49676">
        <ele>50</ele>
        <time>2021-05-05T08:34:41Z</time>
      </trkpt>
      <trkpt lat="48.74285" lon="2.49685">
        <ele>49.9</ele>
        <time>2021-05-05T08:34:46Z</time>
      </trkpt>
      <trkpt lat="48.74285" lon="2.49693">
        <ele>49.7</ele>
        <time>2021-05-05T08:34:57Z</time>
      </trkpt>
      <trkpt lat="48.74283" lon="2.49701">
        <ele>49.6</ele>
        <time>2021-05-05T08:35:01Z</time>
      </trkpt>
      <trkpt lat="48.74278" lon="2.49703">
        <ele>49.5</ele>
        <time>2021-05-05T08:35:09Z</time>
      </trkpt>
      <trkpt lat="48.74274" lon="2.49705">
        <ele>49.5</ele>
        <time>2021-05-05T08:35:14Z</time>
      </trkpt>
      <trkpt lat="48.7427" lon="2.49709">
        <ele>49.3</ele>
        <time>2021-05-05T08:35:26Z</time>
      </trkpt>
      <trkpt lat="48.74267" lon="2.49716">
        <ele>49.1</ele>
        <time>2021-05-05T08:35:32Z</time>
      </trkpt>
      <trkpt lat="48.74267" lon="2.49723">
        <ele>48.9</ele>
        <time>2021-05-05T08:35:36Z</time>
      </trkpt>
      <trkpt lat="48.74269" lon="2.4973">
        <ele>48.6</ele>
        <time>2021-05-05T08:35:41Z</time>
      </trkpt>
      <trkpt lat="48.74273" lon="2.49736">
        <ele>48.3</ele>
        <time>2021-05-05T08:35:45Z</time>
      </trkpt>
      <trkpt lat="48.74277" lon="2.4974">
        <ele>48.2</ele>
        <time>2021-05-05T08:35:47Z</time>
      </trkpt>
      <trkpt lat="48.74282" lon="2.49745">
        <ele>47.9</ele>
        <time>2021-05-05T08:35:50Z</time>
      </trkpt>
      <trkpt lat="48.74285" lon="2.49753">
        <ele>47.7</ele>
        <time>2021-05-05T08:35:53Z</time>
      </trkpt>
      <trkpt lat="48.74287" lon="2.4976">
        <ele>47.6</ele>
        <time>2021-05-05T08:35:55Z</time>
      </trkpt>
      <trkpt lat="48.74288" lon="2.49767">
        <ele>47.3</ele>
        <time>2021-05-05T08:35:58Z</time>
      </trkpt>
      <trkpt lat="48.74287" lon="2.49773">
        <ele>47.2</ele>
        <time>2021-05-05T08:36:00Z</time>
      </trkpt>
      <trkpt lat="48.74284" lon="2.49784">
        <ele>46.9</ele>
        <time>2021-05-05T08:36:06Z</time>
      </trkpt>
      <trkpt lat="48.74284" lon="2.49793">
        <ele>46.6</ele>
        <time>2021-05-05T08:36:09Z</time>
      </trkpt>
      <trkpt lat="48.74285" lon="2.49802">
        <ele>46.4</ele>
        <time>2021-05-05T08:36:12Z</time>
      </trkpt>
      <trkpt lat="48.74287" lon="2.49808">
        <ele>46</ele>
        <time>2021-05-05T08:36:18Z</time>
      </trkpt>
      <trkpt lat="48.74288" lon="2.49818">
        <ele>45.5</ele>
        <time>2021-05-05T08:36:27Z</time>
      </trkpt>
      <trkpt lat="48.74287" lon="2.49824">
        <ele>45.4</ele>
        <time>2021-05-05T08:36:30Z</time>
      </trkpt>
      <trkpt lat="48.74285" lon="2.49832">
        <ele>45.2</ele>
        <time>2021-05-05T08:36:34Z</time>
      </trkpt>
      <trkpt lat="48.74289" lon="2.49839">
        <ele>44.9</ele>
        <time>2021-05-05T08:36:40Z</time>
      </trkpt>
      <trkpt lat="48.74292" lon="2.49844">
        <ele>44.7</ele>
        <time>2021-05-05T08:36:43Z</time>
      </trkpt>
      <trkpt lat="48.74295" lon="2.4985">
        <ele>44.5</ele>
        <time>2021-05-05T08:36:48Z</time>
      </trkpt>
      <trkpt lat="48.74298" lon="2.49857">
        <ele>44.3</ele>
        <time>2021-05-05T08:36:52Z</time>
      </trkpt>
      <trkpt lat="48.74301" lon="2.49864">
        <ele>44.3</ele>
        <time>2021-05-05T08:36:55Z</time>
      </trkpt>
      <trkpt lat="48.74306" lon="2.49876">
        <ele>44.4</ele>
        <time>2021-05-05T08:36:58Z</time>
      </trkpt>
      <trkpt lat="48.74308" lon="2.49882">
        <ele>44.5</ele>
        <time>2021-05-05T08:37:02Z</time>
      </trkpt>
      <trkpt lat="48.74308" lon="2.49892">
        <ele>45.1</ele>
        <time>2021-05-05T08:37:26Z</time>
      </trkpt>
      <trkpt lat="48.74304" lon="2.49898">
        <ele>45.2</ele>
        <time>2021-05-05T08:37:31Z</time>
      </trkpt>
      <trkpt lat="48.74301" lon="2.49904">
        <ele>45.3</ele>
        <time>2021-05-05T08:37:36Z</time>
      </trkpt>
      <trkpt lat="48.74298" lon="2.49911">
        <ele>45.3</ele>
        <time>2021-05-05T08:37:45Z</time>
      </trkpt>
      <trkpt lat="48.74297" lon="2.49918">
        <ele>45.3</ele>
        <time>2021-05-05T08:37:49Z</time>
      </trkpt>
      <trkpt lat="48.743" lon="2.49925">
        <ele>45.3</ele>
        <time>2021-05-05T08:37:53Z</time>
      </trkpt>
      <trkpt lat="48.74299" lon="2.49932">
        <ele>45.5</ele>
        <time>2021-05-05T08:38:01Z</time>
      </trkpt>
      <trkpt lat="48.74301" lon="2.4994">
        <ele>45.6</ele>
        <time>2021-05-05T08:38:06Z</time>
      </trkpt>
      <trkpt lat="48.74297" lon="2.49947">
        <ele>45.8</ele>
        <time>2021-05-05T08:38:11Z</time>
      </trkpt>
      <trkpt lat="48.74297" lon="2.49954">
        <ele>45.9</ele>
        <time>2021-05-05T08:38:16Z</time>
      </trkpt>
      <trkpt lat="48.74298" lon="2.49961">
        <ele>46.2</ele>
        <time>2021-05-05T08:38:23Z</time>
      </trkpt>
      <trkpt lat="48.74295" lon="2.49965">
        <ele>46.6</ele>
        <time>2021-05-05T08:38:33Z</time>
      </trkpt>
      <trkpt lat="48.7429" lon="2.49969">
        <ele>46.8</ele>
        <time>2021-05-05T08:38:37Z</time>
      </trkpt>
      <trkpt lat="48.74285" lon="2.49971">
        <ele>47</ele>
        <time>2021-05-05T08:38:41Z</time>
      </trkpt>
      <trkpt lat="48.7428" lon="2.49972">
        <ele>47.5</ele>
        <time>2021-05-05T08:38:50Z</time>
      </trkpt>
      <trkpt lat="48.74276" lon="2.49975">
        <ele>47.7</ele>
        <time>2021-05-05T08:38:55Z</time>
      </trkpt>
      <trkpt lat="48.74271" lon="2.49975">
        <ele>48.4</ele>
        <time>2021-05-05T08:39:16Z</time>
      </trkpt>
      <trkpt lat="48.74268" lon="2.49981">
        <ele>48.7</ele>
        <time>2021-05-05T08:39:25Z</time>
      </trkpt>
      <trkpt lat="48.74264" lon="2.49979">
        <ele>49.3</ele>
        <time>2021-05-05T08:39:39Z</time>
      </trkpt>
      <trkpt lat="48.7426" lon="2.49983">
        <ele>49.8</ele>
        <time>2021-05-05T08:39:50Z</time>
      </trkpt>
      <trkpt lat="48.74256" lon="2.49978">
        <ele>51.9</ele>
        <time>2021-05-05T08:40:32Z</time>
      </trkpt>
      <trkpt lat="48.74252" lon="2.49977">
        <ele>52.7</ele>
        <time>2021-05-05T08:40:49Z</time>
      </trkpt>
      <trkpt lat="48.7425" lon="2.49971">
        <ele>53.7</ele>
        <time>2021-05-05T08:41:04Z</time>
      </trkpt>
      <trkpt lat="48.7425" lon="2.49963">
        <ele>54.2</ele>
        <time>2021-05-05T08:41:12Z</time>
      </trkpt>
      <trkpt lat="48.74251" lon="2.49955">
        <ele>54.6</ele>
        <time>2021-05-05T08:41:18Z</time>
      </trkpt>
      <trkpt lat="48.74249" lon="2.49948">
        <ele>54.9</ele>
        <time>2021-05-05T08:41:25Z</time>
      </trkpt>
      <trkpt lat="48.74246" lon="2.49943">
        <ele>55.2</ele>
        <time>2021-05-05T08:41:32Z</time>
      </trkpt>
      <trkpt lat="48.7425" lon="2.4994">
        <ele>55.4</ele>
        <time>2021-05-05T08:41:38Z</time>
      </trkpt>
      <trkpt lat="48.74248" lon="2.49934">
        <ele>55.8</ele>
        <time>2021-05-05T08:41:55Z</time>
      </trkpt>
      <trkpt lat="48.74251" lon="2.49939">
        <ele>55.6</ele>
        <time>2021-05-05T08:42:21Z</time>
      </trkpt>
      <trkpt lat="48.74248" lon="2.49943">
        <ele>55.3</ele>
        <time>2021-05-05T08:42:33Z</time>
      </trkpt>
      <trkpt lat="48.74248" lon="2.49936">
        <ele>54.7</ele>
        <time>2021-05-05T08:42:50Z</time>
      </trkpt>
      <trkpt lat="48.74248" lon="2.49928">
        <ele>54.5</ele>
        <time>2021-05-05T08:42:57Z</time>
      </trkpt>
      <trkpt lat="48.74246" lon="2.49921">
        <ele>54.2</ele>
        <time>2021-05-05T08:43:05Z</time>
      </trkpt>
      <trkpt lat="48.74249" lon="2.49926">
        <ele>53.5</ele>
        <time>2021-05-05T08:43:29Z</time>
      </trkpt>
      <trkpt lat="48.74252" lon="2.49932">
        <ele>52.9</ele>
        <time>2021-05-05T08:44:00Z</time>
      </trkpt>
      <trkpt lat="48.7425" lon="2.49939">
        <ele>52.7</ele>
        <time>2021-05-05T08:44:20Z</time>
      </trkpt>
      <trkpt lat="48.74248" lon="2.49946">
        <ele>52.7</ele>
        <time>2021-05-05T08:44:27Z</time>
      </trkpt>
      <trkpt lat="48.74248" lon="2.49953">
        <ele>52.5</ele>
        <time>2021-05-05T08:44:44Z</time>
      </trkpt>
      <trkpt lat="48.7425" lon="2.49962">
        <ele>52.5</ele>
        <time>2021-05-05T08:44:55Z</time>
      </trkpt>
      <trkpt lat="48.74251" lon="2.4997">
        <ele>52.5</ele>
        <time>2021-05-05T08:44:57Z</time>
      </trkpt>
      <trkpt lat="48.74252" lon="2.49977">
        <ele>52.4</ele>
        <time>2021-05-05T08:45:03Z</time>
      </trkpt>
      <trkpt lat="48.74256" lon="2.49982">
        <ele>52.5</ele>
        <time>2021-05-05T08:45:16Z</time>
      </trkpt>
      <trkpt lat="48.74258" lon="2.49976">
        <ele>53</ele>
        <time>2021-05-05T08:45:42Z</time>
      </trkpt>
      <trkpt lat="48.74258" lon="2.49984">
        <ele>54</ele>
        <time>2021-05-05T08:46:25Z</time>
      </trkpt>
      <trkpt lat="48.74257" lon="2.49993">
        <ele>54.5</ele>
        <time>2021-05-05T08:46:44Z</time>
      </trkpt>
      <trkpt lat="48.74259" lon="2.49999">
        <ele>55.3</ele>
        <time>2021-05-05T08:47:06Z</time>
      </trkpt>
      <trkpt lat="48.74262" lon="2.49992">
        <ele>56.7</ele>
        <time>2021-05-05T08:47:52Z</time>
      </trkpt>
      <trkpt lat="48.74263" lon="2.49985">
        <ele>57</ele>
        <time>2021-05-05T08:48:00Z</time>
      </trkpt>
      <trkpt lat="48.74258" lon="2.49981">
        <ele>57.2</ele>
        <time>2021-05-05T08:48:08Z</time>
      </trkpt>
      <trkpt lat="48.74254" lon="2.49982">
        <ele>57.3</ele>
        <time>2021-05-05T08:48:11Z</time>
      </trkpt>
      <trkpt lat="48.74248" lon="2.49983">
        <ele>57.3</ele>
        <time>2021-05-05T08:48:14Z</time>
      </trkpt>
      <trkpt lat="48.74242" lon="2.49982">
        <ele>57.4</ele>
        <time>2021-05-05T08:48:18Z</time>
      </trkpt>
      <trkpt lat="48.74236" lon="2.49983">
        <ele>57.4</ele>
        <time>2021-05-05T08:48:24Z</time>
      </trkpt>
      <trkpt lat="48.74229" lon="2.49983">
        <ele>57.4</ele>
        <time>2021-05-05T08:48:27Z</time>
      </trkpt>
      <trkpt lat="48.74223" lon="2.49986">
        <ele>57.4</ele>
        <time>2021-05-05T08:48:30Z</time>
      </trkpt>
      <trkpt lat="48.74218" lon="2.4999">
        <ele>57.3</ele>
        <time>2021-05-05T08:48:33Z</time>
      </trkpt>
      <trkpt lat="48.74213" lon="2.49989">
        <ele>57.2</ele>
        <time>2021-05-05T08:48:38Z</time>
      </trkpt>
      <trkpt lat="48.74208" lon="2.49989">
        <ele>57.2</ele>
        <time>2021-05-05T08:48:42Z</time>
      </trkpt>
      <trkpt lat="48.74203" lon="2.49994">
        <ele>57.1</ele>
        <time>2021-05-05T08:48:45Z</time>
      </trkpt>
      <trkpt lat="48.74199" lon="2.49997">
        <ele>57.1</ele>
        <time>2021-05-05T08:48:48Z</time>
      </trkpt>
      <trkpt lat="48.74193" lon="2.50002">
        <ele>57</ele>
        <time>2021-05-05T08:48:51Z</time>
      </trkpt>
      <trkpt lat="48.74189" lon="2.50008">
        <ele>56.9</ele>
        <time>2021-05-05T08:48:54Z</time>
      </trkpt>
      <trkpt lat="48.74186" lon="2.50016">
        <ele>56.9</ele>
        <time>2021-05-05T08:48:57Z</time>
      </trkpt>
      <trkpt lat="48.74183" lon="2.50022">
        <ele>56.8</ele>
        <time>2021-05-05T08:48:59Z</time>
      </trkpt>
      <trkpt lat="48.74177" lon="2.50034">
        <ele>56.7</ele>
        <time>2021-05-05T08:49:02Z</time>
      </trkpt>
      <trkpt lat="48.74172" lon="2.50043">
        <ele>56.6</ele>
        <time>2021-05-05T08:49:05Z</time>
      </trkpt>
      <trkpt lat="48.7417" lon="2.50048">
        <ele>56.5</ele>
        <time>2021-05-05T08:49:08Z</time>
      </trkpt>
      <trkpt lat="48.74171" lon="2.50055">
        <ele>56.4</ele>
        <time>2021-05-05T08:49:15Z</time>
      </trkpt>
      <trkpt lat="48.74167" lon="2.50058">
        <ele>56.1</ele>
        <time>2021-05-05T08:49:23Z</time>
      </trkpt>
      <trkpt lat="48.74162" lon="2.50059">
        <ele>56</ele>
        <time>2021-05-05T08:49:27Z</time>
      </trkpt>
      <trkpt lat="48.74157" lon="2.5006">
        <ele>55.9</ele>
        <time>2021-05-05T08:49:30Z</time>
      </trkpt>
      <trkpt lat="48.74153" lon="2.50063">
        <ele>55.8</ele>
        <time>2021-05-05T08:49:36Z</time>
      </trkpt>
      <trkpt lat="48.74152" lon="2.50071">
        <ele>55.6</ele>
        <time>2021-05-05T08:49:43Z</time>
      </trkpt>
      <trkpt lat="48.7415" lon="2.5008">
        <ele>55.5</ele>
        <time>2021-05-05T08:49:46Z</time>
      </trkpt>
      <trkpt lat="48.74148" lon="2.50089">
        <ele>55.5</ele>
        <time>2021-05-05T08:49:48Z</time>
      </trkpt>
      <trkpt lat="48.74146" lon="2.50095">
        <ele>55.4</ele>
        <time>2021-05-05T08:49:51Z</time>
      </trkpt>
      <trkpt lat="48.74142" lon="2.50103">
        <ele>55.4</ele>
        <time>2021-05-05T08:49:53Z</time>
      </trkpt>
      <trkpt lat="48.74139" lon="2.5011">
        <ele>55.3</ele>
        <time>2021-05-05T08:49:55Z</time>
      </trkpt>
      <trkpt lat="48.74137" lon="2.50118">
        <ele>55.3</ele>
        <time>2021-05-05T08:49:58Z</time>
      </trkpt>
      <trkpt lat="48.74137" lon="2.50126">
        <ele>55.3</ele>
        <time>2021-05-05T08:50:02Z</time>
      </trkpt>
      <trkpt lat="48.74137" lon="2.50134">
        <ele>55.3</ele>
        <time>2021-05-05T08:50:07Z</time>
      </trkpt>
      <trkpt lat="48.74135" lon="2.50139">
        <ele>55.2</ele>
        <time>2021-05-05T08:50:12Z</time>
      </trkpt>
      <trkpt lat="48.74132" lon="2.50145">
        <ele>55.2</ele>
        <time>2021-05-05T08:50:17Z</time>
      </trkpt>
      <trkpt lat="48.7413" lon="2.50151">
        <ele>55.2</ele>
        <time>2021-05-05T08:50:21Z</time>
      </trkpt>
      <trkpt lat="48.74125" lon="2.50155">
        <ele>55.2</ele>
        <time>2021-05-05T08:50:25Z</time>
      </trkpt>
      <trkpt lat="48.74121" lon="2.50159">
        <ele>55.2</ele>
        <time>2021-05-05T08:50:30Z</time>
      </trkpt>
      <trkpt lat="48.74116" lon="2.50162">
        <ele>55.2</ele>
        <time>2021-05-05T08:50:39Z</time>
      </trkpt>
      <trkpt lat="48.74111" lon="2.50167">
        <ele>55.2</ele>
        <time>2021-05-05T08:50:43Z</time>
      </trkpt>
      <trkpt lat="48.74108" lon="2.50172">
        <ele>55.2</ele>
        <time>2021-05-05T08:50:46Z</time>
      </trkpt>
      <trkpt lat="48.74104" lon="2.50179">
        <ele>55.2</ele>
        <time>2021-05-05T08:50:49Z</time>
      </trkpt>
      <trkpt lat="48.741" lon="2.50185">
        <ele>55.2</ele>
        <time>2021-05-05T08:50:54Z</time>
      </trkpt>
      <trkpt lat="48.74096" lon="2.50189">
        <ele>55.2</ele>
        <time>2021-05-05T08:51:01Z</time>
      </trkpt>
      <trkpt lat="48.74095" lon="2.50196">
        <ele>55.2</ele>
        <time>2021-05-05T08:51:06Z</time>
      </trkpt>
      <trkpt lat="48.74094" lon="2.50204">
        <ele>55.2</ele>
        <time>2021-05-05T08:51:10Z</time>
      </trkpt>
      <trkpt lat="48.74094" lon="2.50213">
        <ele>55.2</ele>
        <time>2021-05-05T08:51:13Z</time>
      </trkpt>
      <trkpt lat="48.74092" lon="2.50221">
        <ele>55.3</ele>
        <time>2021-05-05T08:51:16Z</time>
      </trkpt>
      <trkpt lat="48.74089" lon="2.50229">
        <ele>55.3</ele>
        <time>2021-05-05T08:51:21Z</time>
      </trkpt>
      <trkpt lat="48.74087" lon="2.50235">
        <ele>55.4</ele>
        <time>2021-05-05T08:51:25Z</time>
      </trkpt>
      <trkpt lat="48.74085" lon="2.50242">
        <ele>55.4</ele>
        <time>2021-05-05T08:51:30Z</time>
      </trkpt>
      <trkpt lat="48.74084" lon="2.50249">
        <ele>55.5</ele>
        <time>2021-05-05T08:51:33Z</time>
      </trkpt>
      <trkpt lat="48.74082" lon="2.50256">
        <ele>55.5</ele>
        <time>2021-05-05T08:51:36Z</time>
      </trkpt>
      <trkpt lat="48.74079" lon="2.50262">
        <ele>55.5</ele>
        <time>2021-05-05T08:51:39Z</time>
      </trkpt>
      <trkpt lat="48.74076" lon="2.50268">
        <ele>55.6</ele>
        <time>2021-05-05T08:51:43Z</time>
      </trkpt>
      <trkpt lat="48.74073" lon="2.50274">
        <ele>55.7</ele>
        <time>2021-05-05T08:51:51Z</time>
      </trkpt>
      <trkpt lat="48.7407" lon="2.5028">
        <ele>55.8</ele>
        <time>2021-05-05T08:51:55Z</time>
      </trkpt>
      <trkpt lat="48.74067" lon="2.50285">
        <ele>55.9</ele>
        <time>2021-05-05T08:51:59Z</time>
      </trkpt>
      <trkpt lat="48.74062" lon="2.50289">
        <ele>56</ele>
        <time>2021-05-05T08:52:05Z</time>
      </trkpt>
      <trkpt lat="48.7406" lon="2.50296">
        <ele>56.1</ele>
        <time>2021-05-05T08:52:09Z</time>
      </trkpt>
      <trkpt lat="48.74058" lon="2.50304">
        <ele>56.1</ele>
        <time>2021-05-05T08:52:13Z</time>
      </trkpt>
      <trkpt lat="48.74055" lon="2.5031">
        <ele>56.2</ele>
        <time>2021-05-05T08:52:19Z</time>
      </trkpt>
      <trkpt lat="48.74053" lon="2.50316">
        <ele>56.3</ele>
        <time>2021-05-05T08:52:22Z</time>
      </trkpt>
      <trkpt lat="48.7405" lon="2.50323">
        <ele>56.4</ele>
        <time>2021-05-05T08:52:26Z</time>
      </trkpt>
      <trkpt lat="48.74046" lon="2.50328">
        <ele>56.4</ele>
        <time>2021-05-05T08:52:29Z</time>
      </trkpt>
      <trkpt lat="48.74043" lon="2.50333">
        <ele>56.5</ele>
        <time>2021-05-05T08:52:32Z</time>
      </trkpt>
      <trkpt lat="48.7404" lon="2.5034">
        <ele>56.6</ele>
        <time>2021-05-05T08:52:36Z</time>
      </trkpt>
      <trkpt lat="48.74038" lon="2.50348">
        <ele>56.7</ele>
        <time>2021-05-05T08:52:40Z</time>
      </trkpt>
      <trkpt lat="48.74035" lon="2.50354">
        <ele>56.8</ele>
        <time>2021-05-05T08:52:44Z</time>
      </trkpt>
      <trkpt lat="48.74034" lon="2.50361">
        <ele>57</ele>
        <time>2021-05-05T08:52:49Z</time>
      </trkpt>
      <trkpt lat="48.74032" lon="2.50368">
        <ele>57.1</ele>
        <time>2021-05-05T08:52:53Z</time>
      </trkpt>
      <trkpt lat="48.74029" lon="2.50374">
        <ele>57.1</ele>
        <time>2021-05-05T08:52:56Z</time>
      </trkpt>
      <trkpt lat="48.74027" lon="2.50381">
        <ele>57.2</ele>
        <time>2021-05-05T08:53:00Z</time>
      </trkpt>
      <trkpt lat="48.74026" lon="2.50387">
        <ele>57.4</ele>
        <time>2021-05-05T08:53:06Z</time>
      </trkpt>
      <trkpt lat="48.74023" lon="2.50394">
        <ele>57.4</ele>
        <time>2021-05-05T08:53:10Z</time>
      </trkpt>
      <trkpt lat="48.74019" lon="2.504">
        <ele>57.5</ele>
        <time>2021-05-05T08:53:14Z</time>
      </trkpt>
      <trkpt lat="48.74016" lon="2.50408">
        <ele>57.7</ele>
        <time>2021-05-05T08:53:21Z</time>
      </trkpt>
      <trkpt lat="48.74012" lon="2.50414">
        <ele>57.7</ele>
        <time>2021-05-05T08:53:25Z</time>
      </trkpt>
      <trkpt lat="48.74007" lon="2.50424">
        <ele>57.8</ele>
        <time>2021-05-05T08:53:28Z</time>
      </trkpt>
      <trkpt lat="48.74004" lon="2.50429">
        <ele>57.8</ele>
        <time>2021-05-05T08:53:30Z</time>
      </trkpt>
      <trkpt lat="48.74003" lon="2.50436">
        <ele>58</ele>
        <time>2021-05-05T08:53:35Z</time>
      </trkpt>
      <trkpt lat="48.73999" lon="2.50441">
        <ele>58.1</ele>
        <time>2021-05-05T08:53:41Z</time>
      </trkpt>
      <trkpt lat="48.73994" lon="2.50445">
        <ele>58.2</ele>
        <time>2021-05-05T08:53:46Z</time>
      </trkpt>
      <trkpt lat="48.73991" lon="2.50451">
        <ele>58.4</ele>
        <time>2021-05-05T08:53:52Z</time>
      </trkpt>
      <trkpt lat="48.73987" lon="2.50458">
        <ele>58.4</ele>
        <time>2021-05-05T08:53:55Z</time>
      </trkpt>
      <trkpt lat="48.73982" lon="2.50461">
        <ele>58.5</ele>
        <time>2021-05-05T08:53:59Z</time>
      </trkpt>
      <trkpt lat="48.73976" lon="2.50467">
        <ele>58.6</ele>
        <time>2021-05-05T08:54:03Z</time>
      </trkpt>
      <trkpt lat="48.73972" lon="2.50468">
        <ele>58.6</ele>
        <time>2021-05-05T08:54:05Z</time>
      </trkpt>
      <trkpt lat="48.73967" lon="2.50471">
        <ele>58.7</ele>
        <time>2021-05-05T08:54:11Z</time>
      </trkpt>
      <trkpt lat="48.73966" lon="2.50479">
        <ele>58.7</ele>
        <time>2021-05-05T08:54:14Z</time>
      </trkpt>
      <trkpt lat="48.73964" lon="2.50486">
        <ele>58.8</ele>
        <time>2021-05-05T08:54:20Z</time>
      </trkpt>
      <trkpt lat="48.73959" lon="2.50488">
        <ele>58.8</ele>
        <time>2021-05-05T08:54:23Z</time>
      </trkpt>
      <trkpt lat="48.73954" lon="2.50488">
        <ele>58.8</ele>
        <time>2021-05-05T08:54:26Z</time>
      </trkpt>
      <trkpt lat="48.7395" lon="2.50491">
        <ele>58.9</ele>
        <time>2021-05-05T08:54:31Z</time>
      </trkpt>
      <trkpt lat="48.73945" lon="2.50496">
        <ele>58.9</ele>
        <time>2021-05-05T08:54:35Z</time>
      </trkpt>
      <trkpt lat="48.73939" lon="2.50493">
        <ele>58.9</ele>
        <time>2021-05-05T08:54:38Z</time>
      </trkpt>
      <trkpt lat="48.73936" lon="2.50487">
        <ele>58.9</ele>
        <time>2021-05-05T08:54:42Z</time>
      </trkpt>
      <trkpt lat="48.73931" lon="2.50484">
        <ele>58.9</ele>
        <time>2021-05-05T08:54:45Z</time>
      </trkpt>
      <trkpt lat="48.73927" lon="2.50489">
        <ele>58.9</ele>
        <time>2021-05-05T08:54:49Z</time>
      </trkpt>
      <trkpt lat="48.73925" lon="2.50496">
        <ele>58.9</ele>
        <time>2021-05-05T08:54:51Z</time>
      </trkpt>
      <trkpt lat="48.7392" lon="2.50496">
        <ele>58.9</ele>
        <time>2021-05-05T08:54:54Z</time>
      </trkpt>
      <trkpt lat="48.73914" lon="2.50491">
        <ele>58.8</ele>
        <time>2021-05-05T08:54:59Z</time>
      </trkpt>
      <trkpt lat="48.73911" lon="2.50485">
        <ele>58.8</ele>
        <time>2021-05-05T08:55:03Z</time>
      </trkpt>
      <trkpt lat="48.73908" lon="2.50477">
        <ele>58.7</ele>
        <time>2021-05-05T08:55:10Z</time>
      </trkpt>
      <trkpt lat="48.73903" lon="2.50478">
        <ele>58.6</ele>
        <time>2021-05-05T08:55:12Z</time>
      </trkpt>
      <trkpt lat="48.73895" lon="2.50482">
        <ele>58.6</ele>
        <time>2021-05-05T08:55:15Z</time>
      </trkpt>
      <trkpt lat="48.7389" lon="2.50483">
        <ele>58.5</ele>
        <time>2021-05-05T08:55:19Z</time>
      </trkpt>
      <trkpt lat="48.73888" lon="2.5049">
        <ele>58.3</ele>
        <time>2021-05-05T08:55:25Z</time>
      </trkpt>
      <trkpt lat="48.73887" lon="2.50499">
        <ele>58.2</ele>
        <time>2021-05-05T08:55:30Z</time>
      </trkpt>
      <trkpt lat="48.73881" lon="2.50497">
        <ele>58.1</ele>
        <time>2021-05-05T08:55:32Z</time>
      </trkpt>
      <trkpt lat="48.73877" lon="2.50505">
        <ele>58</ele>
        <time>2021-05-05T08:55:35Z</time>
      </trkpt>
      <trkpt lat="48.73874" lon="2.50514">
        <ele>58</ele>
        <time>2021-05-05T08:55:37Z</time>
      </trkpt>
      <trkpt lat="48.7387" lon="2.5051">
        <ele>57.7</ele>
        <time>2021-05-05T08:55:46Z</time>
      </trkpt>
      <trkpt lat="48.73863" lon="2.50514">
        <ele>57.6</ele>
        <time>2021-05-05T08:55:52Z</time>
      </trkpt>
      <trkpt lat="48.73857" lon="2.50519">
        <ele>57.5</ele>
        <time>2021-05-05T08:55:55Z</time>
      </trkpt>
      <trkpt lat="48.73852" lon="2.50517">
        <ele>57.4</ele>
        <time>2021-05-05T08:55:58Z</time>
      </trkpt>
      <trkpt lat="48.73846" lon="2.50519">
        <ele>57.3</ele>
        <time>2021-05-05T08:56:01Z</time>
      </trkpt>
      <trkpt lat="48.73841" lon="2.50522">
        <ele>57.2</ele>
        <time>2021-05-05T08:56:07Z</time>
      </trkpt>
      <trkpt lat="48.73836" lon="2.50527">
        <ele>57</ele>
        <time>2021-05-05T08:56:12Z</time>
      </trkpt>
      <trkpt lat="48.73831" lon="2.50529">
        <ele>57</ele>
        <time>2021-05-05T08:56:16Z</time>
      </trkpt>
      <trkpt lat="48.73827" lon="2.50528">
        <ele>56.9</ele>
        <time>2021-05-05T08:56:21Z</time>
      </trkpt>
      <trkpt lat="48.73822" lon="2.5053">
        <ele>56.8</ele>
        <time>2021-05-05T08:56:28Z</time>
      </trkpt>
      <trkpt lat="48.73818" lon="2.50533">
        <ele>56.7</ele>
        <time>2021-05-05T08:56:33Z</time>
      </trkpt>
      <trkpt lat="48.73814" lon="2.50537">
        <ele>56.6</ele>
        <time>2021-05-05T08:56:37Z</time>
      </trkpt>
      <trkpt lat="48.73809" lon="2.50541">
        <ele>56.5</ele>
        <time>2021-05-05T08:56:40Z</time>
      </trkpt>
      <trkpt lat="48.73804" lon="2.50545">
        <ele>56.5</ele>
        <time>2021-05-05T08:56:43Z</time>
      </trkpt>
      <trkpt lat="48.738" lon="2.50551">
        <ele>56.4</ele>
        <time>2021-05-05T08:56:47Z</time>
      </trkpt>
      <trkpt lat="48.73795" lon="2.50555">
        <ele>56.3</ele>
        <time>2021-05-05T08:56:50Z</time>
      </trkpt>
      <trkpt lat="48.73791" lon="2.5056">
        <ele>56.3</ele>
        <time>2021-05-05T08:56:53Z</time>
      </trkpt>
      <trkpt lat="48.73788" lon="2.50563">
        <ele>56.2</ele>
        <time>2021-05-05T08:56:56Z</time>
      </trkpt>
      <trkpt lat="48.73784" lon="2.50569">
        <ele>56.1</ele>
        <time>2021-05-05T08:57:00Z</time>
      </trkpt>
      <trkpt lat="48.73781" lon="2.50573">
        <ele>56</ele>
        <time>2021-05-05T08:57:05Z</time>
      </trkpt>
      <trkpt lat="48.73776" lon="2.50574">
        <ele>56</ele>
        <time>2021-05-05T08:57:09Z</time>
      </trkpt>
      <trkpt lat="48.73771" lon="2.50574">
        <ele>56</ele>
        <time>2021-05-05T08:57:14Z</time>
      </trkpt>
      <trkpt lat="48.73767" lon="2.5058">
        <ele>56</ele>
        <time>2021-05-05T08:57:21Z</time>
      </trkpt>
      <trkpt lat="48.73763" lon="2.50585">
        <ele>56</ele>
        <time>2021-05-05T08:57:24Z</time>
      </trkpt>
      <trkpt lat="48.7376" lon="2.50591">
        <ele>56</ele>
        <time>2021-05-05T08:57:27Z</time>
      </trkpt>
      <trkpt lat="48.73756" lon="2.50595">
        <ele>56</ele>
        <time>2021-05-05T08:57:30Z</time>
      </trkpt>
      <trkpt lat="48.73752" lon="2.50599">
        <ele>56</ele>
        <time>2021-05-05T08:57:33Z</time>
      </trkpt>
      <trkpt lat="48.73748" lon="2.50606">
        <ele>56</ele>
        <time>2021-05-05T08:57:38Z</time>
      </trkpt>
      <trkpt lat="48.73747" lon="2.50613">
        <ele>55.9</ele>
        <time>2021-05-05T08:57:44Z</time>
      </trkpt>
      <trkpt lat="48.73743" lon="2.50617">
        <ele>55.9</ele>
        <time>2021-05-05T08:57:48Z</time>
      </trkpt>
      <trkpt lat="48.73739" lon="2.50622">
        <ele>56</ele>
        <time>2021-05-05T08:57:52Z</time>
      </trkpt>
      <trkpt lat="48.73735" lon="2.50627">
        <ele>56</ele>
        <time>2021-05-05T08:57:55Z</time>
      </trkpt>
      <trkpt lat="48.7373" lon="2.50631">
        <ele>56.1</ele>
        <time>2021-05-05T08:57:58Z</time>
      </trkpt>
      <trkpt lat="48.73726" lon="2.50636">
        <ele>56.1</ele>
        <time>2021-05-05T08:58:01Z</time>
      </trkpt>
      <trkpt lat="48.73721" lon="2.50638">
        <ele>56.1</ele>
        <time>2021-05-05T08:58:03Z</time>
      </trkpt>
      <trkpt lat="48.73718" lon="2.50643">
        <ele>56.2</ele>
        <time>2021-05-05T08:58:06Z</time>
      </trkpt>
      <trkpt lat="48.73714" lon="2.50648">
        <ele>56.3</ele>
        <time>2021-05-05T08:58:09Z</time>
      </trkpt>
      <trkpt lat="48.7371" lon="2.50656">
        <ele>56.5</ele>
        <time>2021-05-05T08:58:13Z</time>
      </trkpt>
      <trkpt lat="48.73705" lon="2.50661">
        <ele>56.7</ele>
        <time>2021-05-05T08:58:17Z</time>
      </trkpt>
      <trkpt lat="48.737" lon="2.50664">
        <ele>56.9</ele>
        <time>2021-05-05T08:58:21Z</time>
      </trkpt>
      <trkpt lat="48.73695" lon="2.50665">
        <ele>57.1</ele>
        <time>2021-05-05T08:58:25Z</time>
      </trkpt>
      <trkpt lat="48.73689" lon="2.50665">
        <ele>57.2</ele>
        <time>2021-05-05T08:58:28Z</time>
      </trkpt>
      <trkpt lat="48.73683" lon="2.50667">
        <ele>57.5</ele>
        <time>2021-05-05T08:58:31Z</time>
      </trkpt>
      <trkpt lat="48.73678" lon="2.50669">
        <ele>57.7</ele>
        <time>2021-05-05T08:58:34Z</time>
      </trkpt>
      <trkpt lat="48.73673" lon="2.5067">
        <ele>57.9</ele>
        <time>2021-05-05T08:58:38Z</time>
      </trkpt>
      <trkpt lat="48.73668" lon="2.5067">
        <ele>58.3</ele>
        <time>2021-05-05T08:58:42Z</time>
      </trkpt>
      <trkpt lat="48.73664" lon="2.50671">
        <ele>58.6</ele>
        <time>2021-05-05T08:58:46Z</time>
      </trkpt>
      <trkpt lat="48.73658" lon="2.50671">
        <ele>59</ele>
        <time>2021-05-05T08:58:50Z</time>
      </trkpt>
      <trkpt lat="48.73655" lon="2.50676">
        <ele>59.3</ele>
        <time>2021-05-05T08:58:54Z</time>
      </trkpt>
      <trkpt lat="48.73651" lon="2.50681">
        <ele>59.9</ele>
        <time>2021-05-05T08:58:59Z</time>
      </trkpt>
      <trkpt lat="48.73646" lon="2.50681">
        <ele>60.3</ele>
        <time>2021-05-05T08:59:03Z</time>
      </trkpt>
      <trkpt lat="48.73641" lon="2.50683">
        <ele>60.9</ele>
        <time>2021-05-05T08:59:08Z</time>
      </trkpt>
      <trkpt lat="48.73638" lon="2.50689">
        <ele>61.5</ele>
        <time>2021-05-05T08:59:13Z</time>
      </trkpt>
      <trkpt lat="48.73635" lon="2.50695">
        <ele>62</ele>
        <time>2021-05-05T08:59:17Z</time>
      </trkpt>
      <trkpt lat="48.73632" lon="2.50701">
        <ele>62.4</ele>
        <time>2021-05-05T08:59:21Z</time>
      </trkpt>
      <trkpt lat="48.7363" lon="2.50709">
        <ele>63</ele>
        <time>2021-05-05T08:59:26Z</time>
      </trkpt>
      <trkpt lat="48.73626" lon="2.50714">
        <ele>63.5</ele>
        <time>2021-05-05T08:59:31Z</time>
      </trkpt>
      <trkpt lat="48.73622" lon="2.50719">
        <ele>63.9</ele>
        <time>2021-05-05T08:59:36Z</time>
      </trkpt>
      <trkpt lat="48.73619" lon="2.50726">
        <ele>64.4</ele>
        <time>2021-05-05T08:59:42Z</time>
      </trkpt>
      <trkpt lat="48.73616" lon="2.50733">
        <ele>64.8</ele>
        <time>2021-05-05T08:59:46Z</time>
      </trkpt>
      <trkpt lat="48.73612" lon="2.50737">
        <ele>65.1</ele>
        <time>2021-05-05T08:59:50Z</time>
      </trkpt>
      <trkpt lat="48.73608" lon="2.50741">
        <ele>65.4</ele>
        <time>2021-05-05T08:59:55Z</time>
      </trkpt>
      <trkpt lat="48.73603" lon="2.50746">
        <ele>65.8</ele>
        <time>2021-05-05T09:00:01Z</time>
      </trkpt>
      <trkpt lat="48.736" lon="2.50751">
        <ele>66</ele>
        <time>2021-05-05T09:00:04Z</time>
      </trkpt>
      <trkpt lat="48.73596" lon="2.50756">
        <ele>66.2</ele>
        <time>2021-05-05T09:00:07Z</time>
      </trkpt>
      <trkpt lat="48.73592" lon="2.50762">
        <ele>66.5</ele>
        <time>2021-05-05T09:00:11Z</time>
      </trkpt>
      <trkpt lat="48.73588" lon="2.50766">
        <ele>66.7</ele>
        <time>2021-05-05T09:00:15Z</time>
      </trkpt>
      <trkpt lat="48.73583" lon="2.5077">
        <ele>66.9</ele>
        <time>2021-05-05T09:00:18Z</time>
      </trkpt>
      <trkpt lat="48.73579" lon="2.50775">
        <ele>67.1</ele>
        <time>2021-05-05T09:00:23Z</time>
      </trkpt>
      <trkpt lat="48.73574" lon="2.50778">
        <ele>67.4</ele>
        <time>2021-05-05T09:00:28Z</time>
      </trkpt>
      <trkpt lat="48.73571" lon="2.50783">
        <ele>67.7</ele>
        <time>2021-05-05T09:00:32Z</time>
      </trkpt>
      <trkpt lat="48.73567" lon="2.50788">
        <ele>68</ele>
        <time>2021-05-05T09:00:36Z</time>
      </trkpt>
      <trkpt lat="48.73563" lon="2.50793">
        <ele>68.2</ele>
        <time>2021-05-05T09:00:39Z</time>
      </trkpt>
      <trkpt lat="48.73558" lon="2.50798">
        <ele>68.5</ele>
        <time>2021-05-05T09:00:43Z</time>
      </trkpt>
      <trkpt lat="48.73555" lon="2.50803">
        <ele>68.9</ele>
        <time>2021-05-05T09:00:48Z</time>
      </trkpt>
      <trkpt lat="48.73551" lon="2.50809">
        <ele>69.4</ele>
        <time>2021-05-05T09:00:55Z</time>
      </trkpt>
      <trkpt lat="48.73546" lon="2.50812">
        <ele>69.6</ele>
        <time>2021-05-05T09:00:58Z</time>
      </trkpt>
      <trkpt lat="48.73543" lon="2.50816">
        <ele>70</ele>
        <time>2021-05-05T09:01:04Z</time>
      </trkpt>
      <trkpt lat="48.7354" lon="2.50824">
        <ele>70.5</ele>
        <time>2021-05-05T09:01:11Z</time>
      </trkpt>
      <trkpt lat="48.73537" lon="2.50831">
        <ele>70.8</ele>
        <time>2021-05-05T09:01:14Z</time>
      </trkpt>
      <trkpt lat="48.73534" lon="2.50837">
        <ele>71</ele>
        <time>2021-05-05T09:01:17Z</time>
      </trkpt>
      <trkpt lat="48.7353" lon="2.50842">
        <ele>71.3</ele>
        <time>2021-05-05T09:01:21Z</time>
      </trkpt>
      <trkpt lat="48.73527" lon="2.50848">
        <ele>71.6</ele>
        <time>2021-05-05T09:01:25Z</time>
      </trkpt>
      <trkpt lat="48.73524" lon="2.50855">
        <ele>71.8</ele>
        <time>2021-05-05T09:01:29Z</time>
      </trkpt>
      <trkpt lat="48.7352" lon="2.5086">
        <ele>72.2</ele>
        <time>2021-05-05T09:01:34Z</time>
      </trkpt>
      <trkpt lat="48.73516" lon="2.50868">
        <ele>72.4</ele>
        <time>2021-05-05T09:01:37Z</time>
      </trkpt>
      <trkpt lat="48.73513" lon="2.50874">
        <ele>72.6</ele>
        <time>2021-05-05T09:01:40Z</time>
      </trkpt>
      <trkpt lat="48.73509" lon="2.50881">
        <ele>72.8</ele>
        <time>2021-05-05T09:01:43Z</time>
      </trkpt>
      <trkpt lat="48.73506" lon="2.50887">
        <ele>73</ele>
        <time>2021-05-05T09:01:46Z</time>
      </trkpt>
      <trkpt lat="48.73501" lon="2.50894">
        <ele>73.3</ele>
        <time>2021-05-05T09:01:50Z</time>
      </trkpt>
      <trkpt lat="48.73499" lon="2.50901">
        <ele>73.5</ele>
        <time>2021-05-05T09:01:53Z</time>
      </trkpt>
      <trkpt lat="48.73495" lon="2.50908">
        <ele>73.8</ele>
        <time>2021-05-05T09:01:57Z</time>
      </trkpt>
      <trkpt lat="48.73492" lon="2.50913">
        <ele>74</ele>
        <time>2021-05-05T09:02:00Z</time>
      </trkpt>
      <trkpt lat="48.7349" lon="2.50921">
        <ele>74.2</ele>
        <time>2021-05-05T09:02:04Z</time>
      </trkpt>
      <trkpt lat="48.73488" lon="2.50928">
        <ele>74.6</ele>
        <time>2021-05-05T09:02:09Z</time>
      </trkpt>
      <trkpt lat="48.73484" lon="2.50933">
        <ele>74.8</ele>
        <time>2021-05-05T09:02:12Z</time>
      </trkpt>
      <trkpt lat="48.73479" lon="2.50938">
        <ele>75.2</ele>
        <time>2021-05-05T09:02:17Z</time>
      </trkpt>
      <trkpt lat="48.73474" lon="2.50941">
        <ele>75.5</ele>
        <time>2021-05-05T09:02:21Z</time>
      </trkpt>
      <trkpt lat="48.7347" lon="2.50944">
        <ele>75.8</ele>
        <time>2021-05-05T09:02:26Z</time>
      </trkpt>
      <trkpt lat="48.73465" lon="2.50947">
        <ele>76.3</ele>
        <time>2021-05-05T09:02:35Z</time>
      </trkpt>
      <trkpt lat="48.7346" lon="2.5095">
        <ele>76.7</ele>
        <time>2021-05-05T09:02:41Z</time>
      </trkpt>
      <trkpt lat="48.73455" lon="2.50952">
        <ele>76.9</ele>
        <time>2021-05-05T09:02:45Z</time>
      </trkpt>
      <trkpt lat="48.7345" lon="2.50952">
        <ele>77.1</ele>
        <time>2021-05-05T09:02:49Z</time>
      </trkpt>
      <trkpt lat="48.73446" lon="2.5095">
        <ele>77.3</ele>
        <time>2021-05-05T09:02:53Z</time>
      </trkpt>
      <trkpt lat="48.7344" lon="2.50949">
        <ele>77.5</ele>
        <time>2021-05-05T09:02:57Z</time>
      </trkpt>
      <trkpt lat="48.73435" lon="2.50947">
        <ele>77.7</ele>
        <time>2021-05-05T09:03:01Z</time>
      </trkpt>
      <trkpt lat="48.73429" lon="2.50946">
        <ele>77.8</ele>
        <time>2021-05-05T09:03:04Z</time>
      </trkpt>
      <trkpt lat="48.73423" lon="2.50944">
        <ele>77.9</ele>
        <time>2021-05-05T09:03:07Z</time>
      </trkpt>
      <trkpt lat="48.73418" lon="2.50943">
        <ele>78</ele>
        <time>2021-05-05T09:03:11Z</time>
      </trkpt>
      <trkpt lat="48.73414" lon="2.50941">
        <ele>78.2</ele>
        <time>2021-05-05T09:03:16Z</time>
      </trkpt>
      <trkpt lat="48.73409" lon="2.50937">
        <ele>78.4</ele>
        <time>2021-05-05T09:03:23Z</time>
      </trkpt>
      <trkpt lat="48.73404" lon="2.50934">
        <ele>78.5</ele>
        <time>2021-05-05T09:03:26Z</time>
      </trkpt>
      <trkpt lat="48.734" lon="2.50932">
        <ele>78.5</ele>
        <time>2021-05-05T09:03:28Z</time>
      </trkpt>
      <trkpt lat="48.73395" lon="2.50931">
        <ele>78.6</ele>
        <time>2021-05-05T09:03:32Z</time>
      </trkpt>
      <trkpt lat="48.73389" lon="2.5093">
        <ele>78.7</ele>
        <time>2021-05-05T09:03:38Z</time>
      </trkpt>
      <trkpt lat="48.73384" lon="2.50928">
        <ele>78.8</ele>
        <time>2021-05-05T09:03:42Z</time>
      </trkpt>
      <trkpt lat="48.73378" lon="2.50926">
        <ele>78.8</ele>
        <time>2021-05-05T09:03:45Z</time>
      </trkpt>
      <trkpt lat="48.73372" lon="2.50924">
        <ele>78.9</ele>
        <time>2021-05-05T09:03:49Z</time>
      </trkpt>
      <trkpt lat="48.73367" lon="2.50924">
        <ele>79</ele>
        <time>2021-05-05T09:04:00Z</time>
      </trkpt>
      <trkpt lat="48.73361" lon="2.50922">
        <ele>79</ele>
        <time>2021-05-05T09:04:03Z</time>
      </trkpt>
      <trkpt lat="48.73357" lon="2.50916">
        <ele>79</ele>
        <time>2021-05-05T09:04:06Z</time>
      </trkpt>
      <trkpt lat="48.73351" lon="2.50917">
        <ele>79.1</ele>
        <time>2021-05-05T09:04:10Z</time>
      </trkpt>
      <trkpt lat="48.73351" lon="2.50925">
        <ele>79.1</ele>
        <time>2021-05-05T09:04:18Z</time>
      </trkpt>
      <trkpt lat="48.7335" lon="2.50934">
        <ele>79.2</ele>
        <time>2021-05-05T09:04:21Z</time>
      </trkpt>
      <trkpt lat="48.7335" lon="2.50941">
        <ele>79.2</ele>
        <time>2021-05-05T09:04:23Z</time>
      </trkpt>
      <trkpt lat="48.7335" lon="2.50948">
        <ele>79.2</ele>
        <time>2021-05-05T09:04:28Z</time>
      </trkpt>
      <trkpt lat="48.73349" lon="2.50955">
        <ele>79.2</ele>
        <time>2021-05-05T09:04:30Z</time>
      </trkpt>
      <trkpt lat="48.73347" lon="2.50961">
        <ele>79.3</ele>
        <time>2021-05-05T09:04:33Z</time>
      </trkpt>
      <trkpt lat="48.73342" lon="2.50969">
        <ele>79.4</ele>
        <time>2021-05-05T09:04:40Z</time>
      </trkpt>
      <trkpt lat="48.73338" lon="2.50979">
        <ele>79.5</ele>
        <time>2021-05-05T09:04:43Z</time>
      </trkpt>
      <trkpt lat="48.73336" lon="2.50987">
        <ele>79.5</ele>
        <time>2021-05-05T09:04:46Z</time>
      </trkpt>
      <trkpt lat="48.73337" lon="2.50997">
        <ele>79.6</ele>
        <time>2021-05-05T09:04:51Z</time>
      </trkpt>
      <trkpt lat="48.73336" lon="2.51005">
        <ele>79.8</ele>
        <time>2021-05-05T09:04:58Z</time>
      </trkpt>
      <trkpt lat="48.73335" lon="2.51012">
        <ele>79.9</ele>
        <time>2021-05-05T09:05:01Z</time>
      </trkpt>
      <trkpt lat="48.73339" lon="2.5102">
        <ele>80</ele>
        <time>2021-05-05T09:05:04Z</time>
      </trkpt>
      <trkpt lat="48.73337" lon="2.51028">
        <ele>80</ele>
        <time>2021-05-05T09:05:06Z</time>
      </trkpt>
      <trkpt lat="48.73335" lon="2.51034">
        <ele>80.2</ele>
        <time>2021-05-05T09:05:12Z</time>
      </trkpt>
      <trkpt lat="48.73337" lon="2.5104">
        <ele>80.4</ele>
        <time>2021-05-05T09:05:17Z</time>
      </trkpt>
      <trkpt lat="48.73335" lon="2.51046">
        <ele>80.6</ele>
        <time>2021-05-05T09:05:24Z</time>
      </trkpt>
      <trkpt lat="48.73334" lon="2.51054">
        <ele>80.8</ele>
        <time>2021-05-05T09:05:31Z</time>
      </trkpt>
      <trkpt lat="48.73331" lon="2.51063">
        <ele>80.9</ele>
        <time>2021-05-05T09:05:34Z</time>
      </trkpt>
      <trkpt lat="48.73329" lon="2.51071">
        <ele>81</ele>
        <time>2021-05-05T09:05:37Z</time>
      </trkpt>
      <trkpt lat="48.73329" lon="2.51078">
        <ele>81.2</ele>
        <time>2021-05-05T09:05:41Z</time>
      </trkpt>
      <trkpt lat="48.73325" lon="2.51082">
        <ele>81.4</ele>
        <time>2021-05-05T09:05:46Z</time>
      </trkpt>
      <trkpt lat="48.73322" lon="2.51089">
        <ele>81.5</ele>
        <time>2021-05-05T09:05:49Z</time>
      </trkpt>
      <trkpt lat="48.73319" lon="2.51096">
        <ele>81.6</ele>
        <time>2021-05-05T09:05:52Z</time>
      </trkpt>
      <trkpt lat="48.73318" lon="2.51104">
        <ele>81.7</ele>
        <time>2021-05-05T09:05:55Z</time>
      </trkpt>
      <trkpt lat="48.73319" lon="2.51113">
        <ele>81.8</ele>
        <time>2021-05-05T09:05:58Z</time>
      </trkpt>
      <trkpt lat="48.73319" lon="2.51121">
        <ele>81.9</ele>
        <time>2021-05-05T09:06:02Z</time>
      </trkpt>
      <trkpt lat="48.7332" lon="2.51129">
        <ele>82.1</ele>
        <time>2021-05-05T09:06:07Z</time>
      </trkpt>
      <trkpt lat="48.73318" lon="2.51135">
        <ele>82.3</ele>
        <time>2021-05-05T09:06:11Z</time>
      </trkpt>
      <trkpt lat="48.73316" lon="2.51144">
        <ele>82.4</ele>
        <time>2021-05-05T09:06:15Z</time>
      </trkpt>
      <trkpt lat="48.73314" lon="2.5115">
        <ele>82.7</ele>
        <time>2021-05-05T09:06:22Z</time>
      </trkpt>
      <trkpt lat="48.73313" lon="2.51157">
        <ele>82.8</ele>
        <time>2021-05-05T09:06:27Z</time>
      </trkpt>
      <trkpt lat="48.7331" lon="2.51163">
        <ele>82.9</ele>
        <time>2021-05-05T09:06:30Z</time>
      </trkpt>
      <trkpt lat="48.73308" lon="2.51171">
        <ele>83.1</ele>
        <time>2021-05-05T09:06:36Z</time>
      </trkpt>
      <trkpt lat="48.73306" lon="2.51178">
        <ele>83.2</ele>
        <time>2021-05-05T09:06:41Z</time>
      </trkpt>
      <trkpt lat="48.73305" lon="2.51185">
        <ele>83.3</ele>
        <time>2021-05-05T09:06:46Z</time>
      </trkpt>
      <trkpt lat="48.73305" lon="2.51192">
        <ele>83.4</ele>
        <time>2021-05-05T09:06:50Z</time>
      </trkpt>
      <trkpt lat="48.73306" lon="2.51199">
        <ele>83.5</ele>
        <time>2021-05-05T09:06:53Z</time>
      </trkpt>
      <trkpt lat="48.73305" lon="2.51208">
        <ele>83.5</ele>
        <time>2021-05-05T09:06:56Z</time>
      </trkpt>
      <trkpt lat="48.73304" lon="2.51215">
        <ele>83.6</ele>
        <time>2021-05-05T09:06:59Z</time>
      </trkpt>
      <trkpt lat="48.73303" lon="2.51223">
        <ele>83.7</ele>
        <time>2021-05-05T09:07:02Z</time>
      </trkpt>
      <trkpt lat="48.73302" lon="2.51229">
        <ele>83.8</ele>
        <time>2021-05-05T09:07:08Z</time>
      </trkpt>
      <trkpt lat="48.73301" lon="2.51237">
        <ele>83.9</ele>
        <time>2021-05-05T09:07:12Z</time>
      </trkpt>
      <trkpt lat="48.73299" lon="2.51245">
        <ele>84</ele>
        <time>2021-05-05T09:07:15Z</time>
      </trkpt>
      <trkpt lat="48.73298" lon="2.51254">
        <ele>84</ele>
        <time>2021-05-05T09:07:19Z</time>
      </trkpt>
      <trkpt lat="48.73295" lon="2.51261">
        <ele>84.1</ele>
        <time>2021-05-05T09:07:22Z</time>
      </trkpt>
      <trkpt lat="48.73294" lon="2.51267">
        <ele>84.2</ele>
        <time>2021-05-05T09:07:25Z</time>
      </trkpt>
      <trkpt lat="48.73293" lon="2.51275">
        <ele>84.2</ele>
        <time>2021-05-05T09:07:29Z</time>
      </trkpt>
      <trkpt lat="48.73291" lon="2.51282">
        <ele>84.3</ele>
        <time>2021-05-05T09:07:33Z</time>
      </trkpt>
      <trkpt lat="48.73288" lon="2.51288">
        <ele>84.4</ele>
        <time>2021-05-05T09:07:37Z</time>
      </trkpt>
      <trkpt lat="48.73288" lon="2.51295">
        <ele>84.6</ele>
        <time>2021-05-05T09:07:55Z</time>
      </trkpt>
      <trkpt lat="48.73289" lon="2.51303">
        <ele>84.7</ele>
        <time>2021-05-05T09:08:02Z</time>
      </trkpt>
      <trkpt lat="48.73288" lon="2.5131">
        <ele>84.8</ele>
        <time>2021-05-05T09:08:08Z</time>
      </trkpt>
      <trkpt lat="48.73284" lon="2.51315">
        <ele>84.8</ele>
        <time>2021-05-05T09:08:14Z</time>
      </trkpt>
      <trkpt lat="48.7328" lon="2.51319">
        <ele>84.9</ele>
        <time>2021-05-05T09:08:19Z</time>
      </trkpt>
      <trkpt lat="48.73277" lon="2.51326">
        <ele>84.9</ele>
        <time>2021-05-05T09:08:24Z</time>
      </trkpt>
      <trkpt lat="48.73274" lon="2.51334">
        <ele>84.9</ele>
        <time>2021-05-05T09:08:28Z</time>
      </trkpt>
      <trkpt lat="48.73271" lon="2.51342">
        <ele>85</ele>
        <time>2021-05-05T09:08:31Z</time>
      </trkpt>
      <trkpt lat="48.73268" lon="2.51349">
        <ele>85</ele>
        <time>2021-05-05T09:08:35Z</time>
      </trkpt>
      <trkpt lat="48.73266" lon="2.51356">
        <ele>85.1</ele>
        <time>2021-05-05T09:08:40Z</time>
      </trkpt>
      <trkpt lat="48.73263" lon="2.51362">
        <ele>85.1</ele>
        <time>2021-05-05T09:08:44Z</time>
      </trkpt>
      <trkpt lat="48.7326" lon="2.51369">
        <ele>85.2</ele>
        <time>2021-05-05T09:08:48Z</time>
      </trkpt>
      <trkpt lat="48.73257" lon="2.51375">
        <ele>85.2</ele>
        <time>2021-05-05T09:08:52Z</time>
      </trkpt>
      <trkpt lat="48.73256" lon="2.51382">
        <ele>85.2</ele>
        <time>2021-05-05T09:08:56Z</time>
      </trkpt>
      <trkpt lat="48.73254" lon="2.51389">
        <ele>85.3</ele>
        <time>2021-05-05T09:09:00Z</time>
      </trkpt>
      <trkpt lat="48.73253" lon="2.51396">
        <ele>85.3</ele>
        <time>2021-05-05T09:09:05Z</time>
      </trkpt>
      <trkpt lat="48.73251" lon="2.51403">
        <ele>85.4</ele>
        <time>2021-05-05T09:09:11Z</time>
      </trkpt>
      <trkpt lat="48.73248" lon="2.5141">
        <ele>85.4</ele>
        <time>2021-05-05T09:09:17Z</time>
      </trkpt>
      <trkpt lat="48.73245" lon="2.51415">
        <ele>85.5</ele>
        <time>2021-05-05T09:09:22Z</time>
      </trkpt>
      <trkpt lat="48.73244" lon="2.51421">
        <ele>85.5</ele>
        <time>2021-05-05T09:09:28Z</time>
      </trkpt>
      <trkpt lat="48.73242" lon="2.51427">
        <ele>85.5</ele>
        <time>2021-05-05T09:09:33Z</time>
      </trkpt>
      <trkpt lat="48.7324" lon="2.51434">
        <ele>85.5</ele>
        <time>2021-05-05T09:09:38Z</time>
      </trkpt>
      <trkpt lat="48.73239" lon="2.51442">
        <ele>85.6</ele>
        <time>2021-05-05T09:09:43Z</time>
      </trkpt>
      <trkpt lat="48.73237" lon="2.51449">
        <ele>85.6</ele>
        <time>2021-05-05T09:09:49Z</time>
      </trkpt>
      <trkpt lat="48.73236" lon="2.51457">
        <ele>85.6</ele>
        <time>2021-05-05T09:09:53Z</time>
      </trkpt>
      <trkpt lat="48.73233" lon="2.51465">
        <ele>85.6</ele>
        <time>2021-05-05T09:09:58Z</time>
      </trkpt>
      <trkpt lat="48.73231" lon="2.51471">
        <ele>85.6</ele>
        <time>2021-05-05T09:10:04Z</time>
      </trkpt>
      <trkpt lat="48.73228" lon="2.51478">
        <ele>85.6</ele>
        <time>2021-05-05T09:10:10Z</time>
      </trkpt>
      <trkpt lat="48.73226" lon="2.51486">
        <ele>85.7</ele>
        <time>2021-05-05T09:10:16Z</time>
      </trkpt>
      <trkpt lat="48.73223" lon="2.51494">
        <ele>85.7</ele>
        <time>2021-05-05T09:10:20Z</time>
      </trkpt>
      <trkpt lat="48.73221" lon="2.51501">
        <ele>85.7</ele>
        <time>2021-05-05T09:10:25Z</time>
      </trkpt>
      <trkpt lat="48.73218" lon="2.51509">
        <ele>85.8</ele>
        <time>2021-05-05T09:10:31Z</time>
      </trkpt>
      <trkpt lat="48.73216" lon="2.51518">
        <ele>85.8</ele>
        <time>2021-05-05T09:10:34Z</time>
      </trkpt>
      <trkpt lat="48.73214" lon="2.51526">
        <ele>85.8</ele>
        <time>2021-05-05T09:10:37Z</time>
      </trkpt>
      <trkpt lat="48.73212" lon="2.51532">
        <ele>85.8</ele>
        <time>2021-05-05T09:10:42Z</time>
      </trkpt>
      <trkpt lat="48.73211" lon="2.51539">
        <ele>85.8</ele>
        <time>2021-05-05T09:10:47Z</time>
      </trkpt>
      <trkpt lat="48.7321" lon="2.51546">
        <ele>85.8</ele>
        <time>2021-05-05T09:10:50Z</time>
      </trkpt>
      <trkpt lat="48.73209" lon="2.51553">
        <ele>85.8</ele>
        <time>2021-05-05T09:10:54Z</time>
      </trkpt>
      <trkpt lat="48.73206" lon="2.51561">
        <ele>85.9</ele>
        <time>2021-05-05T09:10:58Z</time>
      </trkpt>
      <trkpt lat="48.73204" lon="2.51569">
        <ele>85.9</ele>
        <time>2021-05-05T09:11:01Z</time>
      </trkpt>
      <trkpt lat="48.73201" lon="2.51576">
        <ele>85.9</ele>
        <time>2021-05-05T09:11:06Z</time>
      </trkpt>
      <trkpt lat="48.73197" lon="2.51582">
        <ele>85.9</ele>
        <time>2021-05-05T09:11:10Z</time>
      </trkpt>
      <trkpt lat="48.73196" lon="2.51589">
        <ele>85.9</ele>
        <time>2021-05-05T09:11:13Z</time>
      </trkpt>
      <trkpt lat="48.73193" lon="2.51596">
        <ele>85.9</ele>
        <time>2021-05-05T09:11:18Z</time>
      </trkpt>
      <trkpt lat="48.7319" lon="2.51601">
        <ele>85.9</ele>
        <time>2021-05-05T09:11:22Z</time>
      </trkpt>
      <trkpt lat="48.73187" lon="2.51608">
        <ele>85.9</ele>
        <time>2021-05-05T09:11:26Z</time>
      </trkpt>
      <trkpt lat="48.73185" lon="2.51614">
        <ele>85.9</ele>
        <time>2021-05-05T09:11:29Z</time>
      </trkpt>
      <trkpt lat="48.73182" lon="2.51619">
        <ele>85.9</ele>
        <time>2021-05-05T09:11:33Z</time>
      </trkpt>
      <trkpt lat="48.73178" lon="2.51624">
        <ele>85.9</ele>
        <time>2021-05-05T09:11:37Z</time>
      </trkpt>
      <trkpt lat="48.73175" lon="2.51631">
        <ele>86</ele>
        <time>2021-05-05T09:11:42Z</time>
      </trkpt>
      <trkpt lat="48.73173" lon="2.51638">
        <ele>86</ele>
        <time>2021-05-05T09:11:46Z</time>
      </trkpt>
      <trkpt lat="48.73171" lon="2.51645">
        <ele>86</ele>
        <time>2021-05-05T09:11:50Z</time>
      </trkpt>
      <trkpt lat="48.73168" lon="2.51653">
        <ele>86</ele>
        <time>2021-05-05T09:11:55Z</time>
      </trkpt>
      <trkpt lat="48.73166" lon="2.51659">
        <ele>86</ele>
        <time>2021-05-05T09:12:00Z</time>
      </trkpt>
      <trkpt lat="48.73163" lon="2.51665">
        <ele>85.9</ele>
        <time>2021-05-05T09:12:06Z</time>
      </trkpt>
      <trkpt lat="48.7316" lon="2.51672">
        <ele>85.9</ele>
        <time>2021-05-05T09:12:11Z</time>
      </trkpt>
      <trkpt lat="48.73158" lon="2.51679">
        <ele>85.9</ele>
        <time>2021-05-05T09:12:15Z</time>
      </trkpt>
      <trkpt lat="48.73155" lon="2.51684">
        <ele>85.9</ele>
        <time>2021-05-05T09:12:21Z</time>
      </trkpt>
      <trkpt lat="48.73151" lon="2.51691">
        <ele>85.9</ele>
        <time>2021-05-05T09:12:26Z</time>
      </trkpt>
      <trkpt lat="48.73148" lon="2.51697">
        <ele>86</ele>
        <time>2021-05-05T09:12:29Z</time>
      </trkpt>
      <trkpt lat="48.73146" lon="2.51703">
        <ele>86</ele>
        <time>2021-05-05T09:12:34Z</time>
      </trkpt>
      <trkpt lat="48.73143" lon="2.5171">
        <ele>86</ele>
        <time>2021-05-05T09:12:39Z</time>
      </trkpt>
      <trkpt lat="48.7314" lon="2.51718">
        <ele>86</ele>
        <time>2021-05-05T09:12:44Z</time>
      </trkpt>
      <trkpt lat="48.73138" lon="2.51725">
        <ele>86</ele>
        <time>2021-05-05T09:12:48Z</time>
      </trkpt>
      <trkpt lat="48.73137" lon="2.51732">
        <ele>86.1</ele>
        <time>2021-05-05T09:12:56Z</time>
      </trkpt>
      <trkpt lat="48.73135" lon="2.51738">
        <ele>86.1</ele>
        <time>2021-05-05T09:13:00Z</time>
      </trkpt>
      <trkpt lat="48.73132" lon="2.51744">
        <ele>86.1</ele>
        <time>2021-05-05T09:13:03Z</time>
      </trkpt>
      <trkpt lat="48.7313" lon="2.51751">
        <ele>86.1</ele>
        <time>2021-05-05T09:13:07Z</time>
      </trkpt>
      <trkpt lat="48.73127" lon="2.51757">
        <ele>86.1</ele>
        <time>2021-05-05T09:13:10Z</time>
      </trkpt>
      <trkpt lat="48.73123" lon="2.51764">
        <ele>86.1</ele>
        <time>2021-05-05T09:13:14Z</time>
      </trkpt>
      <trkpt lat="48.7312" lon="2.51771">
        <ele>86.1</ele>
        <time>2021-05-05T09:13:18Z</time>
      </trkpt>
      <trkpt lat="48.73117" lon="2.51779">
        <ele>86</ele>
        <time>2021-05-05T09:13:22Z</time>
      </trkpt>
      <trkpt lat="48.73114" lon="2.51786">
        <ele>86</ele>
        <time>2021-05-05T09:13:26Z</time>
      </trkpt>
      <trkpt lat="48.73111" lon="2.51791">
        <ele>86</ele>
        <time>2021-05-05T09:13:31Z</time>
      </trkpt>
      <trkpt lat="48.73107" lon="2.51797">
        <ele>86.1</ele>
        <time>2021-05-05T09:13:36Z</time>
      </trkpt>
      <trkpt lat="48.73104" lon="2.51802">
        <ele>86.1</ele>
        <time>2021-05-05T09:13:40Z</time>
      </trkpt>
      <trkpt lat="48.73102" lon="2.51809">
        <ele>86.1</ele>
        <time>2021-05-05T09:13:44Z</time>
      </trkpt>
      <trkpt lat="48.73099" lon="2.51817">
        <ele>86.1</ele>
        <time>2021-05-05T09:13:48Z</time>
      </trkpt>
      <trkpt lat="48.73099" lon="2.51826">
        <ele>86.1</ele>
        <time>2021-05-05T09:13:51Z</time>
      </trkpt>
      <trkpt lat="48.73097" lon="2.51834">
        <ele>86.1</ele>
        <time>2021-05-05T09:13:56Z</time>
      </trkpt>
      <trkpt lat="48.73092" lon="2.5184">
        <ele>86.1</ele>
        <time>2021-05-05T09:13:59Z</time>
      </trkpt>
      <trkpt lat="48.73089" lon="2.51846">
        <ele>86.1</ele>
        <time>2021-05-05T09:14:05Z</time>
      </trkpt>
      <trkpt lat="48.73086" lon="2.51851">
        <ele>86.1</ele>
        <time>2021-05-05T09:14:08Z</time>
      </trkpt>
      <trkpt lat="48.73083" lon="2.51857">
        <ele>86.1</ele>
        <time>2021-05-05T09:14:13Z</time>
      </trkpt>
      <trkpt lat="48.7308" lon="2.51862">
        <ele>86.2</ele>
        <time>2021-05-05T09:14:17Z</time>
      </trkpt>
      <trkpt lat="48.73076" lon="2.51867">
        <ele>86.2</ele>
        <time>2021-05-05T09:14:22Z</time>
      </trkpt>
      <trkpt lat="48.73071" lon="2.51874">
        <ele>86.2</ele>
        <time>2021-05-05T09:14:25Z</time>
      </trkpt>
      <trkpt lat="48.73068" lon="2.51881">
        <ele>86.2</ele>
        <time>2021-05-05T09:14:29Z</time>
      </trkpt>
      <trkpt lat="48.73066" lon="2.51891">
        <ele>86.2</ele>
        <time>2021-05-05T09:14:33Z</time>
      </trkpt>
      <trkpt lat="48.73065" lon="2.51899">
        <ele>86.2</ele>
        <time>2021-05-05T09:14:36Z</time>
      </trkpt>
      <trkpt lat="48.73063" lon="2.51906">
        <ele>86.3</ele>
        <time>2021-05-05T09:14:40Z</time>
      </trkpt>
      <trkpt lat="48.7306" lon="2.51912">
        <ele>86.3</ele>
        <time>2021-05-05T09:14:44Z</time>
      </trkpt>
      <trkpt lat="48.73057" lon="2.51919">
        <ele>86.3</ele>
        <time>2021-05-05T09:14:49Z</time>
      </trkpt>
      <trkpt lat="48.73055" lon="2.51925">
        <ele>86.3</ele>
        <time>2021-05-05T09:14:53Z</time>
      </trkpt>
      <trkpt lat="48.73052" lon="2.51932">
        <ele>86.3</ele>
        <time>2021-05-05T09:14:56Z</time>
      </trkpt>
      <trkpt lat="48.73049" lon="2.51937">
        <ele>86.3</ele>
        <time>2021-05-05T09:15:00Z</time>
      </trkpt>
      <trkpt lat="48.73046" lon="2.51942">
        <ele>86.4</ele>
        <time>2021-05-05T09:15:07Z</time>
      </trkpt>
      <trkpt lat="48.73044" lon="2.51949">
        <ele>86.4</ele>
        <time>2021-05-05T09:15:11Z</time>
      </trkpt>
      <trkpt lat="48.73041" lon="2.51956">
        <ele>86.4</ele>
        <time>2021-05-05T09:15:15Z</time>
      </trkpt>
      <trkpt lat="48.73038" lon="2.51963">
        <ele>86.4</ele>
        <time>2021-05-05T09:15:18Z</time>
      </trkpt>
      <trkpt lat="48.73037" lon="2.51971">
        <ele>86.4</ele>
        <time>2021-05-05T09:15:21Z</time>
      </trkpt>
      <trkpt lat="48.73034" lon="2.51977">
        <ele>86.4</ele>
        <time>2021-05-05T09:15:25Z</time>
      </trkpt>
      <trkpt lat="48.73031" lon="2.51982">
        <ele>86.5</ele>
        <time>2021-05-05T09:15:30Z</time>
      </trkpt>
      <trkpt lat="48.73028" lon="2.51988">
        <ele>86.5</ele>
        <time>2021-05-05T09:15:34Z</time>
      </trkpt>
      <trkpt lat="48.73025" lon="2.51994">
        <ele>86.5</ele>
        <time>2021-05-05T09:15:39Z</time>
      </trkpt>
      <trkpt lat="48.7302" lon="2.51993">
        <ele>86.6</ele>
        <time>2021-05-05T09:15:53Z</time>
      </trkpt>
      <trkpt lat="48.73024" lon="2.51988">
        <ele>86.7</ele>
        <time>2021-05-05T09:15:59Z</time>
      </trkpt>
      <trkpt lat="48.73024" lon="2.51995">
        <ele>86.7</ele>
        <time>2021-05-05T09:16:08Z</time>
      </trkpt>
      <trkpt lat="48.73021" lon="2.52001">
        <ele>86.7</ele>
        <time>2021-05-05T09:16:14Z</time>
      </trkpt>
      <trkpt lat="48.73018" lon="2.52005">
        <ele>86.9</ele>
        <time>2021-05-05T09:17:03Z</time>
      </trkpt>
      <trkpt lat="48.73014" lon="2.52011">
        <ele>87</ele>
        <time>2021-05-05T09:17:08Z</time>
      </trkpt>
      <trkpt lat="48.73011" lon="2.52016">
        <ele>87</ele>
        <time>2021-05-05T09:17:12Z</time>
      </trkpt>
      <trkpt lat="48.73009" lon="2.52023">
        <ele>87.1</ele>
        <time>2021-05-05T09:17:16Z</time>
      </trkpt>
      <trkpt lat="48.73006" lon="2.52028">
        <ele>87.1</ele>
        <time>2021-05-05T09:17:21Z</time>
      </trkpt>
      <trkpt lat="48.73001" lon="2.5203">
        <ele>87.2</ele>
        <time>2021-05-05T09:17:27Z</time>
      </trkpt>
      <trkpt lat="48.72997" lon="2.52033">
        <ele>87.3</ele>
        <time>2021-05-05T09:17:36Z</time>
      </trkpt>
      <trkpt lat="48.72993" lon="2.52027">
        <ele>87.4</ele>
        <time>2021-05-05T09:17:52Z</time>
      </trkpt>
      <trkpt lat="48.7299" lon="2.5202">
        <ele>87.4</ele>
        <time>2021-05-05T09:17:57Z</time>
      </trkpt>
      <trkpt lat="48.72987" lon="2.52014">
        <ele>87.4</ele>
        <time>2021-05-05T09:18:02Z</time>
      </trkpt>
      <trkpt lat="48.72983" lon="2.52009">
        <ele>87.5</ele>
        <time>2021-05-05T09:18:07Z</time>
      </trkpt>
      <trkpt lat="48.7298" lon="2.52004">
        <ele>87.5</ele>
        <time>2021-05-05T09:18:10Z</time>
      </trkpt>
      <trkpt lat="48.72975" lon="2.52">
        <ele>87.5</ele>
        <time>2021-05-05T09:18:14Z</time>
      </trkpt>
      <trkpt lat="48.7297" lon="2.51998">
        <ele>87.5</ele>
        <time>2021-05-05T09:18:19Z</time>
      </trkpt>
      <trkpt lat="48.72967" lon="2.51993">
        <ele>87.5</ele>
        <time>2021-05-05T09:18:23Z</time>
      </trkpt>
      <trkpt lat="48.72963" lon="2.51986">
        <ele>87.6</ele>
        <time>2021-05-05T09:18:29Z</time>
      </trkpt>
      <trkpt lat="48.72961" lon="2.5198">
        <ele>87.6</ele>
        <time>2021-05-05T09:18:37Z</time>
      </trkpt>
      <trkpt lat="48.72957" lon="2.51974">
        <ele>87.6</ele>
        <time>2021-05-05T09:18:43Z</time>
      </trkpt>
      <trkpt lat="48.72953" lon="2.5197">
        <ele>87.6</ele>
        <time>2021-05-05T09:18:47Z</time>
      </trkpt>
      <trkpt lat="48.7295" lon="2.51965">
        <ele>87.6</ele>
        <time>2021-05-05T09:18:51Z</time>
      </trkpt>
      <trkpt lat="48.72945" lon="2.51961">
        <ele>87.6</ele>
        <time>2021-05-05T09:18:55Z</time>
      </trkpt>
      <trkpt lat="48.7294" lon="2.51957">
        <ele>87.6</ele>
        <time>2021-05-05T09:18:59Z</time>
      </trkpt>
      <trkpt lat="48.72936" lon="2.51952">
        <ele>87.6</ele>
        <time>2021-05-05T09:19:04Z</time>
      </trkpt>
      <trkpt lat="48.72932" lon="2.51948">
        <ele>87.6</ele>
        <time>2021-05-05T09:19:10Z</time>
      </trkpt>
      <trkpt lat="48.72927" lon="2.51945">
        <ele>87.6</ele>
        <time>2021-05-05T09:19:13Z</time>
      </trkpt>
      <trkpt lat="48.72923" lon="2.5194">
        <ele>87.7</ele>
        <time>2021-05-05T09:19:18Z</time>
      </trkpt>
      <trkpt lat="48.72919" lon="2.51937">
        <ele>87.7</ele>
        <time>2021-05-05T09:19:22Z</time>
      </trkpt>
      <trkpt lat="48.72914" lon="2.51931">
        <ele>87.7</ele>
        <time>2021-05-05T09:19:26Z</time>
      </trkpt>
      <trkpt lat="48.7291" lon="2.51927">
        <ele>87.7</ele>
        <time>2021-05-05T09:19:30Z</time>
      </trkpt>
      <trkpt lat="48.72906" lon="2.51923">
        <ele>87.7</ele>
        <time>2021-05-05T09:19:34Z</time>
      </trkpt>
      <trkpt lat="48.72901" lon="2.51918">
        <ele>87.7</ele>
        <time>2021-05-05T09:19:39Z</time>
      </trkpt>
      <trkpt lat="48.72899" lon="2.51912">
        <ele>87.8</ele>
        <time>2021-05-05T09:19:44Z</time>
      </trkpt>
      <trkpt lat="48.72895" lon="2.51907">
        <ele>87.8</ele>
        <time>2021-05-05T09:19:49Z</time>
      </trkpt>
      <trkpt lat="48.72892" lon="2.51901">
        <ele>87.8</ele>
        <time>2021-05-05T09:19:53Z</time>
      </trkpt>
      <trkpt lat="48.72888" lon="2.51897">
        <ele>87.9</ele>
        <time>2021-05-05T09:19:56Z</time>
      </trkpt>
      <trkpt lat="48.72885" lon="2.51893">
        <ele>87.9</ele>
        <time>2021-05-05T09:20:00Z</time>
      </trkpt>
      <trkpt lat="48.7288" lon="2.5189">
        <ele>87.9</ele>
        <time>2021-05-05T09:20:05Z</time>
      </trkpt>
      <trkpt lat="48.72877" lon="2.51884">
        <ele>88</ele>
        <time>2021-05-05T09:20:09Z</time>
      </trkpt>
      <trkpt lat="48.72873" lon="2.51879">
        <ele>88</ele>
        <time>2021-05-05T09:20:15Z</time>
      </trkpt>
      <trkpt lat="48.72869" lon="2.51873">
        <ele>88</ele>
        <time>2021-05-05T09:20:18Z</time>
      </trkpt>
      <trkpt lat="48.72865" lon="2.51867">
        <ele>88.1</ele>
        <time>2021-05-05T09:20:24Z</time>
      </trkpt>
      <trkpt lat="48.72862" lon="2.51863">
        <ele>88.1</ele>
        <time>2021-05-05T09:20:28Z</time>
      </trkpt>
      <trkpt lat="48.72857" lon="2.51859">
        <ele>88.2</ele>
        <time>2021-05-05T09:20:32Z</time>
      </trkpt>
      <trkpt lat="48.72854" lon="2.51854">
        <ele>88.2</ele>
        <time>2021-05-05T09:20:36Z</time>
      </trkpt>
      <trkpt lat="48.7285" lon="2.51848">
        <ele>88.2</ele>
        <time>2021-05-05T09:20:40Z</time>
      </trkpt>
      <trkpt lat="48.72846" lon="2.51844">
        <ele>88.2</ele>
        <time>2021-05-05T09:20:45Z</time>
      </trkpt>
      <trkpt lat="48.72841" lon="2.5184">
        <ele>88.3</ele>
        <time>2021-05-05T09:20:49Z</time>
      </trkpt>
      <trkpt lat="48.72837" lon="2.51835">
        <ele>88.3</ele>
        <time>2021-05-05T09:20:52Z</time>
      </trkpt>
      <trkpt lat="48.72833" lon="2.51831">
        <ele>88.3</ele>
        <time>2021-05-05T09:20:56Z</time>
      </trkpt>
      <trkpt lat="48.7283" lon="2.51825">
        <ele>88.4</ele>
        <time>2021-05-05T09:21:02Z</time>
      </trkpt>
      <trkpt lat="48.72827" lon="2.51819">
        <ele>88.4</ele>
        <time>2021-05-05T09:21:06Z</time>
      </trkpt>
      <trkpt lat="48.72823" lon="2.51814">
        <ele>88.4</ele>
        <time>2021-05-05T09:21:10Z</time>
      </trkpt>
      <trkpt lat="48.72818" lon="2.5181">
        <ele>88.5</ele>
        <time>2021-05-05T09:21:15Z</time>
      </trkpt>
      <trkpt lat="48.72815" lon="2.51806">
        <ele>88.5</ele>
        <time>2021-05-05T09:21:19Z</time>
      </trkpt>
      <trkpt lat="48.72811" lon="2.518">
        <ele>88.5</ele>
        <time>2021-05-05T09:21:22Z</time>
      </trkpt>
      <trkpt lat="48.72807" lon="2.51796">
        <ele>88.5</ele>
        <time>2021-05-05T09:21:25Z</time>
      </trkpt>
      <trkpt lat="48.72804" lon="2.51791">
        <ele>88.6</ele>
        <time>2021-05-05T09:21:31Z</time>
      </trkpt>
      <trkpt lat="48.728" lon="2.51786">
        <ele>88.6</ele>
        <time>2021-05-05T09:21:36Z</time>
      </trkpt>
      <trkpt lat="48.72797" lon="2.5178">
        <ele>88.7</ele>
        <time>2021-05-05T09:21:42Z</time>
      </trkpt>
      <trkpt lat="48.72793" lon="2.51776">
        <ele>88.7</ele>
        <time>2021-05-05T09:21:47Z</time>
      </trkpt>
      <trkpt lat="48.72792" lon="2.51768">
        <ele>88.8</ele>
        <time>2021-05-05T09:21:56Z</time>
      </trkpt>
      <trkpt lat="48.7279" lon="2.51762">
        <ele>88.8</ele>
        <time>2021-05-05T09:22:02Z</time>
      </trkpt>
      <trkpt lat="48.72787" lon="2.51756">
        <ele>88.8</ele>
        <time>2021-05-05T09:22:06Z</time>
      </trkpt>
      <trkpt lat="48.72782" lon="2.5175">
        <ele>88.9</ele>
        <time>2021-05-05T09:22:11Z</time>
      </trkpt>
      <trkpt lat="48.72777" lon="2.51744">
        <ele>88.9</ele>
        <time>2021-05-05T09:22:14Z</time>
      </trkpt>
      <trkpt lat="48.72773" lon="2.5174">
        <ele>88.9</ele>
        <time>2021-05-05T09:22:17Z</time>
      </trkpt>
      <trkpt lat="48.72769" lon="2.51735">
        <ele>88.9</ele>
        <time>2021-05-05T09:22:22Z</time>
      </trkpt>
      <trkpt lat="48.72765" lon="2.51732">
        <ele>88.9</ele>
        <time>2021-05-05T09:22:26Z</time>
      </trkpt>
      <trkpt lat="48.7276" lon="2.51729">
        <ele>88.9</ele>
        <time>2021-05-05T09:22:32Z</time>
      </trkpt>
      <trkpt lat="48.72757" lon="2.51724">
        <ele>88.9</ele>
        <time>2021-05-05T09:22:37Z</time>
      </trkpt>
      <trkpt lat="48.72753" lon="2.51719">
        <ele>89</ele>
        <time>2021-05-05T09:22:41Z</time>
      </trkpt>
      <trkpt lat="48.7275" lon="2.51714">
        <ele>89</ele>
        <time>2021-05-05T09:22:45Z</time>
      </trkpt>
      <trkpt lat="48.72745" lon="2.51708">
        <ele>89</ele>
        <time>2021-05-05T09:22:49Z</time>
      </trkpt>
      <trkpt lat="48.72741" lon="2.51702">
        <ele>89</ele>
        <time>2021-05-05T09:22:52Z</time>
      </trkpt>
      <trkpt lat="48.72738" lon="2.51697">
        <ele>89</ele>
        <time>2021-05-05T09:22:57Z</time>
      </trkpt>
      <trkpt lat="48.72734" lon="2.51692">
        <ele>89</ele>
        <time>2021-05-05T09:23:01Z</time>
      </trkpt>
      <trkpt lat="48.7273" lon="2.51688">
        <ele>89</ele>
        <time>2021-05-05T09:23:05Z</time>
      </trkpt>
      <trkpt lat="48.72726" lon="2.51684">
        <ele>89</ele>
        <time>2021-05-05T09:23:08Z</time>
      </trkpt>
      <trkpt lat="48.72722" lon="2.51678">
        <ele>89.1</ele>
        <time>2021-05-05T09:23:13Z</time>
      </trkpt>
      <trkpt lat="48.72718" lon="2.51674">
        <ele>89.1</ele>
        <time>2021-05-05T09:23:16Z</time>
      </trkpt>
      <trkpt lat="48.72713" lon="2.51672">
        <ele>89.1</ele>
        <time>2021-05-05T09:23:20Z</time>
      </trkpt>
      <trkpt lat="48.72708" lon="2.51668">
        <ele>89.1</ele>
        <time>2021-05-05T09:23:24Z</time>
      </trkpt>
      <trkpt lat="48.72704" lon="2.51663">
        <ele>89.2</ele>
        <time>2021-05-05T09:23:28Z</time>
      </trkpt>
      <trkpt lat="48.727" lon="2.51657">
        <ele>89.2</ele>
        <time>2021-05-05T09:23:32Z</time>
      </trkpt>
      <trkpt lat="48.72697" lon="2.51651">
        <ele>89.2</ele>
        <time>2021-05-05T09:23:38Z</time>
      </trkpt>
      <trkpt lat="48.72694" lon="2.51645">
        <ele>89.3</ele>
        <time>2021-05-05T09:23:43Z</time>
      </trkpt>
      <trkpt lat="48.72694" lon="2.51638">
        <ele>89.3</ele>
        <time>2021-05-05T09:23:47Z</time>
      </trkpt>
      <trkpt lat="48.72692" lon="2.51631">
        <ele>89.3</ele>
        <time>2021-05-05T09:23:52Z</time>
      </trkpt>
      <trkpt lat="48.72692" lon="2.51625">
        <ele>89.4</ele>
        <time>2021-05-05T09:23:57Z</time>
      </trkpt>
      <trkpt lat="48.72692" lon="2.51617">
        <ele>89.5</ele>
        <time>2021-05-05T09:24:04Z</time>
      </trkpt>
      <trkpt lat="48.72693" lon="2.5161">
        <ele>89.5</ele>
        <time>2021-05-05T09:24:10Z</time>
      </trkpt>
      <trkpt lat="48.72694" lon="2.51603">
        <ele>89.6</ele>
        <time>2021-05-05T09:24:15Z</time>
      </trkpt>
      <trkpt lat="48.72693" lon="2.51596">
        <ele>89.6</ele>
        <time>2021-05-05T09:24:19Z</time>
      </trkpt>
      <trkpt lat="48.72692" lon="2.51589">
        <ele>89.6</ele>
        <time>2021-05-05T09:24:22Z</time>
      </trkpt>
      <trkpt lat="48.72691" lon="2.5158">
        <ele>89.7</ele>
        <time>2021-05-05T09:24:26Z</time>
      </trkpt>
      <trkpt lat="48.72689" lon="2.51572">
        <ele>89.7</ele>
        <time>2021-05-05T09:24:30Z</time>
      </trkpt>
      <trkpt lat="48.72687" lon="2.51565">
        <ele>89.7</ele>
        <time>2021-05-05T09:24:34Z</time>
      </trkpt>
      <trkpt lat="48.72684" lon="2.51559">
        <ele>89.8</ele>
        <time>2021-05-05T09:24:38Z</time>
      </trkpt>
      <trkpt lat="48.72681" lon="2.51553">
        <ele>89.8</ele>
        <time>2021-05-05T09:24:43Z</time>
      </trkpt>
      <trkpt lat="48.72678" lon="2.51549">
        <ele>89.8</ele>
        <time>2021-05-05T09:24:46Z</time>
      </trkpt>
      <trkpt lat="48.72674" lon="2.51544">
        <ele>89.9</ele>
        <time>2021-05-05T09:24:51Z</time>
      </trkpt>
      <trkpt lat="48.72671" lon="2.51539">
        <ele>89.9</ele>
        <time>2021-05-05T09:24:53Z</time>
      </trkpt>
      <trkpt lat="48.72667" lon="2.51533">
        <ele>89.9</ele>
        <time>2021-05-05T09:24:56Z</time>
      </trkpt>
      <trkpt lat="48.72663" lon="2.51529">
        <ele>90</ele>
        <time>2021-05-05T09:25:00Z</time>
      </trkpt>
      <trkpt lat="48.72658" lon="2.51526">
        <ele>90</ele>
        <time>2021-05-05T09:25:05Z</time>
      </trkpt>
      <trkpt lat="48.72653" lon="2.51524">
        <ele>90.1</ele>
        <time>2021-05-05T09:25:10Z</time>
      </trkpt>
      <trkpt lat="48.72648" lon="2.51521">
        <ele>90.2</ele>
        <time>2021-05-05T09:25:15Z</time>
      </trkpt>
      <trkpt lat="48.72644" lon="2.51515">
        <ele>90.2</ele>
        <time>2021-05-05T09:25:21Z</time>
      </trkpt>
      <trkpt lat="48.72643" lon="2.51507">
        <ele>90.3</ele>
        <time>2021-05-05T09:25:29Z</time>
      </trkpt>
      <trkpt lat="48.72643" lon="2.51499">
        <ele>90.4</ele>
        <time>2021-05-05T09:25:34Z</time>
      </trkpt>
      <trkpt lat="48.72644" lon="2.51491">
        <ele>90.5</ele>
        <time>2021-05-05T09:25:40Z</time>
      </trkpt>
      <trkpt lat="48.72645" lon="2.51483">
        <ele>90.5</ele>
        <time>2021-05-05T09:25:44Z</time>
      </trkpt>
      <trkpt lat="48.72646" lon="2.51476">
        <ele>90.5</ele>
        <time>2021-05-05T09:25:47Z</time>
      </trkpt>
      <trkpt lat="48.72644" lon="2.51469">
        <ele>90.6</ele>
        <time>2021-05-05T09:25:50Z</time>
      </trkpt>
      <trkpt lat="48.72643" lon="2.51461">
        <ele>90.6</ele>
        <time>2021-05-05T09:25:54Z</time>
      </trkpt>
      <trkpt lat="48.72641" lon="2.51454">
        <ele>90.7</ele>
        <time>2021-05-05T09:25:59Z</time>
      </trkpt>
      <trkpt lat="48.72641" lon="2.51447">
        <ele>90.7</ele>
        <time>2021-05-05T09:26:02Z</time>
      </trkpt>
      <trkpt lat="48.7264" lon="2.5144">
        <ele>90.7</ele>
        <time>2021-05-05T09:26:05Z</time>
      </trkpt>
      <trkpt lat="48.72641" lon="2.51432">
        <ele>90.6</ele>
        <time>2021-05-05T09:26:10Z</time>
      </trkpt>
      <trkpt lat="48.72641" lon="2.51424">
        <ele>90.6</ele>
        <time>2021-05-05T09:26:16Z</time>
      </trkpt>
      <trkpt lat="48.72639" lon="2.51416">
        <ele>90.6</ele>
        <time>2021-05-05T09:26:20Z</time>
      </trkpt>
      <trkpt lat="48.72638" lon="2.51409">
        <ele>90.5</ele>
        <time>2021-05-05T09:26:23Z</time>
      </trkpt>
      <trkpt lat="48.72639" lon="2.51401">
        <ele>90.5</ele>
        <time>2021-05-05T09:26:28Z</time>
      </trkpt>
      <trkpt lat="48.72637" lon="2.51393">
        <ele>90.5</ele>
        <time>2021-05-05T09:26:32Z</time>
      </trkpt>
      <trkpt lat="48.72637" lon="2.51386">
        <ele>90.6</ele>
        <time>2021-05-05T09:26:36Z</time>
      </trkpt>
      <trkpt lat="48.72638" lon="2.51378">
        <ele>90.6</ele>
        <time>2021-05-05T09:26:41Z</time>
      </trkpt>
      <trkpt lat="48.72638" lon="2.5137">
        <ele>90.7</ele>
        <time>2021-05-05T09:26:48Z</time>
      </trkpt>
      <trkpt lat="48.72639" lon="2.51362">
        <ele>90.7</ele>
        <time>2021-05-05T09:26:53Z</time>
      </trkpt>
      <trkpt lat="48.7264" lon="2.51355">
        <ele>90.9</ele>
        <time>2021-05-05T09:26:58Z</time>
      </trkpt>
      <trkpt lat="48.72641" lon="2.51347">
        <ele>91</ele>
        <time>2021-05-05T09:27:02Z</time>
      </trkpt>
      <trkpt lat="48.72642" lon="2.51338">
        <ele>91.1</ele>
        <time>2021-05-05T09:27:07Z</time>
      </trkpt>
      <trkpt lat="48.72642" lon="2.5133">
        <ele>91.3</ele>
        <time>2021-05-05T09:27:12Z</time>
      </trkpt>
      <trkpt lat="48.72641" lon="2.51322">
        <ele>91.4</ele>
        <time>2021-05-05T09:27:15Z</time>
      </trkpt>
      <trkpt lat="48.72641" lon="2.51314">
        <ele>91.5</ele>
        <time>2021-05-05T09:27:19Z</time>
      </trkpt>
      <trkpt lat="48.7264" lon="2.51307">
        <ele>91.6</ele>
        <time>2021-05-05T09:27:23Z</time>
      </trkpt>
      <trkpt lat="48.72641" lon="2.513">
        <ele>91.8</ele>
        <time>2021-05-05T09:27:28Z</time>
      </trkpt>
      <trkpt lat="48.7264" lon="2.51292">
        <ele>92</ele>
        <time>2021-05-05T09:27:34Z</time>
      </trkpt>
      <trkpt lat="48.72641" lon="2.51285">
        <ele>92.1</ele>
        <time>2021-05-05T09:27:38Z</time>
      </trkpt>
      <trkpt lat="48.7264" lon="2.51277">
        <ele>92.2</ele>
        <time>2021-05-05T09:27:43Z</time>
      </trkpt>
      <trkpt lat="48.72639" lon="2.5127">
        <ele>92.3</ele>
        <time>2021-05-05T09:27:48Z</time>
      </trkpt>
      <trkpt lat="48.72638" lon="2.51262">
        <ele>92.3</ele>
        <time>2021-05-05T09:27:53Z</time>
      </trkpt>
      <trkpt lat="48.72637" lon="2.51253">
        <ele>92.4</ele>
        <time>2021-05-05T09:27:56Z</time>
      </trkpt>
      <trkpt lat="48.72636" lon="2.51245">
        <ele>92.4</ele>
        <time>2021-05-05T09:27:59Z</time>
      </trkpt>
      <trkpt lat="48.72636" lon="2.51237">
        <ele>92.4</ele>
        <time>2021-05-05T09:28:02Z</time>
      </trkpt>
      <trkpt lat="48.72636" lon="2.51229">
        <ele>92.5</ele>
        <time>2021-05-05T09:28:06Z</time>
      </trkpt>
      <trkpt lat="48.72637" lon="2.51221">
        <ele>92.5</ele>
        <time>2021-05-05T09:28:10Z</time>
      </trkpt>
      <trkpt lat="48.72637" lon="2.51214">
        <ele>92.6</ele>
        <time>2021-05-05T09:28:16Z</time>
      </trkpt>
      <trkpt lat="48.72637" lon="2.51206">
        <ele>92.7</ele>
        <time>2021-05-05T09:28:20Z</time>
      </trkpt>
      <trkpt lat="48.72636" lon="2.51199">
        <ele>92.8</ele>
        <time>2021-05-05T09:28:23Z</time>
      </trkpt>
      <trkpt lat="48.72636" lon="2.51192">
        <ele>92.8</ele>
        <time>2021-05-05T09:28:26Z</time>
      </trkpt>
      <trkpt lat="48.72635" lon="2.51183">
        <ele>92.9</ele>
        <time>2021-05-05T09:28:30Z</time>
      </trkpt>
      <trkpt lat="48.72635" lon="2.51176">
        <ele>92.9</ele>
        <time>2021-05-05T09:28:33Z</time>
      </trkpt>
      <trkpt lat="48.72634" lon="2.51168">
        <ele>93</ele>
        <time>2021-05-05T09:28:39Z</time>
      </trkpt>
      <trkpt lat="48.72633" lon="2.51161">
        <ele>93.1</ele>
        <time>2021-05-05T09:28:43Z</time>
      </trkpt>
      <trkpt lat="48.72632" lon="2.51153">
        <ele>93.1</ele>
        <time>2021-05-05T09:28:47Z</time>
      </trkpt>
      <trkpt lat="48.72632" lon="2.51146">
        <ele>93.2</ele>
        <time>2021-05-05T09:28:51Z</time>
      </trkpt>
      <trkpt lat="48.72633" lon="2.51139">
        <ele>93.2</ele>
        <time>2021-05-05T09:28:57Z</time>
      </trkpt>
      <trkpt lat="48.72634" lon="2.5113">
        <ele>93.3</ele>
        <time>2021-05-05T09:29:02Z</time>
      </trkpt>
      <trkpt lat="48.72634" lon="2.51123">
        <ele>93.3</ele>
        <time>2021-05-05T09:29:05Z</time>
      </trkpt>
      <trkpt lat="48.72633" lon="2.51114">
        <ele>93.3</ele>
        <time>2021-05-05T09:29:09Z</time>
      </trkpt>
      <trkpt lat="48.72633" lon="2.51107">
        <ele>93.4</ele>
        <time>2021-05-05T09:29:13Z</time>
      </trkpt>
      <trkpt lat="48.72633" lon="2.51098">
        <ele>93.4</ele>
        <time>2021-05-05T09:29:17Z</time>
      </trkpt>
      <trkpt lat="48.72631" lon="2.51091">
        <ele>93.5</ele>
        <time>2021-05-05T09:29:21Z</time>
      </trkpt>
      <trkpt lat="48.7263" lon="2.51083">
        <ele>93.5</ele>
        <time>2021-05-05T09:29:25Z</time>
      </trkpt>
      <trkpt lat="48.72629" lon="2.51075">
        <ele>93.6</ele>
        <time>2021-05-05T09:29:29Z</time>
      </trkpt>
      <trkpt lat="48.72628" lon="2.51068">
        <ele>93.6</ele>
        <time>2021-05-05T09:29:33Z</time>
      </trkpt>
      <trkpt lat="48.72627" lon="2.51061">
        <ele>93.7</ele>
        <time>2021-05-05T09:29:37Z</time>
      </trkpt>
      <trkpt lat="48.72626" lon="2.51053">
        <ele>93.8</ele>
        <time>2021-05-05T09:29:41Z</time>
      </trkpt>
      <trkpt lat="48.72624" lon="2.51044">
        <ele>93.9</ele>
        <time>2021-05-05T09:29:45Z</time>
      </trkpt>
      <trkpt lat="48.72623" lon="2.51036">
        <ele>93.9</ele>
        <time>2021-05-05T09:29:49Z</time>
      </trkpt>
      <trkpt lat="48.72623" lon="2.51029">
        <ele>94</ele>
        <time>2021-05-05T09:29:53Z</time>
      </trkpt>
      <trkpt lat="48.72623" lon="2.51021">
        <ele>94.1</ele>
        <time>2021-05-05T09:29:57Z</time>
      </trkpt>
      <trkpt lat="48.72623" lon="2.51014">
        <ele>94.2</ele>
        <time>2021-05-05T09:30:02Z</time>
      </trkpt>
      <trkpt lat="48.72624" lon="2.51007">
        <ele>94.3</ele>
        <time>2021-05-05T09:30:07Z</time>
      </trkpt>
      <trkpt lat="48.72624" lon="2.51">
        <ele>94.4</ele>
        <time>2021-05-05T09:30:12Z</time>
      </trkpt>
      <trkpt lat="48.72623" lon="2.50993">
        <ele>94.5</ele>
        <time>2021-05-05T09:30:18Z</time>
      </trkpt>
      <trkpt lat="48.72624" lon="2.50985">
        <ele>94.6</ele>
        <time>2021-05-05T09:30:22Z</time>
      </trkpt>
      <trkpt lat="48.72625" lon="2.50978">
        <ele>94.7</ele>
        <time>2021-05-05T09:30:25Z</time>
      </trkpt>
      <trkpt lat="48.72624" lon="2.5097">
        <ele>94.8</ele>
        <time>2021-05-05T09:30:31Z</time>
      </trkpt>
      <trkpt lat="48.72625" lon="2.50962">
        <ele>94.9</ele>
        <time>2021-05-05T09:30:36Z</time>
      </trkpt>
      <trkpt lat="48.72625" lon="2.50954">
        <ele>95</ele>
        <time>2021-05-05T09:30:42Z</time>
      </trkpt>
      <trkpt lat="48.72626" lon="2.50945">
        <ele>95.1</ele>
        <time>2021-05-05T09:30:48Z</time>
      </trkpt>
      <trkpt lat="48.72626" lon="2.50938">
        <ele>95.2</ele>
        <time>2021-05-05T09:30:52Z</time>
      </trkpt>
      <trkpt lat="48.72626" lon="2.5093">
        <ele>95.3</ele>
        <time>2021-05-05T09:30:56Z</time>
      </trkpt>
      <trkpt lat="48.72625" lon="2.50922">
        <ele>95.3</ele>
        <time>2021-05-05T09:31:00Z</time>
      </trkpt>
      <trkpt lat="48.72625" lon="2.50914">
        <ele>95.4</ele>
        <time>2021-05-05T09:31:06Z</time>
      </trkpt>
      <trkpt lat="48.72625" lon="2.50907">
        <ele>95.5</ele>
        <time>2021-05-05T09:31:13Z</time>
      </trkpt>
      <trkpt lat="48.72625" lon="2.50898">
        <ele>95.5</ele>
        <time>2021-05-05T09:31:17Z</time>
      </trkpt>
      <trkpt lat="48.72625" lon="2.5089">
        <ele>95.5</ele>
        <time>2021-05-05T09:31:22Z</time>
      </trkpt>
      <trkpt lat="48.72628" lon="2.50882">
        <ele>95.6</ele>
        <time>2021-05-05T09:31:27Z</time>
      </trkpt>
      <trkpt lat="48.72631" lon="2.50876">
        <ele>95.6</ele>
        <time>2021-05-05T09:31:31Z</time>
      </trkpt>
      <trkpt lat="48.72634" lon="2.50871">
        <ele>95.5</ele>
        <time>2021-05-05T09:31:37Z</time>
      </trkpt>
      <trkpt lat="48.72639" lon="2.50868">
        <ele>95.5</ele>
        <time>2021-05-05T09:31:43Z</time>
      </trkpt>
      <trkpt lat="48.72644" lon="2.50864">
        <ele>95.4</ele>
        <time>2021-05-05T09:31:49Z</time>
      </trkpt>
      <trkpt lat="48.72649" lon="2.50862">
        <ele>95.4</ele>
        <time>2021-05-05T09:31:54Z</time>
      </trkpt>
      <trkpt lat="48.72654" lon="2.50858">
        <ele>95.5</ele>
        <time>2021-05-05T09:31:57Z</time>
      </trkpt>
      <trkpt lat="48.72659" lon="2.50857">
        <ele>95.6</ele>
        <time>2021-05-05T09:32:01Z</time>
      </trkpt>
      <trkpt lat="48.72664" lon="2.50856">
        <ele>95.7</ele>
        <time>2021-05-05T09:32:05Z</time>
      </trkpt>
      <trkpt lat="48.72669" lon="2.50854">
        <ele>95.9</ele>
        <time>2021-05-05T09:32:11Z</time>
      </trkpt>
      <trkpt lat="48.72675" lon="2.50852">
        <ele>96.1</ele>
        <time>2021-05-05T09:32:17Z</time>
      </trkpt>
      <trkpt lat="48.72679" lon="2.5085">
        <ele>96.4</ele>
        <time>2021-05-05T09:32:22Z</time>
      </trkpt>
      <trkpt lat="48.72684" lon="2.50849">
        <ele>96.6</ele>
        <time>2021-05-05T09:32:26Z</time>
      </trkpt>
      <trkpt lat="48.72689" lon="2.50846">
        <ele>97</ele>
        <time>2021-05-05T09:32:36Z</time>
      </trkpt>
      <trkpt lat="48.72695" lon="2.50847">
        <ele>97.3</ele>
        <time>2021-05-05T09:32:41Z</time>
      </trkpt>
      <trkpt lat="48.727" lon="2.50847">
        <ele>97.6</ele>
        <time>2021-05-05T09:32:46Z</time>
      </trkpt>
      <trkpt lat="48.72705" lon="2.50846">
        <ele>98</ele>
        <time>2021-05-05T09:32:51Z</time>
      </trkpt>
      <trkpt lat="48.72709" lon="2.50841">
        <ele>98.3</ele>
        <time>2021-05-05T09:32:55Z</time>
      </trkpt>
      <trkpt lat="48.72714" lon="2.50839">
        <ele>98.5</ele>
        <time>2021-05-05T09:32:58Z</time>
      </trkpt>
      <trkpt lat="48.72719" lon="2.50837">
        <ele>98.8</ele>
        <time>2021-05-05T09:33:04Z</time>
      </trkpt>
      <trkpt lat="48.72723" lon="2.50836">
        <ele>99</ele>
        <time>2021-05-05T09:33:07Z</time>
      </trkpt>
      <trkpt lat="48.72728" lon="2.50835">
        <ele>99.3</ele>
        <time>2021-05-05T09:33:12Z</time>
      </trkpt>
      <trkpt lat="48.72734" lon="2.50835">
        <ele>99.6</ele>
        <time>2021-05-05T09:33:16Z</time>
      </trkpt>
      <trkpt lat="48.72738" lon="2.50833">
        <ele>99.8</ele>
        <time>2021-05-05T09:33:20Z</time>
      </trkpt>
      <trkpt lat="48.72743" lon="2.5083">
        <ele>100.2</ele>
        <time>2021-05-05T09:33:26Z</time>
      </trkpt>
      <trkpt lat="48.72748" lon="2.50827">
        <ele>100.5</ele>
        <time>2021-05-05T09:33:31Z</time>
      </trkpt>
      <trkpt lat="48.72752" lon="2.50824">
        <ele>100.8</ele>
        <time>2021-05-05T09:33:36Z</time>
      </trkpt>
      <trkpt lat="48.72756" lon="2.5082">
        <ele>101.7</ele>
        <time>2021-05-05T09:33:56Z</time>
      </trkpt>
      <trkpt lat="48.72762" lon="2.50819">
        <ele>102.1</ele>
        <time>2021-05-05T09:34:04Z</time>
      </trkpt>
      <trkpt lat="48.72768" lon="2.50817">
        <ele>102.2</ele>
        <time>2021-05-05T09:34:07Z</time>
      </trkpt>
      <trkpt lat="48.72773" lon="2.50816">
        <ele>102.3</ele>
        <time>2021-05-05T09:34:10Z</time>
      </trkpt>
      <trkpt lat="48.72778" lon="2.50816">
        <ele>102.5</ele>
        <time>2021-05-05T09:34:14Z</time>
      </trkpt>
      <trkpt lat="48.72785" lon="2.50814">
        <ele>102.6</ele>
        <time>2021-05-05T09:34:18Z</time>
      </trkpt>
      <trkpt lat="48.72791" lon="2.50811">
        <ele>102.8</ele>
        <time>2021-05-05T09:34:21Z</time>
      </trkpt>
      <trkpt lat="48.72797" lon="2.50808">
        <ele>102.9</ele>
        <time>2021-05-05T09:34:24Z</time>
      </trkpt>
      <trkpt lat="48.72802" lon="2.50805">
        <ele>103</ele>
        <time>2021-05-05T09:34:27Z</time>
      </trkpt>
      <trkpt lat="48.72807" lon="2.50802">
        <ele>103.1</ele>
        <time>2021-05-05T09:34:30Z</time>
      </trkpt>
      <trkpt lat="48.7281" lon="2.50796">
        <ele>103.2</ele>
        <time>2021-05-05T09:34:34Z</time>
      </trkpt>
      <trkpt lat="48.72812" lon="2.50789">
        <ele>103.3</ele>
        <time>2021-05-05T09:34:38Z</time>
      </trkpt>
      <trkpt lat="48.72815" lon="2.50782">
        <ele>103.4</ele>
        <time>2021-05-05T09:34:43Z</time>
      </trkpt>
      <trkpt lat="48.72819" lon="2.50777">
        <ele>103.6</ele>
        <time>2021-05-05T09:34:49Z</time>
      </trkpt>
      <trkpt lat="48.72823" lon="2.50772">
        <ele>103.6</ele>
        <time>2021-05-05T09:34:52Z</time>
      </trkpt>
      <trkpt lat="48.72827" lon="2.50768">
        <ele>103.7</ele>
        <time>2021-05-05T09:34:55Z</time>
      </trkpt>
      <trkpt lat="48.72831" lon="2.50765">
        <ele>103.8</ele>
        <time>2021-05-05T09:35:00Z</time>
      </trkpt>
      <trkpt lat="48.72834" lon="2.5076">
        <ele>103.9</ele>
        <time>2021-05-05T09:35:05Z</time>
      </trkpt>
      <trkpt lat="48.72837" lon="2.50754">
        <ele>104.1</ele>
        <time>2021-05-05T09:35:11Z</time>
      </trkpt>
      <trkpt lat="48.72839" lon="2.50745">
        <ele>104.1</ele>
        <time>2021-05-05T09:35:14Z</time>
      </trkpt>
      <trkpt lat="48.72841" lon="2.50737">
        <ele>104.2</ele>
        <time>2021-05-05T09:35:17Z</time>
      </trkpt>
      <trkpt lat="48.72842" lon="2.5073">
        <ele>104.2</ele>
        <time>2021-05-05T09:35:20Z</time>
      </trkpt>
      <trkpt lat="48.72844" lon="2.50723">
        <ele>104.3</ele>
        <time>2021-05-05T09:35:24Z</time>
      </trkpt>
      <trkpt lat="48.72847" lon="2.50716">
        <ele>104.4</ele>
        <time>2021-05-05T09:35:32Z</time>
      </trkpt>
      <trkpt lat="48.72848" lon="2.50707">
        <ele>104.4</ele>
        <time>2021-05-05T09:35:37Z</time>
      </trkpt>
      <trkpt lat="48.72849" lon="2.50698">
        <ele>104.4</ele>
        <time>2021-05-05T09:35:40Z</time>
      </trkpt>
      <trkpt lat="48.72846" lon="2.50689">
        <ele>104.4</ele>
        <time>2021-05-05T09:35:43Z</time>
      </trkpt>
      <trkpt lat="48.72843" lon="2.50684">
        <ele>104.5</ele>
        <time>2021-05-05T09:35:47Z</time>
      </trkpt>
      <trkpt lat="48.7284" lon="2.50676">
        <ele>104.5</ele>
        <time>2021-05-05T09:35:51Z</time>
      </trkpt>
      <trkpt lat="48.72836" lon="2.50672">
        <ele>104.5</ele>
        <time>2021-05-05T09:35:57Z</time>
      </trkpt>
      <trkpt lat="48.72832" lon="2.50666">
        <ele>104.5</ele>
        <time>2021-05-05T09:36:03Z</time>
      </trkpt>
      <trkpt lat="48.72829" lon="2.50661">
        <ele>104.5</ele>
        <time>2021-05-05T09:36:07Z</time>
      </trkpt>
      <trkpt lat="48.72825" lon="2.50656">
        <ele>104.5</ele>
        <time>2021-05-05T09:36:10Z</time>
      </trkpt>
      <trkpt lat="48.72822" lon="2.5065">
        <ele>104.5</ele>
        <time>2021-05-05T09:36:14Z</time>
      </trkpt>
      <trkpt lat="48.72817" lon="2.50646">
        <ele>104.5</ele>
        <time>2021-05-05T09:36:19Z</time>
      </trkpt>
      <trkpt lat="48.72813" lon="2.50643">
        <ele>104.5</ele>
        <time>2021-05-05T09:36:24Z</time>
      </trkpt>
      <trkpt lat="48.72809" lon="2.5064">
        <ele>104.5</ele>
        <time>2021-05-05T09:36:27Z</time>
      </trkpt>
      <trkpt lat="48.72805" lon="2.50635">
        <ele>104.5</ele>
        <time>2021-05-05T09:36:30Z</time>
      </trkpt>
      <trkpt lat="48.72801" lon="2.50629">
        <ele>104.5</ele>
        <time>2021-05-05T09:36:33Z</time>
      </trkpt>
      <trkpt lat="48.72798" lon="2.50624">
        <ele>104.5</ele>
        <time>2021-05-05T09:36:36Z</time>
      </trkpt>
      <trkpt lat="48.72795" lon="2.50617">
        <ele>104.5</ele>
        <time>2021-05-05T09:36:41Z</time>
      </trkpt>
      <trkpt lat="48.72793" lon="2.5061">
        <ele>104.4</ele>
        <time>2021-05-05T09:36:46Z</time>
      </trkpt>
      <trkpt lat="48.7279" lon="2.50603">
        <ele>104.4</ele>
        <time>2021-05-05T09:36:51Z</time>
      </trkpt>
      <trkpt lat="48.72786" lon="2.50598">
        <ele>104.4</ele>
        <time>2021-05-05T09:36:55Z</time>
      </trkpt>
      <trkpt lat="48.72782" lon="2.50593">
        <ele>104.4</ele>
        <time>2021-05-05T09:36:59Z</time>
      </trkpt>
      <trkpt lat="48.72777" lon="2.5059">
        <ele>104.3</ele>
        <time>2021-05-05T09:37:02Z</time>
      </trkpt>
      <trkpt lat="48.72773" lon="2.50587">
        <ele>104.3</ele>
        <time>2021-05-05T09:37:06Z</time>
      </trkpt>
      <trkpt lat="48.7277" lon="2.50582">
        <ele>104.3</ele>
        <time>2021-05-05T09:37:09Z</time>
      </trkpt>
      <trkpt lat="48.72765" lon="2.50576">
        <ele>104.3</ele>
        <time>2021-05-05T09:37:14Z</time>
      </trkpt>
      <trkpt lat="48.7276" lon="2.50571">
        <ele>104.2</ele>
        <time>2021-05-05T09:37:18Z</time>
      </trkpt>
      <trkpt lat="48.72757" lon="2.50565">
        <ele>104.2</ele>
        <time>2021-05-05T09:37:22Z</time>
      </trkpt>
      <trkpt lat="48.72754" lon="2.50559">
        <ele>104.2</ele>
        <time>2021-05-05T09:37:28Z</time>
      </trkpt>
      <trkpt lat="48.72751" lon="2.50554">
        <ele>104.1</ele>
        <time>2021-05-05T09:37:33Z</time>
      </trkpt>
      <trkpt lat="48.72749" lon="2.50548">
        <ele>104.1</ele>
        <time>2021-05-05T09:37:36Z</time>
      </trkpt>
      <trkpt lat="48.72746" lon="2.50541">
        <ele>104.1</ele>
        <time>2021-05-05T09:37:40Z</time>
      </trkpt>
      <trkpt lat="48.72743" lon="2.50537">
        <ele>104</ele>
        <time>2021-05-05T09:37:45Z</time>
      </trkpt>
      <trkpt lat="48.72738" lon="2.50533">
        <ele>104</ele>
        <time>2021-05-05T09:37:51Z</time>
      </trkpt>
      <trkpt lat="48.72733" lon="2.50528">
        <ele>103.9</ele>
        <time>2021-05-05T09:37:55Z</time>
      </trkpt>
      <trkpt lat="48.7273" lon="2.50523">
        <ele>103.9</ele>
        <time>2021-05-05T09:37:58Z</time>
      </trkpt>
      <trkpt lat="48.72725" lon="2.50518">
        <ele>103.9</ele>
        <time>2021-05-05T09:38:03Z</time>
      </trkpt>
      <trkpt lat="48.72721" lon="2.50512">
        <ele>103.8</ele>
        <time>2021-05-05T09:38:07Z</time>
      </trkpt>
      <trkpt lat="48.72717" lon="2.50507">
        <ele>103.8</ele>
        <time>2021-05-05T09:38:11Z</time>
      </trkpt>
      <trkpt lat="48.72714" lon="2.50501">
        <ele>103.8</ele>
        <time>2021-05-05T09:38:15Z</time>
      </trkpt>
      <trkpt lat="48.7271" lon="2.50496">
        <ele>103.7</ele>
        <time>2021-05-05T09:38:19Z</time>
      </trkpt>
      <trkpt lat="48.72706" lon="2.50493">
        <ele>103.7</ele>
        <time>2021-05-05T09:38:25Z</time>
      </trkpt>
      <trkpt lat="48.72701" lon="2.50489">
        <ele>103.6</ele>
        <time>2021-05-05T09:38:28Z</time>
      </trkpt>
      <trkpt lat="48.72697" lon="2.50484">
        <ele>103.6</ele>
        <time>2021-05-05T09:38:32Z</time>
      </trkpt>
      <trkpt lat="48.72694" lon="2.5048">
        <ele>103.5</ele>
        <time>2021-05-05T09:38:37Z</time>
      </trkpt>
      <trkpt lat="48.7269" lon="2.50474">
        <ele>103.5</ele>
        <time>2021-05-05T09:38:42Z</time>
      </trkpt>
      <trkpt lat="48.72686" lon="2.50468">
        <ele>103.4</ele>
        <time>2021-05-05T09:38:47Z</time>
      </trkpt>
      <trkpt lat="48.72684" lon="2.50462">
        <ele>103.4</ele>
        <time>2021-05-05T09:38:50Z</time>
      </trkpt>
      <trkpt lat="48.7268" lon="2.50457">
        <ele>103.4</ele>
        <time>2021-05-05T09:38:54Z</time>
      </trkpt>
      <trkpt lat="48.72674" lon="2.50456">
        <ele>103.4</ele>
        <time>2021-05-05T09:38:58Z</time>
      </trkpt>
      <trkpt lat="48.72669" lon="2.50455">
        <ele>103.3</ele>
        <time>2021-05-05T09:39:01Z</time>
      </trkpt>
      <trkpt lat="48.72664" lon="2.50453">
        <ele>103.3</ele>
        <time>2021-05-05T09:39:06Z</time>
      </trkpt>
      <trkpt lat="48.7266" lon="2.50452">
        <ele>103.3</ele>
        <time>2021-05-05T09:39:12Z</time>
      </trkpt>
      <trkpt lat="48.72655" lon="2.50449">
        <ele>103.2</ele>
        <time>2021-05-05T09:39:17Z</time>
      </trkpt>
      <trkpt lat="48.7265" lon="2.50444">
        <ele>103.2</ele>
        <time>2021-05-05T09:39:20Z</time>
      </trkpt>
      <trkpt lat="48.72646" lon="2.50439">
        <ele>103.2</ele>
        <time>2021-05-05T09:39:23Z</time>
      </trkpt>
      <trkpt lat="48.7264" lon="2.50434">
        <ele>103.2</ele>
        <time>2021-05-05T09:39:29Z</time>
      </trkpt>
      <trkpt lat="48.72636" lon="2.50433">
        <ele>103.1</ele>
        <time>2021-05-05T09:39:34Z</time>
      </trkpt>
      <trkpt lat="48.7263" lon="2.5043">
        <ele>103.1</ele>
        <time>2021-05-05T09:39:38Z</time>
      </trkpt>
      <trkpt lat="48.72626" lon="2.50426">
        <ele>103.1</ele>
        <time>2021-05-05T09:39:41Z</time>
      </trkpt>
      <trkpt lat="48.72621" lon="2.5042">
        <ele>103.1</ele>
        <time>2021-05-05T09:39:45Z</time>
      </trkpt>
      <trkpt lat="48.72618" lon="2.50414">
        <ele>103.1</ele>
        <time>2021-05-05T09:39:48Z</time>
      </trkpt>
      <trkpt lat="48.72613" lon="2.50409">
        <ele>103</ele>
        <time>2021-05-05T09:39:52Z</time>
      </trkpt>
      <trkpt lat="48.7261" lon="2.50404">
        <ele>103</ele>
        <time>2021-05-05T09:39:56Z</time>
      </trkpt>
      <trkpt lat="48.72607" lon="2.50396">
        <ele>102.9</ele>
        <time>2021-05-05T09:40:00Z</time>
      </trkpt>
      <trkpt lat="48.72603" lon="2.50391">
        <ele>102.9</ele>
        <time>2021-05-05T09:40:04Z</time>
      </trkpt>
      <trkpt lat="48.726" lon="2.50386">
        <ele>102.9</ele>
        <time>2021-05-05T09:40:08Z</time>
      </trkpt>
      <trkpt lat="48.72597" lon="2.5038">
        <ele>102.8</ele>
        <time>2021-05-05T09:40:13Z</time>
      </trkpt>
      <trkpt lat="48.72595" lon="2.50373">
        <ele>102.8</ele>
        <time>2021-05-05T09:40:17Z</time>
      </trkpt>
      <trkpt lat="48.72593" lon="2.50367">
        <ele>102.7</ele>
        <time>2021-05-05T09:40:23Z</time>
      </trkpt>
      <trkpt lat="48.72591" lon="2.5036">
        <ele>102.7</ele>
        <time>2021-05-05T09:40:26Z</time>
      </trkpt>
      <trkpt lat="48.72588" lon="2.50354">
        <ele>102.7</ele>
        <time>2021-05-05T09:40:29Z</time>
      </trkpt>
      <trkpt lat="48.72585" lon="2.50347">
        <ele>102.6</ele>
        <time>2021-05-05T09:40:33Z</time>
      </trkpt>
      <trkpt lat="48.72582" lon="2.5034">
        <ele>102.6</ele>
        <time>2021-05-05T09:40:37Z</time>
      </trkpt>
      <trkpt lat="48.7258" lon="2.50333">
        <ele>102.5</ele>
        <time>2021-05-05T09:40:41Z</time>
      </trkpt>
      <trkpt lat="48.72578" lon="2.50327">
        <ele>102.5</ele>
        <time>2021-05-05T09:40:45Z</time>
      </trkpt>
      <trkpt lat="48.72576" lon="2.50321">
        <ele>102.5</ele>
        <time>2021-05-05T09:40:48Z</time>
      </trkpt>
      <trkpt lat="48.72574" lon="2.50313">
        <ele>102.4</ele>
        <time>2021-05-05T09:40:52Z</time>
      </trkpt>
      <trkpt lat="48.72571" lon="2.50306">
        <ele>102.4</ele>
        <time>2021-05-05T09:40:56Z</time>
      </trkpt>
      <trkpt lat="48.72569" lon="2.503">
        <ele>102.4</ele>
        <time>2021-05-05T09:41:01Z</time>
      </trkpt>
      <trkpt lat="48.72568" lon="2.50293">
        <ele>102.3</ele>
        <time>2021-05-05T09:41:06Z</time>
      </trkpt>
      <trkpt lat="48.72565" lon="2.50286">
        <ele>102.3</ele>
        <time>2021-05-05T09:41:11Z</time>
      </trkpt>
      <trkpt lat="48.72562" lon="2.5028">
        <ele>102.3</ele>
        <time>2021-05-05T09:41:15Z</time>
      </trkpt>
      <trkpt lat="48.72558" lon="2.50275">
        <ele>102.3</ele>
        <time>2021-05-05T09:41:19Z</time>
      </trkpt>
      <trkpt lat="48.72555" lon="2.50268">
        <ele>102.2</ele>
        <time>2021-05-05T09:41:24Z</time>
      </trkpt>
      <trkpt lat="48.72551" lon="2.50262">
        <ele>102.2</ele>
        <time>2021-05-05T09:41:29Z</time>
      </trkpt>
      <trkpt lat="48.72549" lon="2.50256">
        <ele>102.2</ele>
        <time>2021-05-05T09:41:34Z</time>
      </trkpt>
      <trkpt lat="48.72547" lon="2.50249">
        <ele>102.1</ele>
        <time>2021-05-05T09:41:39Z</time>
      </trkpt>
      <trkpt lat="48.72544" lon="2.50242">
        <ele>102.1</ele>
        <time>2021-05-05T09:41:44Z</time>
      </trkpt>
      <trkpt lat="48.72543" lon="2.50234">
        <ele>102.1</ele>
        <time>2021-05-05T09:41:48Z</time>
      </trkpt>
      <trkpt lat="48.72542" lon="2.50227">
        <ele>102.1</ele>
        <time>2021-05-05T09:41:52Z</time>
      </trkpt>
      <trkpt lat="48.72541" lon="2.5022">
        <ele>102.1</ele>
        <time>2021-05-05T09:41:57Z</time>
      </trkpt>
      <trkpt lat="48.72538" lon="2.50214">
        <ele>102</ele>
        <time>2021-05-05T09:42:02Z</time>
      </trkpt>
      <trkpt lat="48.72535" lon="2.50209">
        <ele>102</ele>
        <time>2021-05-05T09:42:06Z</time>
      </trkpt>
      <trkpt lat="48.72535" lon="2.50202">
        <ele>102</ele>
        <time>2021-05-05T09:42:14Z</time>
      </trkpt>
      <trkpt lat="48.72532" lon="2.50195">
        <ele>102</ele>
        <time>2021-05-05T09:42:19Z</time>
      </trkpt>
      <trkpt lat="48.72528" lon="2.50189">
        <ele>101.9</ele>
        <time>2021-05-05T09:42:23Z</time>
      </trkpt>
      <trkpt lat="48.72525" lon="2.50184">
        <ele>101.9</ele>
        <time>2021-05-05T09:42:27Z</time>
      </trkpt>
      <trkpt lat="48.72521" lon="2.50178">
        <ele>101.8</ele>
        <time>2021-05-05T09:42:33Z</time>
      </trkpt>
      <trkpt lat="48.72518" lon="2.50171">
        <ele>101.8</ele>
        <time>2021-05-05T09:42:36Z</time>
      </trkpt>
      <trkpt lat="48.72515" lon="2.50165">
        <ele>101.8</ele>
        <time>2021-05-05T09:42:39Z</time>
      </trkpt>
      <trkpt lat="48.72512" lon="2.50158">
        <ele>101.8</ele>
        <time>2021-05-05T09:42:42Z</time>
      </trkpt>
      <trkpt lat="48.72508" lon="2.50153">
        <ele>101.7</ele>
        <time>2021-05-05T09:42:46Z</time>
      </trkpt>
      <trkpt lat="48.72506" lon="2.50147">
        <ele>101.6</ele>
        <time>2021-05-05T09:42:50Z</time>
      </trkpt>
      <trkpt lat="48.72505" lon="2.50139">
        <ele>101.6</ele>
        <time>2021-05-05T09:42:53Z</time>
      </trkpt>
      <trkpt lat="48.72504" lon="2.50131">
        <ele>101.5</ele>
        <time>2021-05-05T09:42:58Z</time>
      </trkpt>
      <trkpt lat="48.72502" lon="2.50124">
        <ele>101.4</ele>
        <time>2021-05-05T09:43:02Z</time>
      </trkpt>
      <trkpt lat="48.72499" lon="2.50117">
        <ele>101.3</ele>
        <time>2021-05-05T09:43:07Z</time>
      </trkpt>
      <trkpt lat="48.72496" lon="2.50111">
        <ele>101.2</ele>
        <time>2021-05-05T09:43:11Z</time>
      </trkpt>
      <trkpt lat="48.72494" lon="2.50105">
        <ele>101.1</ele>
        <time>2021-05-05T09:43:15Z</time>
      </trkpt>
      <trkpt lat="48.72493" lon="2.50098">
        <ele>101</ele>
        <time>2021-05-05T09:43:19Z</time>
      </trkpt>
      <trkpt lat="48.7249" lon="2.50091">
        <ele>100.9</ele>
        <time>2021-05-05T09:43:23Z</time>
      </trkpt>
      <trkpt lat="48.72487" lon="2.50085">
        <ele>100.8</ele>
        <time>2021-05-05T09:43:30Z</time>
      </trkpt>
      <trkpt lat="48.72485" lon="2.50079">
        <ele>100.8</ele>
        <time>2021-05-05T09:43:34Z</time>
      </trkpt>
      <trkpt lat="48.72482" lon="2.50072">
        <ele>100.7</ele>
        <time>2021-05-05T09:43:38Z</time>
      </trkpt>
      <trkpt lat="48.7248" lon="2.50066">
        <ele>100.7</ele>
        <time>2021-05-05T09:43:41Z</time>
      </trkpt>
      <trkpt lat="48.72475" lon="2.5006">
        <ele>100.6</ele>
        <time>2021-05-05T09:43:46Z</time>
      </trkpt>
      <trkpt lat="48.72471" lon="2.50055">
        <ele>100.5</ele>
        <time>2021-05-05T09:44:04Z</time>
      </trkpt>
      <trkpt lat="48.72469" lon="2.50048">
        <ele>100.4</ele>
        <time>2021-05-05T09:44:11Z</time>
      </trkpt>
      <trkpt lat="48.72466" lon="2.50043">
        <ele>100.4</ele>
        <time>2021-05-05T09:44:16Z</time>
      </trkpt>
      <trkpt lat="48.72464" lon="2.50036">
        <ele>100.4</ele>
        <time>2021-05-05T09:44:21Z</time>
      </trkpt>
      <trkpt lat="48.72463" lon="2.50029">
        <ele>100.3</ele>
        <time>2021-05-05T09:44:26Z</time>
      </trkpt>
      <trkpt lat="48.7246" lon="2.50022">
        <ele>100.3</ele>
        <time>2021-05-05T09:44:30Z</time>
      </trkpt>
      <trkpt lat="48.72457" lon="2.50017">
        <ele>100.3</ele>
        <time>2021-05-05T09:44:34Z</time>
      </trkpt>
      <trkpt lat="48.72454" lon="2.50011">
        <ele>100.2</ele>
        <time>2021-05-05T09:44:38Z</time>
      </trkpt>
      <trkpt lat="48.7245" lon="2.50006">
        <ele>100.2</ele>
        <time>2021-05-05T09:44:43Z</time>
      </trkpt>
      <trkpt lat="48.72446" lon="2.5">
        <ele>100.1</ele>
        <time>2021-05-05T09:44:48Z</time>
      </trkpt>
      <trkpt lat="48.72444" lon="2.49993">
        <ele>100.1</ele>
        <time>2021-05-05T09:44:53Z</time>
      </trkpt>
      <trkpt lat="48.72441" lon="2.49987">
        <ele>100.1</ele>
        <time>2021-05-05T09:44:58Z</time>
      </trkpt>
      <trkpt lat="48.72439" lon="2.4998">
        <ele>100.1</ele>
        <time>2021-05-05T09:45:03Z</time>
      </trkpt>
      <trkpt lat="48.72434" lon="2.49977">
        <ele>100</ele>
        <time>2021-05-05T09:45:10Z</time>
      </trkpt>
      <trkpt lat="48.72429" lon="2.49975">
        <ele>100</ele>
        <time>2021-05-05T09:45:14Z</time>
      </trkpt>
      <trkpt lat="48.72424" lon="2.49974">
        <ele>99.9</ele>
        <time>2021-05-05T09:45:17Z</time>
      </trkpt>
      <trkpt lat="48.72419" lon="2.49972">
        <ele>99.9</ele>
        <time>2021-05-05T09:45:22Z</time>
      </trkpt>
      <trkpt lat="48.72415" lon="2.49971">
        <ele>99.8</ele>
        <time>2021-05-05T09:45:26Z</time>
      </trkpt>
      <trkpt lat="48.72409" lon="2.4997">
        <ele>99.8</ele>
        <time>2021-05-05T09:45:30Z</time>
      </trkpt>
      <trkpt lat="48.72404" lon="2.49968">
        <ele>99.7</ele>
        <time>2021-05-05T09:45:34Z</time>
      </trkpt>
      <trkpt lat="48.724" lon="2.49967">
        <ele>99.6</ele>
        <time>2021-05-05T09:45:39Z</time>
      </trkpt>
      <trkpt lat="48.72394" lon="2.49968">
        <ele>99.6</ele>
        <time>2021-05-05T09:45:43Z</time>
      </trkpt>
      <trkpt lat="48.7239" lon="2.49967">
        <ele>99.5</ele>
        <time>2021-05-05T09:45:49Z</time>
      </trkpt>
      <trkpt lat="48.72385" lon="2.49969">
        <ele>99.4</ele>
        <time>2021-05-05T09:45:53Z</time>
      </trkpt>
      <trkpt lat="48.72381" lon="2.49969">
        <ele>99.4</ele>
        <time>2021-05-05T09:45:57Z</time>
      </trkpt>
      <trkpt lat="48.72376" lon="2.49971">
        <ele>99.3</ele>
        <time>2021-05-05T09:46:00Z</time>
      </trkpt>
      <trkpt lat="48.72371" lon="2.49971">
        <ele>99.2</ele>
        <time>2021-05-05T09:46:05Z</time>
      </trkpt>
      <trkpt lat="48.72366" lon="2.49969">
        <ele>98.6</ele>
        <time>2021-05-05T09:46:58Z</time>
      </trkpt>
      <trkpt lat="48.7236" lon="2.49969">
        <ele>98.3</ele>
        <time>2021-05-05T09:47:03Z</time>
      </trkpt>
      <trkpt lat="48.72356" lon="2.4997">
        <ele>98</ele>
        <time>2021-05-05T09:47:07Z</time>
      </trkpt>
      <trkpt lat="48.72351" lon="2.49971">
        <ele>97.7</ele>
        <time>2021-05-05T09:47:12Z</time>
      </trkpt>
      <trkpt lat="48.72347" lon="2.49966">
        <ele>97.4</ele>
        <time>2021-05-05T09:47:18Z</time>
      </trkpt>
      <trkpt lat="48.72347" lon="2.49959">
        <ele>97.1</ele>
        <time>2021-05-05T09:47:22Z</time>
      </trkpt>
      <trkpt lat="48.72347" lon="2.49951">
        <ele>96.9</ele>
        <time>2021-05-05T09:47:26Z</time>
      </trkpt>
      <trkpt lat="48.72348" lon="2.49944">
        <ele>96.8</ele>
        <time>2021-05-05T09:47:29Z</time>
      </trkpt>
      <trkpt lat="48.72347" lon="2.49936">
        <ele>96.6</ele>
        <time>2021-05-05T09:47:33Z</time>
      </trkpt>
      <trkpt lat="48.72344" lon="2.49931">
        <ele>96.4</ele>
        <time>2021-05-05T09:47:38Z</time>
      </trkpt>
      <trkpt lat="48.72341" lon="2.49924">
        <ele>96.2</ele>
        <time>2021-05-05T09:47:42Z</time>
      </trkpt>
      <trkpt lat="48.72339" lon="2.49917">
        <ele>96</ele>
        <time>2021-05-05T09:47:47Z</time>
      </trkpt>
      <trkpt lat="48.72337" lon="2.49911">
        <ele>95.9</ele>
        <time>2021-05-05T09:47:52Z</time>
      </trkpt>
      <trkpt lat="48.72333" lon="2.49907">
        <ele>95.7</ele>
        <time>2021-05-05T09:47:56Z</time>
      </trkpt>
      <trkpt lat="48.72329" lon="2.49906">
        <ele>95.6</ele>
        <time>2021-05-05T09:48:00Z</time>
      </trkpt>
      <trkpt lat="48.72324" lon="2.49904">
        <ele>95.5</ele>
        <time>2021-05-05T09:48:04Z</time>
      </trkpt>
      <trkpt lat="48.72318" lon="2.49904">
        <ele>95.4</ele>
        <time>2021-05-05T09:48:09Z</time>
      </trkpt>
      <trkpt lat="48.72313" lon="2.49904">
        <ele>95.2</ele>
        <time>2021-05-05T09:48:14Z</time>
      </trkpt>
      <trkpt lat="48.72307" lon="2.49905">
        <ele>95.1</ele>
        <time>2021-05-05T09:48:18Z</time>
      </trkpt>
      <trkpt lat="48.72303" lon="2.49905">
        <ele>95</ele>
        <time>2021-05-05T09:48:21Z</time>
      </trkpt>
      <trkpt lat="48.72298" lon="2.49903">
        <ele>94.9</ele>
        <time>2021-05-05T09:48:25Z</time>
      </trkpt>
      <trkpt lat="48.72294" lon="2.49899">
        <ele>94.7</ele>
        <time>2021-05-05T09:48:32Z</time>
      </trkpt>
      <trkpt lat="48.7229" lon="2.49895">
        <ele>94.6</ele>
        <time>2021-05-05T09:48:35Z</time>
      </trkpt>
      <trkpt lat="48.72285" lon="2.4989">
        <ele>94.5</ele>
        <time>2021-05-05T09:48:39Z</time>
      </trkpt>
      <trkpt lat="48.72281" lon="2.49884">
        <ele>94.4</ele>
        <time>2021-05-05T09:48:43Z</time>
      </trkpt>
      <trkpt lat="48.72278" lon="2.49878">
        <ele>94.3</ele>
        <time>2021-05-05T09:48:47Z</time>
      </trkpt>
      <trkpt lat="48.72275" lon="2.49871">
        <ele>94.2</ele>
        <time>2021-05-05T09:48:51Z</time>
      </trkpt>
      <trkpt lat="48.72272" lon="2.49865">
        <ele>94.2</ele>
        <time>2021-05-05T09:48:54Z</time>
      </trkpt>
      <trkpt lat="48.7227" lon="2.49859">
        <ele>94.1</ele>
        <time>2021-05-05T09:48:58Z</time>
      </trkpt>
      <trkpt lat="48.72268" lon="2.49852">
        <ele>94</ele>
        <time>2021-05-05T09:49:02Z</time>
      </trkpt>
      <trkpt lat="48.72266" lon="2.49844">
        <ele>93.9</ele>
        <time>2021-05-05T09:49:07Z</time>
      </trkpt>
      <trkpt lat="48.72266" lon="2.49835">
        <ele>93.8</ele>
        <time>2021-05-05T09:49:11Z</time>
      </trkpt>
      <trkpt lat="48.72265" lon="2.49826">
        <ele>93.8</ele>
        <time>2021-05-05T09:49:15Z</time>
      </trkpt>
      <trkpt lat="48.72264" lon="2.49819">
        <ele>93.7</ele>
        <time>2021-05-05T09:49:19Z</time>
      </trkpt>
      <trkpt lat="48.72263" lon="2.49812">
        <ele>93.6</ele>
        <time>2021-05-05T09:49:25Z</time>
      </trkpt>
      <trkpt lat="48.72259" lon="2.49808">
        <ele>93.5</ele>
        <time>2021-05-05T09:49:31Z</time>
      </trkpt>
      <trkpt lat="48.72257" lon="2.49801">
        <ele>93.4</ele>
        <time>2021-05-05T09:49:36Z</time>
      </trkpt>
      <trkpt lat="48.72257" lon="2.49793">
        <ele>93.3</ele>
        <time>2021-05-05T09:49:40Z</time>
      </trkpt>
      <trkpt lat="48.72258" lon="2.49785">
        <ele>93.2</ele>
        <time>2021-05-05T09:49:44Z</time>
      </trkpt>
      <trkpt lat="48.72257" lon="2.49778">
        <ele>93.2</ele>
        <time>2021-05-05T09:49:48Z</time>
      </trkpt>
      <trkpt lat="48.72256" lon="2.4977">
        <ele>93.1</ele>
        <time>2021-05-05T09:49:52Z</time>
      </trkpt>
      <trkpt lat="48.72257" lon="2.49763">
        <ele>93</ele>
        <time>2021-05-05T09:49:57Z</time>
      </trkpt>
      <trkpt lat="48.72257" lon="2.49755">
        <ele>93</ele>
        <time>2021-05-05T09:50:01Z</time>
      </trkpt>
      <trkpt lat="48.72257" lon="2.49747">
        <ele>92.9</ele>
        <time>2021-05-05T09:50:06Z</time>
      </trkpt>
      <trkpt lat="48.72257" lon="2.49739">
        <ele>92.9</ele>
        <time>2021-05-05T09:50:10Z</time>
      </trkpt>
      <trkpt lat="48.72258" lon="2.49732">
        <ele>92.8</ele>
        <time>2021-05-05T09:50:14Z</time>
      </trkpt>
      <trkpt lat="48.72258" lon="2.49724">
        <ele>92.8</ele>
        <time>2021-05-05T09:50:19Z</time>
      </trkpt>
      <trkpt lat="48.72258" lon="2.49717">
        <ele>92.7</ele>
        <time>2021-05-05T09:50:22Z</time>
      </trkpt>
      <trkpt lat="48.72259" lon="2.49709">
        <ele>92.7</ele>
        <time>2021-05-05T09:50:27Z</time>
      </trkpt>
      <trkpt lat="48.7226" lon="2.49701">
        <ele>92.6</ele>
        <time>2021-05-05T09:50:31Z</time>
      </trkpt>
      <trkpt lat="48.7226" lon="2.49694">
        <ele>92.6</ele>
        <time>2021-05-05T09:50:36Z</time>
      </trkpt>
      <trkpt lat="48.72255" lon="2.49692">
        <ele>92.5</ele>
        <time>2021-05-05T09:50:42Z</time>
      </trkpt>
      <trkpt lat="48.7225" lon="2.4969">
        <ele>92.5</ele>
        <time>2021-05-05T09:50:46Z</time>
      </trkpt>
      <trkpt lat="48.72245" lon="2.49689">
        <ele>92.5</ele>
        <time>2021-05-05T09:50:50Z</time>
      </trkpt>
      <trkpt lat="48.72241" lon="2.49686">
        <ele>92.4</ele>
        <time>2021-05-05T09:50:54Z</time>
      </trkpt>
      <trkpt lat="48.72236" lon="2.49683">
        <ele>92.4</ele>
        <time>2021-05-05T09:50:58Z</time>
      </trkpt>
      <trkpt lat="48.72231" lon="2.49679">
        <ele>92.4</ele>
        <time>2021-05-05T09:51:02Z</time>
      </trkpt>
      <trkpt lat="48.72227" lon="2.49675">
        <ele>92.4</ele>
        <time>2021-05-05T09:51:07Z</time>
      </trkpt>
      <trkpt lat="48.72223" lon="2.49672">
        <ele>92.3</ele>
        <time>2021-05-05T09:51:11Z</time>
      </trkpt>
      <trkpt lat="48.72218" lon="2.4967">
        <ele>92.3</ele>
        <time>2021-05-05T09:51:17Z</time>
      </trkpt>
      <trkpt lat="48.72214" lon="2.49664">
        <ele>92.2</ele>
        <time>2021-05-05T09:51:24Z</time>
      </trkpt>
      <trkpt lat="48.72214" lon="2.49656">
        <ele>92.2</ele>
        <time>2021-05-05T09:51:30Z</time>
      </trkpt>
      <trkpt lat="48.72215" lon="2.49649">
        <ele>92.1</ele>
        <time>2021-05-05T09:51:34Z</time>
      </trkpt>
      <trkpt lat="48.72214" lon="2.49641">
        <ele>92.1</ele>
        <time>2021-05-05T09:51:38Z</time>
      </trkpt>
      <trkpt lat="48.72214" lon="2.49632">
        <ele>92.1</ele>
        <time>2021-05-05T09:51:41Z</time>
      </trkpt>
      <trkpt lat="48.72214" lon="2.49624">
        <ele>92</ele>
        <time>2021-05-05T09:51:44Z</time>
      </trkpt>
      <trkpt lat="48.72214" lon="2.49617">
        <ele>92</ele>
        <time>2021-05-05T09:51:48Z</time>
      </trkpt>
      <trkpt lat="48.72213" lon="2.4961">
        <ele>91.9</ele>
        <time>2021-05-05T09:51:52Z</time>
      </trkpt>
      <trkpt lat="48.72211" lon="2.49603">
        <ele>91.9</ele>
        <time>2021-05-05T09:51:56Z</time>
      </trkpt>
      <trkpt lat="48.72213" lon="2.49595">
        <ele>91.8</ele>
        <time>2021-05-05T09:52:03Z</time>
      </trkpt>
      <trkpt lat="48.7221" lon="2.49589">
        <ele>91.8</ele>
        <time>2021-05-05T09:52:07Z</time>
      </trkpt>
      <trkpt lat="48.72207" lon="2.49583">
        <ele>91.7</ele>
        <time>2021-05-05T09:52:15Z</time>
      </trkpt>
      <trkpt lat="48.72209" lon="2.49575">
        <ele>91.7</ele>
        <time>2021-05-05T09:52:20Z</time>
      </trkpt>
      <trkpt lat="48.7221" lon="2.49568">
        <ele>91.7</ele>
        <time>2021-05-05T09:52:24Z</time>
      </trkpt>
      <trkpt lat="48.72211" lon="2.4956">
        <ele>91.6</ele>
        <time>2021-05-05T09:52:28Z</time>
      </trkpt>
      <trkpt lat="48.7221" lon="2.49553">
        <ele>91.6</ele>
        <time>2021-05-05T09:52:31Z</time>
      </trkpt>
      <trkpt lat="48.7221" lon="2.49545">
        <ele>91.6</ele>
        <time>2021-05-05T09:52:35Z</time>
      </trkpt>
      <trkpt lat="48.72209" lon="2.49537">
        <ele>91.5</ele>
        <time>2021-05-05T09:52:40Z</time>
      </trkpt>
      <trkpt lat="48.72208" lon="2.4953">
        <ele>91.5</ele>
        <time>2021-05-05T09:52:43Z</time>
      </trkpt>
      <trkpt lat="48.72209" lon="2.49521">
        <ele>91.5</ele>
        <time>2021-05-05T09:52:47Z</time>
      </trkpt>
      <trkpt lat="48.72209" lon="2.49514">
        <ele>91.5</ele>
        <time>2021-05-05T09:52:51Z</time>
      </trkpt>
      <trkpt lat="48.72211" lon="2.49507">
        <ele>91.4</ele>
        <time>2021-05-05T09:52:57Z</time>
      </trkpt>
      <trkpt lat="48.72212" lon="2.495">
        <ele>91.4</ele>
        <time>2021-05-05T09:53:02Z</time>
      </trkpt>
      <trkpt lat="48.72212" lon="2.4949">
        <ele>91.4</ele>
        <time>2021-05-05T09:53:06Z</time>
      </trkpt>
      <trkpt lat="48.72212" lon="2.49483">
        <ele>91.3</ele>
        <time>2021-05-05T09:53:11Z</time>
      </trkpt>
      <trkpt lat="48.72215" lon="2.49475">
        <ele>91.3</ele>
        <time>2021-05-05T09:53:16Z</time>
      </trkpt>
      <trkpt lat="48.72217" lon="2.49468">
        <ele>91.3</ele>
        <time>2021-05-05T09:53:23Z</time>
      </trkpt>
      <trkpt lat="48.72217" lon="2.49461">
        <ele>91.3</ele>
        <time>2021-05-05T09:53:28Z</time>
      </trkpt>
      <trkpt lat="48.72218" lon="2.49455">
        <ele>91.3</ele>
        <time>2021-05-05T09:53:34Z</time>
      </trkpt>
      <trkpt lat="48.7222" lon="2.49447">
        <ele>91.2</ele>
        <time>2021-05-05T09:53:38Z</time>
      </trkpt>
      <trkpt lat="48.72221" lon="2.49437">
        <ele>91.2</ele>
        <time>2021-05-05T09:53:41Z</time>
      </trkpt>
      <trkpt lat="48.72219" lon="2.49427">
        <ele>91.2</ele>
        <time>2021-05-05T09:53:43Z</time>
      </trkpt>
      <trkpt lat="48.72216" lon="2.49419">
        <ele>91.2</ele>
        <time>2021-05-05T09:53:46Z</time>
      </trkpt>
      <trkpt lat="48.72215" lon="2.49411">
        <ele>91.2</ele>
        <time>2021-05-05T09:53:48Z</time>
      </trkpt>
      <trkpt lat="48.72214" lon="2.49402">
        <ele>91.2</ele>
        <time>2021-05-05T09:53:51Z</time>
      </trkpt>
      <trkpt lat="48.72213" lon="2.49395">
        <ele>91.1</ele>
        <time>2021-05-05T09:53:56Z</time>
      </trkpt>
      <trkpt lat="48.72214" lon="2.49387">
        <ele>91.1</ele>
        <time>2021-05-05T09:54:01Z</time>
      </trkpt>
      <trkpt lat="48.72215" lon="2.4938">
        <ele>91</ele>
        <time>2021-05-05T09:54:10Z</time>
      </trkpt>
      <trkpt lat="48.72215" lon="2.49371">
        <ele>91</ele>
        <time>2021-05-05T09:54:14Z</time>
      </trkpt>
      <trkpt lat="48.72215" lon="2.49362">
        <ele>91</ele>
        <time>2021-05-05T09:54:17Z</time>
      </trkpt>
      <trkpt lat="48.72213" lon="2.49355">
        <ele>91</ele>
        <time>2021-05-05T09:54:20Z</time>
      </trkpt>
      <trkpt lat="48.72211" lon="2.49348">
        <ele>91</ele>
        <time>2021-05-05T09:54:23Z</time>
      </trkpt>
      <trkpt lat="48.7221" lon="2.49339">
        <ele>90.9</ele>
        <time>2021-05-05T09:54:27Z</time>
      </trkpt>
      <trkpt lat="48.7221" lon="2.49331">
        <ele>90.9</ele>
        <time>2021-05-05T09:54:30Z</time>
      </trkpt>
      <trkpt lat="48.7221" lon="2.49324">
        <ele>90.9</ele>
        <time>2021-05-05T09:54:34Z</time>
      </trkpt>
      <trkpt lat="48.72215" lon="2.4932">
        <ele>90.8</ele>
        <time>2021-05-05T09:54:40Z</time>
      </trkpt>
      <trkpt lat="48.72216" lon="2.49314">
        <ele>90.8</ele>
        <time>2021-05-05T09:54:45Z</time>
      </trkpt>
      <trkpt lat="48.72216" lon="2.49305">
        <ele>90.7</ele>
        <time>2021-05-05T09:54:50Z</time>
      </trkpt>
      <trkpt lat="48.72214" lon="2.49292">
        <ele>90.7</ele>
        <time>2021-05-05T09:54:53Z</time>
      </trkpt>
      <trkpt lat="48.72213" lon="2.49282">
        <ele>90.7</ele>
        <time>2021-05-05T09:54:56Z</time>
      </trkpt>
      <trkpt lat="48.72212" lon="2.49275">
        <ele>90.6</ele>
        <time>2021-05-05T09:54:59Z</time>
      </trkpt>
      <trkpt lat="48.72211" lon="2.49268">
        <ele>90.6</ele>
        <time>2021-05-05T09:55:04Z</time>
      </trkpt>
      <trkpt lat="48.72211" lon="2.4926">
        <ele>90.5</ele>
        <time>2021-05-05T09:55:09Z</time>
      </trkpt>
      <trkpt lat="48.72212" lon="2.49252">
        <ele>90.5</ele>
        <time>2021-05-05T09:55:14Z</time>
      </trkpt>
      <trkpt lat="48.72212" lon="2.49243">
        <ele>90.5</ele>
        <time>2021-05-05T09:55:18Z</time>
      </trkpt>
      <trkpt lat="48.72212" lon="2.49235">
        <ele>90.5</ele>
        <time>2021-05-05T09:55:22Z</time>
      </trkpt>
      <trkpt lat="48.72211" lon="2.49227">
        <ele>90.4</ele>
        <time>2021-05-05T09:55:28Z</time>
      </trkpt>
      <trkpt lat="48.72212" lon="2.49219">
        <ele>90.4</ele>
        <time>2021-05-05T09:55:31Z</time>
      </trkpt>
      <trkpt lat="48.72212" lon="2.49211">
        <ele>90.4</ele>
        <time>2021-05-05T09:55:36Z</time>
      </trkpt>
      <trkpt lat="48.72212" lon="2.49204">
        <ele>90.4</ele>
        <time>2021-05-05T09:55:42Z</time>
      </trkpt>
      <trkpt lat="48.72212" lon="2.49196">
        <ele>90.4</ele>
        <time>2021-05-05T09:55:49Z</time>
      </trkpt>
      <trkpt lat="48.72211" lon="2.49189">
        <ele>90.3</ele>
        <time>2021-05-05T09:55:52Z</time>
      </trkpt>
      <trkpt lat="48.7221" lon="2.49182">
        <ele>90.3</ele>
        <time>2021-05-05T09:55:56Z</time>
      </trkpt>
      <trkpt lat="48.72211" lon="2.49174">
        <ele>90.3</ele>
        <time>2021-05-05T09:56:00Z</time>
      </trkpt>
      <trkpt lat="48.7221" lon="2.49165">
        <ele>90.3</ele>
        <time>2021-05-05T09:56:04Z</time>
      </trkpt>
      <trkpt lat="48.72211" lon="2.49158">
        <ele>90.3</ele>
        <time>2021-05-05T09:56:09Z</time>
      </trkpt>
      <trkpt lat="48.72211" lon="2.49151">
        <ele>90.3</ele>
        <time>2021-05-05T09:56:13Z</time>
      </trkpt>
      <trkpt lat="48.72211" lon="2.49142">
        <ele>90.3</ele>
        <time>2021-05-05T09:56:17Z</time>
      </trkpt>
      <trkpt lat="48.72212" lon="2.49135">
        <ele>90.3</ele>
        <time>2021-05-05T09:56:21Z</time>
      </trkpt>
      <trkpt lat="48.72212" lon="2.49126">
        <ele>90.4</ele>
        <time>2021-05-05T09:56:26Z</time>
      </trkpt>
      <trkpt lat="48.72213" lon="2.49119">
        <ele>90.4</ele>
        <time>2021-05-05T09:56:32Z</time>
      </trkpt>
      <trkpt lat="48.72211" lon="2.4911">
        <ele>90.4</ele>
        <time>2021-05-05T09:56:39Z</time>
      </trkpt>
      <trkpt lat="48.72211" lon="2.49102">
        <ele>90.4</ele>
        <time>2021-05-05T09:56:43Z</time>
      </trkpt>
      <trkpt lat="48.72211" lon="2.49095">
        <ele>90.4</ele>
        <time>2021-05-05T09:56:47Z</time>
      </trkpt>
      <trkpt lat="48.72213" lon="2.49087">
        <ele>90.5</ele>
        <time>2021-05-05T09:56:52Z</time>
      </trkpt>
      <trkpt lat="48.72212" lon="2.49079">
        <ele>90.5</ele>
        <time>2021-05-05T09:56:57Z</time>
      </trkpt>
      <trkpt lat="48.72212" lon="2.49071">
        <ele>90.5</ele>
        <time>2021-05-05T09:57:02Z</time>
      </trkpt>
      <trkpt lat="48.72212" lon="2.49065">
        <ele>90.5</ele>
        <time>2021-05-05T09:57:06Z</time>
      </trkpt>
      <trkpt lat="48.72212" lon="2.49058">
        <ele>90.5</ele>
        <time>2021-05-05T09:57:11Z</time>
      </trkpt>
      <trkpt lat="48.72211" lon="2.4905">
        <ele>90.5</ele>
        <time>2021-05-05T09:57:15Z</time>
      </trkpt>
      <trkpt lat="48.7221" lon="2.49043">
        <ele>90.5</ele>
        <time>2021-05-05T09:57:20Z</time>
      </trkpt>
      <trkpt lat="48.72211" lon="2.49033">
        <ele>90.5</ele>
        <time>2021-05-05T09:57:27Z</time>
      </trkpt>
      <trkpt lat="48.72211" lon="2.49025">
        <ele>90.5</ele>
        <time>2021-05-05T09:57:32Z</time>
      </trkpt>
      <trkpt lat="48.72212" lon="2.49017">
        <ele>90.5</ele>
        <time>2021-05-05T09:57:34Z</time>
      </trkpt>
      <trkpt lat="48.72208" lon="2.49013">
        <ele>90.5</ele>
        <time>2021-05-05T09:57:38Z</time>
      </trkpt>
      <trkpt lat="48.72203" lon="2.49012">
        <ele>90.5</ele>
        <time>2021-05-05T09:57:44Z</time>
      </trkpt>
      <trkpt lat="48.72199" lon="2.49011">
        <ele>90.6</ele>
        <time>2021-05-05T09:57:58Z</time>
      </trkpt>
      <trkpt lat="48.72196" lon="2.49006">
        <ele>90.6</ele>
        <time>2021-05-05T09:58:04Z</time>
      </trkpt>
      <trkpt lat="48.72201" lon="2.49001">
        <ele>90.6</ele>
        <time>2021-05-05T09:58:10Z</time>
      </trkpt>
      <trkpt lat="48.72206" lon="2.48997">
        <ele>90.6</ele>
        <time>2021-05-05T09:58:12Z</time>
      </trkpt>
      <trkpt lat="48.72214" lon="2.48996">
        <ele>90.6</ele>
        <time>2021-05-05T09:58:32Z</time>
      </trkpt>
      <trkpt lat="48.72213" lon="2.48987">
        <ele>90.6</ele>
        <time>2021-05-05T09:58:36Z</time>
      </trkpt>
      <trkpt lat="48.72215" lon="2.4898">
        <ele>90.6</ele>
        <time>2021-05-05T09:58:39Z</time>
      </trkpt>
      <trkpt lat="48.72212" lon="2.48976">
        <ele>90.6</ele>
        <time>2021-05-05T09:58:46Z</time>
      </trkpt>
      <trkpt lat="48.72211" lon="2.48966">
        <ele>90.6</ele>
        <time>2021-05-05T09:58:48Z</time>
      </trkpt>
      <trkpt lat="48.7221" lon="2.48956">
        <ele>90.6</ele>
        <time>2021-05-05T09:58:51Z</time>
      </trkpt>
      <trkpt lat="48.7221" lon="2.48949">
        <ele>90.6</ele>
        <time>2021-05-05T09:58:54Z</time>
      </trkpt>
      <trkpt lat="48.72209" lon="2.48941">
        <ele>90.6</ele>
        <time>2021-05-05T09:58:57Z</time>
      </trkpt>
      <trkpt lat="48.7221" lon="2.48933">
        <ele>90.6</ele>
        <time>2021-05-05T09:59:01Z</time>
      </trkpt>
      <trkpt lat="48.72209" lon="2.48925">
        <ele>90.6</ele>
        <time>2021-05-05T09:59:04Z</time>
      </trkpt>
      <trkpt lat="48.72209" lon="2.48916">
        <ele>90.6</ele>
        <time>2021-05-05T09:59:08Z</time>
      </trkpt>
      <trkpt lat="48.72209" lon="2.48908">
        <ele>90.6</ele>
        <time>2021-05-05T09:59:14Z</time>
      </trkpt>
      <trkpt lat="48.72209" lon="2.48901">
        <ele>90.6</ele>
        <time>2021-05-05T09:59:20Z</time>
      </trkpt>
      <trkpt lat="48.72208" lon="2.48894">
        <ele>90.6</ele>
        <time>2021-05-05T09:59:25Z</time>
      </trkpt>
      <trkpt lat="48.72208" lon="2.48885">
        <ele>90.6</ele>
        <time>2021-05-05T09:59:28Z</time>
      </trkpt>
      <trkpt lat="48.72211" lon="2.48873">
        <ele>90.6</ele>
        <time>2021-05-05T09:59:31Z</time>
      </trkpt>
      <trkpt lat="48.72214" lon="2.48866">
        <ele>90.6</ele>
        <time>2021-05-05T09:59:34Z</time>
      </trkpt>
      <trkpt lat="48.7221" lon="2.48858">
        <ele>90.6</ele>
        <time>2021-05-05T09:59:39Z</time>
      </trkpt>
      <trkpt lat="48.72211" lon="2.48851">
        <ele>90.6</ele>
        <time>2021-05-05T09:59:42Z</time>
      </trkpt>
      <trkpt lat="48.72211" lon="2.48844">
        <ele>90.6</ele>
        <time>2021-05-05T09:59:45Z</time>
      </trkpt>
      <trkpt lat="48.72211" lon="2.48836">
        <ele>90.6</ele>
        <time>2021-05-05T09:59:47Z</time>
      </trkpt>
      <trkpt lat="48.72211" lon="2.48828">
        <ele>90.6</ele>
        <time>2021-05-05T09:59:50Z</time>
      </trkpt>
      <trkpt lat="48.72212" lon="2.48819">
        <ele>90.5</ele>
        <time>2021-05-05T09:59:55Z</time>
      </trkpt>
      <trkpt lat="48.72212" lon="2.4881">
        <ele>90.5</ele>
        <time>2021-05-05T09:59:58Z</time>
      </trkpt>
      <trkpt lat="48.7221" lon="2.48802">
        <ele>90.5</ele>
        <time>2021-05-05T10:00:01Z</time>
      </trkpt>
      <trkpt lat="48.72211" lon="2.48793">
        <ele>90.5</ele>
        <time>2021-05-05T10:00:03Z</time>
      </trkpt>
      <trkpt lat="48.72215" lon="2.48789">
        <ele>90.5</ele>
        <time>2021-05-05T10:00:09Z</time>
      </trkpt>
      <trkpt lat="48.72215" lon="2.4878">
        <ele>90.4</ele>
        <time>2021-05-05T10:00:13Z</time>
      </trkpt>
      <trkpt lat="48.72217" lon="2.48774">
        <ele>90.4</ele>
        <time>2021-05-05T10:00:19Z</time>
      </trkpt>
      <trkpt lat="48.72216" lon="2.48767">
        <ele>90.4</ele>
        <time>2021-05-05T10:00:23Z</time>
      </trkpt>
      <trkpt lat="48.72216" lon="2.48757">
        <ele>90.3</ele>
        <time>2021-05-05T10:00:26Z</time>
      </trkpt>
      <trkpt lat="48.72217" lon="2.48747">
        <ele>90.3</ele>
        <time>2021-05-05T10:00:29Z</time>
      </trkpt>
      <trkpt lat="48.72214" lon="2.48738">
        <ele>90.3</ele>
        <time>2021-05-05T10:00:32Z</time>
      </trkpt>
      <trkpt lat="48.72211" lon="2.48729">
        <ele>90.3</ele>
        <time>2021-05-05T10:00:35Z</time>
      </trkpt>
      <trkpt lat="48.72209" lon="2.48723">
        <ele>90.2</ele>
        <time>2021-05-05T10:00:37Z</time>
      </trkpt>
      <trkpt lat="48.72208" lon="2.48716">
        <ele>90.2</ele>
        <time>2021-05-05T10:00:39Z</time>
      </trkpt>
      <trkpt lat="48.72206" lon="2.48708">
        <ele>90.2</ele>
        <time>2021-05-05T10:00:43Z</time>
      </trkpt>
      <trkpt lat="48.72209" lon="2.48702">
        <ele>90.2</ele>
        <time>2021-05-05T10:00:47Z</time>
      </trkpt>
      <trkpt lat="48.72214" lon="2.48703">
        <ele>90.2</ele>
        <time>2021-05-05T10:00:51Z</time>
      </trkpt>
      <trkpt lat="48.72214" lon="2.48695">
        <ele>90.2</ele>
        <time>2021-05-05T10:00:54Z</time>
      </trkpt>
      <trkpt lat="48.72212" lon="2.48688">
        <ele>90.1</ele>
        <time>2021-05-05T10:00:59Z</time>
      </trkpt>
      <trkpt lat="48.7221" lon="2.48679">
        <ele>90.1</ele>
        <time>2021-05-05T10:01:02Z</time>
      </trkpt>
      <trkpt lat="48.72211" lon="2.4867">
        <ele>90.1</ele>
        <time>2021-05-05T10:01:09Z</time>
      </trkpt>
      <trkpt lat="48.7221" lon="2.48661">
        <ele>90.1</ele>
        <time>2021-05-05T10:01:12Z</time>
      </trkpt>
      <trkpt lat="48.7221" lon="2.48654">
        <ele>90.1</ele>
        <time>2021-05-05T10:01:19Z</time>
      </trkpt>
      <trkpt lat="48.72212" lon="2.48647">
        <ele>90.1</ele>
        <time>2021-05-05T10:01:22Z</time>
      </trkpt>
      <trkpt lat="48.72215" lon="2.48639">
        <ele>90.1</ele>
        <time>2021-05-05T10:01:25Z</time>
      </trkpt>
      <trkpt lat="48.72214" lon="2.48631">
        <ele>90.2</ele>
        <time>2021-05-05T10:01:33Z</time>
      </trkpt>
      <trkpt lat="48.72212" lon="2.48624">
        <ele>90.2</ele>
        <time>2021-05-05T10:01:39Z</time>
      </trkpt>
      <trkpt lat="48.72208" lon="2.48619">
        <ele>90.2</ele>
        <time>2021-05-05T10:01:42Z</time>
      </trkpt>
      <trkpt lat="48.72207" lon="2.4861">
        <ele>90.2</ele>
        <time>2021-05-05T10:01:45Z</time>
      </trkpt>
      <trkpt lat="48.72204" lon="2.48603">
        <ele>90.2</ele>
        <time>2021-05-05T10:01:50Z</time>
      </trkpt>
      <trkpt lat="48.72208" lon="2.48595">
        <ele>90.2</ele>
        <time>2021-05-05T10:01:57Z</time>
      </trkpt>
      <trkpt lat="48.72213" lon="2.48594">
        <ele>90.2</ele>
        <time>2021-05-05T10:02:00Z</time>
      </trkpt>
      <trkpt lat="48.72216" lon="2.48586">
        <ele>90.2</ele>
        <time>2021-05-05T10:02:05Z</time>
      </trkpt>
      <trkpt lat="48.72213" lon="2.4858">
        <ele>90.2</ele>
        <time>2021-05-05T10:02:08Z</time>
      </trkpt>
      <trkpt lat="48.7221" lon="2.48573">
        <ele>90.2</ele>
        <time>2021-05-05T10:02:14Z</time>
      </trkpt>
      <trkpt lat="48.72207" lon="2.48566">
        <ele>90.1</ele>
        <time>2021-05-05T10:02:17Z</time>
      </trkpt>
      <trkpt lat="48.72204" lon="2.48555">
        <ele>90.1</ele>
        <time>2021-05-05T10:02:20Z</time>
      </trkpt>
      <trkpt lat="48.72206" lon="2.48549">
        <ele>90.1</ele>
        <time>2021-05-05T10:02:25Z</time>
      </trkpt>
      <trkpt lat="48.72207" lon="2.48539">
        <ele>90</ele>
        <time>2021-05-05T10:02:34Z</time>
      </trkpt>
      <trkpt lat="48.7221" lon="2.48531">
        <ele>90</ele>
        <time>2021-05-05T10:02:37Z</time>
      </trkpt>
      <trkpt lat="48.72214" lon="2.48523">
        <ele>89.9</ele>
        <time>2021-05-05T10:02:40Z</time>
      </trkpt>
      <trkpt lat="48.72218" lon="2.48519">
        <ele>89.9</ele>
        <time>2021-05-05T10:02:42Z</time>
      </trkpt>
      <trkpt lat="48.72215" lon="2.48512">
        <ele>89.9</ele>
        <time>2021-05-05T10:02:48Z</time>
      </trkpt>
      <trkpt lat="48.7221" lon="2.48506">
        <ele>89.8</ele>
        <time>2021-05-05T10:02:52Z</time>
      </trkpt>
      <trkpt lat="48.7221" lon="2.48499">
        <ele>89.8</ele>
        <time>2021-05-05T10:02:56Z</time>
      </trkpt>
      <trkpt lat="48.72206" lon="2.48493">
        <ele>89.7</ele>
        <time>2021-05-05T10:03:04Z</time>
      </trkpt>
      <trkpt lat="48.72208" lon="2.48487">
        <ele>89.6</ele>
        <time>2021-05-05T10:03:08Z</time>
      </trkpt>
      <trkpt lat="48.72209" lon="2.4848">
        <ele>89.6</ele>
        <time>2021-05-05T10:03:14Z</time>
      </trkpt>
      <trkpt lat="48.72207" lon="2.48474">
        <ele>89.5</ele>
        <time>2021-05-05T10:03:18Z</time>
      </trkpt>
      <trkpt lat="48.72209" lon="2.48467">
        <ele>89.5</ele>
        <time>2021-05-05T10:03:21Z</time>
      </trkpt>
      <trkpt lat="48.72214" lon="2.48466">
        <ele>89.4</ele>
        <time>2021-05-05T10:03:27Z</time>
      </trkpt>
      <trkpt lat="48.72215" lon="2.48457">
        <ele>89.4</ele>
        <time>2021-05-05T10:03:31Z</time>
      </trkpt>
      <trkpt lat="48.72211" lon="2.48452">
        <ele>89.4</ele>
        <time>2021-05-05T10:03:34Z</time>
      </trkpt>
      <trkpt lat="48.72212" lon="2.48445">
        <ele>89.3</ele>
        <time>2021-05-05T10:03:42Z</time>
      </trkpt>
      <trkpt lat="48.7221" lon="2.48437">
        <ele>89.2</ele>
        <time>2021-05-05T10:03:46Z</time>
      </trkpt>
      <trkpt lat="48.72212" lon="2.48428">
        <ele>89.2</ele>
        <time>2021-05-05T10:03:52Z</time>
      </trkpt>
      <trkpt lat="48.72215" lon="2.4842">
        <ele>89.1</ele>
        <time>2021-05-05T10:03:55Z</time>
      </trkpt>
      <trkpt lat="48.72215" lon="2.48411">
        <ele>89.1</ele>
        <time>2021-05-05T10:03:59Z</time>
      </trkpt>
      <trkpt lat="48.72212" lon="2.48403">
        <ele>89</ele>
        <time>2021-05-05T10:04:03Z</time>
      </trkpt>
      <trkpt lat="48.72206" lon="2.48395">
        <ele>89</ele>
        <time>2021-05-05T10:04:06Z</time>
      </trkpt>
      <trkpt lat="48.72204" lon="2.48388">
        <ele>88.9</ele>
        <time>2021-05-05T10:04:08Z</time>
      </trkpt>
      <trkpt lat="48.72202" lon="2.48379">
        <ele>88.9</ele>
        <time>2021-05-05T10:04:12Z</time>
      </trkpt>
      <trkpt lat="48.72206" lon="2.48376">
        <ele>88.8</ele>
        <time>2021-05-05T10:04:17Z</time>
      </trkpt>
      <trkpt lat="48.72208" lon="2.4837">
        <ele>88.8</ele>
        <time>2021-05-05T10:04:23Z</time>
      </trkpt>
      <trkpt lat="48.7221" lon="2.48361">
        <ele>88.9</ele>
        <time>2021-05-05T10:04:26Z</time>
      </trkpt>
      <trkpt lat="48.7221" lon="2.48353">
        <ele>88.9</ele>
        <time>2021-05-05T10:04:34Z</time>
      </trkpt>
      <trkpt lat="48.72211" lon="2.48345">
        <ele>88.9</ele>
        <time>2021-05-05T10:04:40Z</time>
      </trkpt>
      <trkpt lat="48.7221" lon="2.48338">
        <ele>88.9</ele>
        <time>2021-05-05T10:04:45Z</time>
      </trkpt>
      <trkpt lat="48.72211" lon="2.48331">
        <ele>88.9</ele>
        <time>2021-05-05T10:04:49Z</time>
      </trkpt>
      <trkpt lat="48.72213" lon="2.48321">
        <ele>88.9</ele>
        <time>2021-05-05T10:04:52Z</time>
      </trkpt>
      <trkpt lat="48.72215" lon="2.48311">
        <ele>88.9</ele>
        <time>2021-05-05T10:04:54Z</time>
      </trkpt>
      <trkpt lat="48.72213" lon="2.48304">
        <ele>88.9</ele>
        <time>2021-05-05T10:04:57Z</time>
      </trkpt>
      <trkpt lat="48.72209" lon="2.48298">
        <ele>88.9</ele>
        <time>2021-05-05T10:05:01Z</time>
      </trkpt>
      <trkpt lat="48.72208" lon="2.4829">
        <ele>88.9</ele>
        <time>2021-05-05T10:05:10Z</time>
      </trkpt>
      <trkpt lat="48.7221" lon="2.48283">
        <ele>88.9</ele>
        <time>2021-05-05T10:05:16Z</time>
      </trkpt>
      <trkpt lat="48.72209" lon="2.48276">
        <ele>88.9</ele>
        <time>2021-05-05T10:05:19Z</time>
      </trkpt>
      <trkpt lat="48.72207" lon="2.48269">
        <ele>89.3</ele>
        <time>2021-05-05T10:05:32Z</time>
      </trkpt>
      <trkpt lat="48.72208" lon="2.48262">
        <ele>89.4</ele>
        <time>2021-05-05T10:05:37Z</time>
      </trkpt>
      <trkpt lat="48.72205" lon="2.48256">
        <ele>89.6</ele>
        <time>2021-05-05T10:05:46Z</time>
      </trkpt>
      <trkpt lat="48.72206" lon="2.48242">
        <ele>89.6</ele>
        <time>2021-05-05T10:05:49Z</time>
      </trkpt>
      <trkpt lat="48.72208" lon="2.48236">
        <ele>89.7</ele>
        <time>2021-05-05T10:05:51Z</time>
      </trkpt>
      <trkpt lat="48.72211" lon="2.48231">
        <ele>89.7</ele>
        <time>2021-05-05T10:05:56Z</time>
      </trkpt>
      <trkpt lat="48.72208" lon="2.48225">
        <ele>89.8</ele>
        <time>2021-05-05T10:06:00Z</time>
      </trkpt>
      <trkpt lat="48.72204" lon="2.48227">
        <ele>89.9</ele>
        <time>2021-05-05T10:06:04Z</time>
      </trkpt>
      <trkpt lat="48.72206" lon="2.48219">
        <ele>89.9</ele>
        <time>2021-05-05T10:06:09Z</time>
      </trkpt>
      <trkpt lat="48.72209" lon="2.48211">
        <ele>89.9</ele>
        <time>2021-05-05T10:06:11Z</time>
      </trkpt>
      <trkpt lat="48.72208" lon="2.48202">
        <ele>89.9</ele>
        <time>2021-05-05T10:06:15Z</time>
      </trkpt>
      <trkpt lat="48.72206" lon="2.48192">
        <ele>89.9</ele>
        <time>2021-05-05T10:06:18Z</time>
      </trkpt>
      <trkpt lat="48.7221" lon="2.48189">
        <ele>90.2</ele>
        <time>2021-05-05T10:06:42Z</time>
      </trkpt>
      <trkpt lat="48.7221" lon="2.48196">
        <ele>90.4</ele>
        <time>2021-05-05T10:06:51Z</time>
      </trkpt>
      <trkpt lat="48.72205" lon="2.48192">
        <ele>90.9</ele>
        <time>2021-05-05T10:07:01Z</time>
      </trkpt>
      <trkpt lat="48.72201" lon="2.48187">
        <ele>91</ele>
        <time>2021-05-05T10:07:04Z</time>
      </trkpt>
      <trkpt lat="48.72198" lon="2.48179">
        <ele>91.2</ele>
        <time>2021-05-05T10:07:07Z</time>
      </trkpt>
      <trkpt lat="48.72194" lon="2.48171">
        <ele>91.3</ele>
        <time>2021-05-05T10:07:10Z</time>
      </trkpt>
      <trkpt lat="48.72192" lon="2.48165">
        <ele>91.5</ele>
        <time>2021-05-05T10:07:13Z</time>
      </trkpt>
      <trkpt lat="48.72187" lon="2.48165">
        <ele>91.8</ele>
        <time>2021-05-05T10:07:19Z</time>
      </trkpt>
      <trkpt lat="48.72182" lon="2.48165">
        <ele>92</ele>
        <time>2021-05-05T10:07:23Z</time>
      </trkpt>
      <trkpt lat="48.72177" lon="2.48161">
        <ele>92.1</ele>
        <time>2021-05-05T10:07:26Z</time>
      </trkpt>
      <trkpt lat="48.72172" lon="2.4816">
        <ele>92.4</ele>
        <time>2021-05-05T10:07:31Z</time>
      </trkpt>
      <trkpt lat="48.72169" lon="2.48154">
        <ele>93.5</ele>
        <time>2021-05-05T10:07:57Z</time>
      </trkpt>
      <trkpt lat="48.72164" lon="2.4815">
        <ele>93.7</ele>
        <time>2021-05-05T10:08:01Z</time>
      </trkpt>
      <trkpt lat="48.7216" lon="2.48146">
        <ele>93.9</ele>
        <time>2021-05-05T10:08:05Z</time>
      </trkpt>
      <trkpt lat="48.72155" lon="2.48144">
        <ele>94.3</ele>
        <time>2021-05-05T10:08:12Z</time>
      </trkpt>
      <trkpt lat="48.72151" lon="2.4814">
        <ele>95</ele>
        <time>2021-05-05T10:08:22Z</time>
      </trkpt>
      <trkpt lat="48.72148" lon="2.48135">
        <ele>96</ele>
        <time>2021-05-05T10:08:46Z</time>
      </trkpt>
      <trkpt lat="48.72143" lon="2.48133">
        <ele>98</ele>
        <time>2021-05-05T10:09:16Z</time>
      </trkpt>
      <trkpt lat="48.7214" lon="2.48127">
        <ele>100.1</ele>
        <time>2021-05-05T10:09:58Z</time>
      </trkpt>
      <trkpt lat="48.72142" lon="2.48121">
        <ele>102.2</ele>
        <time>2021-05-05T10:10:37Z</time>
      </trkpt>
      <trkpt lat="48.72146" lon="2.48115">
        <ele>102.8</ele>
        <time>2021-05-05T10:10:46Z</time>
      </trkpt>
      <trkpt lat="48.72148" lon="2.48109">
        <ele>103.1</ele>
        <time>2021-05-05T10:10:51Z</time>
      </trkpt>
      <trkpt lat="48.72145" lon="2.48099">
        <ele>103.7</ele>
        <time>2021-05-05T10:11:05Z</time>
      </trkpt>
      <trkpt lat="48.72141" lon="2.48093">
        <ele>103.9</ele>
        <time>2021-05-05T10:11:08Z</time>
      </trkpt>
      <trkpt lat="48.72143" lon="2.48085">
        <ele>104.4</ele>
        <time>2021-05-05T10:11:17Z</time>
      </trkpt>
      <trkpt lat="48.72147" lon="2.48076">
        <ele>104.5</ele>
        <time>2021-05-05T10:11:20Z</time>
      </trkpt>
      <trkpt lat="48.7215" lon="2.4807">
        <ele>104.7</ele>
        <time>2021-05-05T10:11:23Z</time>
      </trkpt>
      <trkpt lat="48.72149" lon="2.48063">
        <ele>105.2</ele>
        <time>2021-05-05T10:11:36Z</time>
      </trkpt>
      <trkpt lat="48.72147" lon="2.48057">
        <ele>105.5</ele>
        <time>2021-05-05T10:11:43Z</time>
      </trkpt>
      <trkpt lat="48.72146" lon="2.4805">
        <ele>106.1</ele>
        <time>2021-05-05T10:12:12Z</time>
      </trkpt>
      <trkpt lat="48.72144" lon="2.48044">
        <ele>106.2</ele>
        <time>2021-05-05T10:12:21Z</time>
      </trkpt>
      <trkpt lat="48.72143" lon="2.48037">
        <ele>106.3</ele>
        <time>2021-05-05T10:12:30Z</time>
      </trkpt>
      <trkpt lat="48.72142" lon="2.4803">
        <ele>106.5</ele>
        <time>2021-05-05T10:12:41Z</time>
      </trkpt>
      <trkpt lat="48.7214" lon="2.48023">
        <ele>106.8</ele>
        <time>2021-05-05T10:13:11Z</time>
      </trkpt>
      <trkpt lat="48.72141" lon="2.48015">
        <ele>106.8</ele>
        <time>2021-05-05T10:13:14Z</time>
      </trkpt>
      <trkpt lat="48.72142" lon="2.48008">
        <ele>106.8</ele>
        <time>2021-05-05T10:13:16Z</time>
      </trkpt>
      <trkpt lat="48.72141" lon="2.47999">
        <ele>106.8</ele>
        <time>2021-05-05T10:13:20Z</time>
      </trkpt>
      <trkpt lat="48.72139" lon="2.47992">
        <ele>106.8</ele>
        <time>2021-05-05T10:13:23Z</time>
      </trkpt>
      <trkpt lat="48.72136" lon="2.47984">
        <ele>106.8</ele>
        <time>2021-05-05T10:13:27Z</time>
      </trkpt>
      <trkpt lat="48.72132" lon="2.47978">
        <ele>106.8</ele>
        <time>2021-05-05T10:13:31Z</time>
      </trkpt>
      <trkpt lat="48.7213" lon="2.47968">
        <ele>106.8</ele>
        <time>2021-05-05T10:13:34Z</time>
      </trkpt>
      <trkpt lat="48.72128" lon="2.47961">
        <ele>106.8</ele>
        <time>2021-05-05T10:13:36Z</time>
      </trkpt>
      <trkpt lat="48.72127" lon="2.47955">
        <ele>106.7</ele>
        <time>2021-05-05T10:13:39Z</time>
      </trkpt>
      <trkpt lat="48.72127" lon="2.47946">
        <ele>106.7</ele>
        <time>2021-05-05T10:13:44Z</time>
      </trkpt>
      <trkpt lat="48.72125" lon="2.47938">
        <ele>106.7</ele>
        <time>2021-05-05T10:13:47Z</time>
      </trkpt>
      <trkpt lat="48.72121" lon="2.47929">
        <ele>106.7</ele>
        <time>2021-05-05T10:13:50Z</time>
      </trkpt>
      <trkpt lat="48.72119" lon="2.47922">
        <ele>106.6</ele>
        <time>2021-05-05T10:13:53Z</time>
      </trkpt>
      <trkpt lat="48.72115" lon="2.47916">
        <ele>106.6</ele>
        <time>2021-05-05T10:13:56Z</time>
      </trkpt>
      <trkpt lat="48.72113" lon="2.4791">
        <ele>106.6</ele>
        <time>2021-05-05T10:13:59Z</time>
      </trkpt>
      <trkpt lat="48.72108" lon="2.47904">
        <ele>106.5</ele>
        <time>2021-05-05T10:14:04Z</time>
      </trkpt>
      <trkpt lat="48.72105" lon="2.47899">
        <ele>106.4</ele>
        <time>2021-05-05T10:14:10Z</time>
      </trkpt>
      <trkpt lat="48.72102" lon="2.47892">
        <ele>106.4</ele>
        <time>2021-05-05T10:14:14Z</time>
      </trkpt>
      <trkpt lat="48.721" lon="2.47886">
        <ele>106.3</ele>
        <time>2021-05-05T10:14:20Z</time>
      </trkpt>
      <trkpt lat="48.72098" lon="2.47879">
        <ele>106.3</ele>
        <time>2021-05-05T10:14:25Z</time>
      </trkpt>
      <trkpt lat="48.72095" lon="2.47873">
        <ele>106.2</ele>
        <time>2021-05-05T10:14:29Z</time>
      </trkpt>
      <trkpt lat="48.72091" lon="2.47866">
        <ele>106.2</ele>
        <time>2021-05-05T10:14:33Z</time>
      </trkpt>
      <trkpt lat="48.72087" lon="2.47864">
        <ele>106.2</ele>
        <time>2021-05-05T10:14:37Z</time>
      </trkpt>
      <trkpt lat="48.72082" lon="2.47863">
        <ele>106.1</ele>
        <time>2021-05-05T10:14:45Z</time>
      </trkpt>
      <trkpt lat="48.72078" lon="2.47859">
        <ele>106</ele>
        <time>2021-05-05T10:14:53Z</time>
      </trkpt>
      <trkpt lat="48.72074" lon="2.47852">
        <ele>105.9</ele>
        <time>2021-05-05T10:14:59Z</time>
      </trkpt>
      <trkpt lat="48.72071" lon="2.47846">
        <ele>105.9</ele>
        <time>2021-05-05T10:15:01Z</time>
      </trkpt>
      <trkpt lat="48.72067" lon="2.47841">
        <ele>105.9</ele>
        <time>2021-05-05T10:15:04Z</time>
      </trkpt>
      <trkpt lat="48.72063" lon="2.47832">
        <ele>105.8</ele>
        <time>2021-05-05T10:15:07Z</time>
      </trkpt>
      <trkpt lat="48.72059" lon="2.47825">
        <ele>105.8</ele>
        <time>2021-05-05T10:15:10Z</time>
      </trkpt>
      <trkpt lat="48.72055" lon="2.47818">
        <ele>105.7</ele>
        <time>2021-05-05T10:15:15Z</time>
      </trkpt>
      <trkpt lat="48.72051" lon="2.47814">
        <ele>105.7</ele>
        <time>2021-05-05T10:15:18Z</time>
      </trkpt>
      <trkpt lat="48.72048" lon="2.47808">
        <ele>105.6</ele>
        <time>2021-05-05T10:15:21Z</time>
      </trkpt>
      <trkpt lat="48.72044" lon="2.47803">
        <ele>105.6</ele>
        <time>2021-05-05T10:15:24Z</time>
      </trkpt>
      <trkpt lat="48.7204" lon="2.47799">
        <ele>105.5</ele>
        <time>2021-05-05T10:15:31Z</time>
      </trkpt>
      <trkpt lat="48.72035" lon="2.47798">
        <ele>105.5</ele>
        <time>2021-05-05T10:15:35Z</time>
      </trkpt>
      <trkpt lat="48.72029" lon="2.47799">
        <ele>105.4</ele>
        <time>2021-05-05T10:15:39Z</time>
      </trkpt>
      <trkpt lat="48.72025" lon="2.47799">
        <ele>105.4</ele>
        <time>2021-05-05T10:15:43Z</time>
      </trkpt>
      <trkpt lat="48.7202" lon="2.47797">
        <ele>105.3</ele>
        <time>2021-05-05T10:15:47Z</time>
      </trkpt>
      <trkpt lat="48.72015" lon="2.47797">
        <ele>105.3</ele>
        <time>2021-05-05T10:15:52Z</time>
      </trkpt>
      <trkpt lat="48.72011" lon="2.47796">
        <ele>105.2</ele>
        <time>2021-05-05T10:15:56Z</time>
      </trkpt>
      <trkpt lat="48.72006" lon="2.47799">
        <ele>105.1</ele>
        <time>2021-05-05T10:16:04Z</time>
      </trkpt>
      <trkpt lat="48.72002" lon="2.47802">
        <ele>105</ele>
        <time>2021-05-05T10:16:08Z</time>
      </trkpt>
      <trkpt lat="48.71998" lon="2.47807">
        <ele>104.9</ele>
        <time>2021-05-05T10:16:13Z</time>
      </trkpt>
      <trkpt lat="48.71994" lon="2.47813">
        <ele>104.9</ele>
        <time>2021-05-05T10:16:15Z</time>
      </trkpt>
      <trkpt lat="48.7199" lon="2.47817">
        <ele>104.9</ele>
        <time>2021-05-05T10:16:17Z</time>
      </trkpt>
      <trkpt lat="48.71981" lon="2.47827">
        <ele>104.8</ele>
        <time>2021-05-05T10:16:20Z</time>
      </trkpt>
      <trkpt lat="48.71977" lon="2.4783">
        <ele>104.8</ele>
        <time>2021-05-05T10:16:23Z</time>
      </trkpt>
      <trkpt lat="48.71973" lon="2.47835">
        <ele>104.6</ele>
        <time>2021-05-05T10:16:29Z</time>
      </trkpt>
      <trkpt lat="48.71969" lon="2.47841">
        <ele>104.5</ele>
        <time>2021-05-05T10:16:34Z</time>
      </trkpt>
      <trkpt lat="48.71965" lon="2.47843">
        <ele>104.4</ele>
        <time>2021-05-05T10:16:39Z</time>
      </trkpt>
      <trkpt lat="48.71961" lon="2.47849">
        <ele>104.3</ele>
        <time>2021-05-05T10:16:44Z</time>
      </trkpt>
      <trkpt lat="48.71956" lon="2.47852">
        <ele>104.3</ele>
        <time>2021-05-05T10:16:48Z</time>
      </trkpt>
      <trkpt lat="48.71951" lon="2.47854">
        <ele>104.2</ele>
        <time>2021-05-05T10:16:51Z</time>
      </trkpt>
      <trkpt lat="48.71945" lon="2.47859">
        <ele>104.2</ele>
        <time>2021-05-05T10:16:54Z</time>
      </trkpt>
      <trkpt lat="48.7194" lon="2.4786">
        <ele>104.1</ele>
        <time>2021-05-05T10:16:57Z</time>
      </trkpt>
      <trkpt lat="48.71935" lon="2.47862">
        <ele>104</ele>
        <time>2021-05-05T10:17:01Z</time>
      </trkpt>
      <trkpt lat="48.71929" lon="2.47863">
        <ele>104</ele>
        <time>2021-05-05T10:17:04Z</time>
      </trkpt>
      <trkpt lat="48.71924" lon="2.47863">
        <ele>103.9</ele>
        <time>2021-05-05T10:17:13Z</time>
      </trkpt>
      <trkpt lat="48.7192" lon="2.47864">
        <ele>103.7</ele>
        <time>2021-05-05T10:17:21Z</time>
      </trkpt>
      <trkpt lat="48.71916" lon="2.47868">
        <ele>103.7</ele>
        <time>2021-05-05T10:17:25Z</time>
      </trkpt>
      <trkpt lat="48.71913" lon="2.47874">
        <ele>103.6</ele>
        <time>2021-05-05T10:17:32Z</time>
      </trkpt>
      <trkpt lat="48.7191" lon="2.47879">
        <ele>103.4</ele>
        <time>2021-05-05T10:17:43Z</time>
      </trkpt>
      <trkpt lat="48.71905" lon="2.47881">
        <ele>103.2</ele>
        <time>2021-05-05T10:17:54Z</time>
      </trkpt>
      <trkpt lat="48.719" lon="2.47883">
        <ele>103.1</ele>
        <time>2021-05-05T10:18:01Z</time>
      </trkpt>
      <trkpt lat="48.71897" lon="2.47877">
        <ele>102.9</ele>
        <time>2021-05-05T10:18:15Z</time>
      </trkpt>
      <trkpt lat="48.71892" lon="2.47878">
        <ele>102.7</ele>
        <time>2021-05-05T10:18:26Z</time>
      </trkpt>
      <trkpt lat="48.71886" lon="2.47877">
        <ele>102.6</ele>
        <time>2021-05-05T10:18:30Z</time>
      </trkpt>
      <trkpt lat="48.7188" lon="2.47876">
        <ele>102.6</ele>
        <time>2021-05-05T10:18:32Z</time>
      </trkpt>
      <trkpt lat="48.71875" lon="2.47874">
        <ele>102.5</ele>
        <time>2021-05-05T10:18:35Z</time>
      </trkpt>
      <trkpt lat="48.7187" lon="2.47874">
        <ele>102.5</ele>
        <time>2021-05-05T10:18:38Z</time>
      </trkpt>
      <trkpt lat="48.71866" lon="2.47872">
        <ele>102.4</ele>
        <time>2021-05-05T10:18:42Z</time>
      </trkpt>
      <trkpt lat="48.71862" lon="2.47867">
        <ele>102.3</ele>
        <time>2021-05-05T10:18:46Z</time>
      </trkpt>
      <trkpt lat="48.71857" lon="2.47867">
        <ele>102.2</ele>
        <time>2021-05-05T10:18:49Z</time>
      </trkpt>
      <trkpt lat="48.71851" lon="2.47866">
        <ele>102.2</ele>
        <time>2021-05-05T10:18:52Z</time>
      </trkpt>
      <trkpt lat="48.71846" lon="2.47865">
        <ele>102.1</ele>
        <time>2021-05-05T10:18:55Z</time>
      </trkpt>
      <trkpt lat="48.71842" lon="2.47864">
        <ele>102</ele>
        <time>2021-05-05T10:19:01Z</time>
      </trkpt>
      <trkpt lat="48.71837" lon="2.47863">
        <ele>101.9</ele>
        <time>2021-05-05T10:19:09Z</time>
      </trkpt>
      <trkpt lat="48.71834" lon="2.47858">
        <ele>101.7</ele>
        <time>2021-05-05T10:19:20Z</time>
      </trkpt>
      <trkpt lat="48.71828" lon="2.4786">
        <ele>101.3</ele>
        <time>2021-05-05T10:19:37Z</time>
      </trkpt>
      <trkpt lat="48.71823" lon="2.4786">
        <ele>101.1</ele>
        <time>2021-05-05T10:19:45Z</time>
      </trkpt>
      <trkpt lat="48.71818" lon="2.47863">
        <ele>101</ele>
        <time>2021-05-05T10:19:48Z</time>
      </trkpt>
      <trkpt lat="48.71814" lon="2.47865">
        <ele>100.9</ele>
        <time>2021-05-05T10:19:53Z</time>
      </trkpt>
      <trkpt lat="48.71809" lon="2.47865">
        <ele>100.7</ele>
        <time>2021-05-05T10:19:58Z</time>
      </trkpt>
      <trkpt lat="48.71804" lon="2.47865">
        <ele>100.5</ele>
        <time>2021-05-05T10:20:04Z</time>
      </trkpt>
      <trkpt lat="48.71799" lon="2.47864">
        <ele>100.2</ele>
        <time>2021-05-05T10:20:15Z</time>
      </trkpt>
      <trkpt lat="48.71794" lon="2.47865">
        <ele>99.8</ele>
        <time>2021-05-05T10:20:28Z</time>
      </trkpt>
      <trkpt lat="48.71789" lon="2.47869">
        <ele>99.7</ele>
        <time>2021-05-05T10:20:32Z</time>
      </trkpt>
      <trkpt lat="48.71783" lon="2.4787">
        <ele>99.5</ele>
        <time>2021-05-05T10:20:36Z</time>
      </trkpt>
      <trkpt lat="48.71779" lon="2.47868">
        <ele>98.9</ele>
        <time>2021-05-05T10:20:51Z</time>
      </trkpt>
      <trkpt lat="48.71776" lon="2.47861">
        <ele>98.7</ele>
        <time>2021-05-05T10:20:57Z</time>
      </trkpt>
      <trkpt lat="48.71773" lon="2.47856">
        <ele>98.5</ele>
        <time>2021-05-05T10:21:02Z</time>
      </trkpt>
      <trkpt lat="48.71771" lon="2.47847">
        <ele>98.3</ele>
        <time>2021-05-05T10:21:07Z</time>
      </trkpt>
      <trkpt lat="48.71771" lon="2.4784">
        <ele>98</ele>
        <time>2021-05-05T10:21:14Z</time>
      </trkpt>
      <trkpt lat="48.7177" lon="2.47833">
        <ele>97.8</ele>
        <time>2021-05-05T10:21:19Z</time>
      </trkpt>
      <trkpt lat="48.71769" lon="2.47825">
        <ele>97.6</ele>
        <time>2021-05-05T10:21:23Z</time>
      </trkpt>
      <trkpt lat="48.71769" lon="2.47819">
        <ele>97.4</ele>
        <time>2021-05-05T10:21:27Z</time>
      </trkpt>
      <trkpt lat="48.71769" lon="2.4781">
        <ele>97.2</ele>
        <time>2021-05-05T10:21:32Z</time>
      </trkpt>
      <trkpt lat="48.71768" lon="2.47802">
        <ele>97</ele>
        <time>2021-05-05T10:21:36Z</time>
      </trkpt>
      <trkpt lat="48.71767" lon="2.47792">
        <ele>96.9</ele>
        <time>2021-05-05T10:21:39Z</time>
      </trkpt>
      <trkpt lat="48.71764" lon="2.47784">
        <ele>96.7</ele>
        <time>2021-05-05T10:21:43Z</time>
      </trkpt>
      <trkpt lat="48.71762" lon="2.47778">
        <ele>96.5</ele>
        <time>2021-05-05T10:21:47Z</time>
      </trkpt>
      <trkpt lat="48.7176" lon="2.47771">
        <ele>96.3</ele>
        <time>2021-05-05T10:21:51Z</time>
      </trkpt>
      <trkpt lat="48.71758" lon="2.47765">
        <ele>96.1</ele>
        <time>2021-05-05T10:21:55Z</time>
      </trkpt>
      <trkpt lat="48.71755" lon="2.47759">
        <ele>95.9</ele>
        <time>2021-05-05T10:22:00Z</time>
      </trkpt>
      <trkpt lat="48.71754" lon="2.47752">
        <ele>95.6</ele>
        <time>2021-05-05T10:22:05Z</time>
      </trkpt>
      <trkpt lat="48.71752" lon="2.47745">
        <ele>95.5</ele>
        <time>2021-05-05T10:22:08Z</time>
      </trkpt>
      <trkpt lat="48.71751" lon="2.47738">
        <ele>95.3</ele>
        <time>2021-05-05T10:22:13Z</time>
      </trkpt>
      <trkpt lat="48.7175" lon="2.47731">
        <ele>95</ele>
        <time>2021-05-05T10:22:20Z</time>
      </trkpt>
      <trkpt lat="48.71749" lon="2.47724">
        <ele>94.8</ele>
        <time>2021-05-05T10:22:24Z</time>
      </trkpt>
      <trkpt lat="48.71747" lon="2.47717">
        <ele>94.6</ele>
        <time>2021-05-05T10:22:28Z</time>
      </trkpt>
      <trkpt lat="48.71745" lon="2.4771">
        <ele>94.5</ele>
        <time>2021-05-05T10:22:31Z</time>
      </trkpt>
      <trkpt lat="48.71744" lon="2.47703">
        <ele>94.4</ele>
        <time>2021-05-05T10:22:35Z</time>
      </trkpt>
      <trkpt lat="48.71741" lon="2.47697">
        <ele>94.2</ele>
        <time>2021-05-05T10:22:38Z</time>
      </trkpt>
      <trkpt lat="48.71739" lon="2.4769">
        <ele>94.1</ele>
        <time>2021-05-05T10:22:41Z</time>
      </trkpt>
      <trkpt lat="48.71737" lon="2.47684">
        <ele>94</ele>
        <time>2021-05-05T10:22:44Z</time>
      </trkpt>
      <trkpt lat="48.71734" lon="2.47679">
        <ele>93.7</ele>
        <time>2021-05-05T10:22:51Z</time>
      </trkpt>
      <trkpt lat="48.71732" lon="2.47672">
        <ele>93.4</ele>
        <time>2021-05-05T10:22:57Z</time>
      </trkpt>
      <trkpt lat="48.71728" lon="2.47667">
        <ele>93.2</ele>
        <time>2021-05-05T10:23:01Z</time>
      </trkpt>
      <trkpt lat="48.71724" lon="2.4766">
        <ele>93.1</ele>
        <time>2021-05-05T10:23:05Z</time>
      </trkpt>
      <trkpt lat="48.71723" lon="2.47652">
        <ele>92.8</ele>
        <time>2021-05-05T10:23:11Z</time>
      </trkpt>
      <trkpt lat="48.71721" lon="2.47645">
        <ele>92.6</ele>
        <time>2021-05-05T10:23:16Z</time>
      </trkpt>
      <trkpt lat="48.71722" lon="2.47638">
        <ele>92.4</ele>
        <time>2021-05-05T10:23:21Z</time>
      </trkpt>
      <trkpt lat="48.71722" lon="2.47631">
        <ele>92.2</ele>
        <time>2021-05-05T10:23:25Z</time>
      </trkpt>
      <trkpt lat="48.7172" lon="2.47624">
        <ele>92.1</ele>
        <time>2021-05-05T10:23:29Z</time>
      </trkpt>
      <trkpt lat="48.71716" lon="2.4762">
        <ele>91.9</ele>
        <time>2021-05-05T10:23:33Z</time>
      </trkpt>
      <trkpt lat="48.71714" lon="2.47613">
        <ele>91.7</ele>
        <time>2021-05-05T10:23:40Z</time>
      </trkpt>
      <trkpt lat="48.71711" lon="2.47606">
        <ele>91.5</ele>
        <time>2021-05-05T10:23:45Z</time>
      </trkpt>
      <trkpt lat="48.71707" lon="2.47601">
        <ele>91.3</ele>
        <time>2021-05-05T10:23:52Z</time>
      </trkpt>
      <trkpt lat="48.71704" lon="2.47593">
        <ele>91.1</ele>
        <time>2021-05-05T10:23:57Z</time>
      </trkpt>
      <trkpt lat="48.71702" lon="2.47586">
        <ele>91</ele>
        <time>2021-05-05T10:24:01Z</time>
      </trkpt>
      <trkpt lat="48.71702" lon="2.47578">
        <ele>90.9</ele>
        <time>2021-05-05T10:24:05Z</time>
      </trkpt>
      <trkpt lat="48.71702" lon="2.47571">
        <ele>90.7</ele>
        <time>2021-05-05T10:24:12Z</time>
      </trkpt>
      <trkpt lat="48.71697" lon="2.4757">
        <ele>90.3</ele>
        <time>2021-05-05T10:24:24Z</time>
      </trkpt>
      <trkpt lat="48.71693" lon="2.47573">
        <ele>90.1</ele>
        <time>2021-05-05T10:24:30Z</time>
      </trkpt>
      <trkpt lat="48.71688" lon="2.47578">
        <ele>90</ele>
        <time>2021-05-05T10:24:34Z</time>
      </trkpt>
      <trkpt lat="48.71685" lon="2.47582">
        <ele>89.8</ele>
        <time>2021-05-05T10:24:39Z</time>
      </trkpt>
      <trkpt lat="48.71679" lon="2.47585">
        <ele>89.6</ele>
        <time>2021-05-05T10:24:44Z</time>
      </trkpt>
      <trkpt lat="48.71675" lon="2.47588">
        <ele>89.4</ele>
        <time>2021-05-05T10:24:48Z</time>
      </trkpt>
      <trkpt lat="48.7167" lon="2.4759">
        <ele>89.3</ele>
        <time>2021-05-05T10:24:51Z</time>
      </trkpt>
      <trkpt lat="48.71665" lon="2.47592">
        <ele>89</ele>
        <time>2021-05-05T10:24:58Z</time>
      </trkpt>
      <trkpt lat="48.71665" lon="2.476">
        <ele>88.7</ele>
        <time>2021-05-05T10:25:05Z</time>
      </trkpt>
      <trkpt lat="48.71665" lon="2.47607">
        <ele>88.6</ele>
        <time>2021-05-05T10:25:08Z</time>
      </trkpt>
      <trkpt lat="48.71667" lon="2.47614">
        <ele>88.4</ele>
        <time>2021-05-05T10:25:12Z</time>
      </trkpt>
      <trkpt lat="48.71668" lon="2.47623">
        <ele>88.1</ele>
        <time>2021-05-05T10:25:18Z</time>
      </trkpt>
      <trkpt lat="48.7167" lon="2.47629">
        <ele>88</ele>
        <time>2021-05-05T10:25:21Z</time>
      </trkpt>
      <trkpt lat="48.71672" lon="2.47636">
        <ele>87.8</ele>
        <time>2021-05-05T10:25:25Z</time>
      </trkpt>
      <trkpt lat="48.71674" lon="2.47644">
        <ele>87.7</ele>
        <time>2021-05-05T10:25:29Z</time>
      </trkpt>
      <trkpt lat="48.71676" lon="2.4765">
        <ele>87.6</ele>
        <time>2021-05-05T10:25:33Z</time>
      </trkpt>
      <trkpt lat="48.71679" lon="2.47657">
        <ele>87.4</ele>
        <time>2021-05-05T10:25:38Z</time>
      </trkpt>
      <trkpt lat="48.71682" lon="2.47664">
        <ele>87.2</ele>
        <time>2021-05-05T10:25:43Z</time>
      </trkpt>
      <trkpt lat="48.71684" lon="2.4767">
        <ele>87</ele>
        <time>2021-05-05T10:25:47Z</time>
      </trkpt>
      <trkpt lat="48.71686" lon="2.47678">
        <ele>86.8</ele>
        <time>2021-05-05T10:25:51Z</time>
      </trkpt>
      <trkpt lat="48.7169" lon="2.47684">
        <ele>86.6</ele>
        <time>2021-05-05T10:25:56Z</time>
      </trkpt>
      <trkpt lat="48.71693" lon="2.47691">
        <ele>86.5</ele>
        <time>2021-05-05T10:26:00Z</time>
      </trkpt>
      <trkpt lat="48.71695" lon="2.47699">
        <ele>86.3</ele>
        <time>2021-05-05T10:26:04Z</time>
      </trkpt>
      <trkpt lat="48.71697" lon="2.47705">
        <ele>86.1</ele>
        <time>2021-05-05T10:26:10Z</time>
      </trkpt>
      <trkpt lat="48.71699" lon="2.47713">
        <ele>85.9</ele>
        <time>2021-05-05T10:26:15Z</time>
      </trkpt>
      <trkpt lat="48.71701" lon="2.47719">
        <ele>85.8</ele>
        <time>2021-05-05T10:26:20Z</time>
      </trkpt>
      <trkpt lat="48.71704" lon="2.47726">
        <ele>85.7</ele>
        <time>2021-05-05T10:26:24Z</time>
      </trkpt>
      <trkpt lat="48.71705" lon="2.47734">
        <ele>85.5</ele>
        <time>2021-05-05T10:26:28Z</time>
      </trkpt>
      <trkpt lat="48.71707" lon="2.4774">
        <ele>85.4</ele>
        <time>2021-05-05T10:26:32Z</time>
      </trkpt>
      <trkpt lat="48.71709" lon="2.47747">
        <ele>85.3</ele>
        <time>2021-05-05T10:26:36Z</time>
      </trkpt>
      <trkpt lat="48.71711" lon="2.47754">
        <ele>85.2</ele>
        <time>2021-05-05T10:26:40Z</time>
      </trkpt>
      <trkpt lat="48.71713" lon="2.47761">
        <ele>85.1</ele>
        <time>2021-05-05T10:26:44Z</time>
      </trkpt>
      <trkpt lat="48.71715" lon="2.47767">
        <ele>84.9</ele>
        <time>2021-05-05T10:26:50Z</time>
      </trkpt>
      <trkpt lat="48.71715" lon="2.47775">
        <ele>84.8</ele>
        <time>2021-05-05T10:26:55Z</time>
      </trkpt>
      <trkpt lat="48.71716" lon="2.47782">
        <ele>84.7</ele>
        <time>2021-05-05T10:26:59Z</time>
      </trkpt>
      <trkpt lat="48.71716" lon="2.4779">
        <ele>84.6</ele>
        <time>2021-05-05T10:27:03Z</time>
      </trkpt>
      <trkpt lat="48.71718" lon="2.47797">
        <ele>84.5</ele>
        <time>2021-05-05T10:27:09Z</time>
      </trkpt>
      <trkpt lat="48.7172" lon="2.47803">
        <ele>84.4</ele>
        <time>2021-05-05T10:27:13Z</time>
      </trkpt>
      <trkpt lat="48.71721" lon="2.4781">
        <ele>84.3</ele>
        <time>2021-05-05T10:27:17Z</time>
      </trkpt>
      <trkpt lat="48.71719" lon="2.47819">
        <ele>84.1</ele>
        <time>2021-05-05T10:27:22Z</time>
      </trkpt>
      <trkpt lat="48.71714" lon="2.47822">
        <ele>84</ele>
        <time>2021-05-05T10:27:26Z</time>
      </trkpt>
      <trkpt lat="48.7171" lon="2.47823">
        <ele>84</ele>
        <time>2021-05-05T10:27:29Z</time>
      </trkpt>
      <trkpt lat="48.71705" lon="2.47822">
        <ele>83.8</ele>
        <time>2021-05-05T10:27:35Z</time>
      </trkpt>
      <trkpt lat="48.717" lon="2.47824">
        <ele>83.6</ele>
        <time>2021-05-05T10:27:40Z</time>
      </trkpt>
      <trkpt lat="48.71696" lon="2.47828">
        <ele>83.4</ele>
        <time>2021-05-05T10:27:46Z</time>
      </trkpt>
      <trkpt lat="48.71691" lon="2.47829">
        <ele>83.1</ele>
        <time>2021-05-05T10:27:51Z</time>
      </trkpt>
      <trkpt lat="48.71686" lon="2.47831">
        <ele>82.8</ele>
        <time>2021-05-05T10:27:57Z</time>
      </trkpt>
      <trkpt lat="48.71682" lon="2.47834">
        <ele>82.4</ele>
        <time>2021-05-05T10:28:04Z</time>
      </trkpt>
      <trkpt lat="48.71677" lon="2.47835">
        <ele>82</ele>
        <time>2021-05-05T10:28:10Z</time>
      </trkpt>
      <trkpt lat="48.71672" lon="2.47837">
        <ele>81.5</ele>
        <time>2021-05-05T10:28:19Z</time>
      </trkpt>
      <trkpt lat="48.71666" lon="2.47837">
        <ele>81.3</ele>
        <time>2021-05-05T10:28:23Z</time>
      </trkpt>
      <trkpt lat="48.71661" lon="2.47839">
        <ele>81</ele>
        <time>2021-05-05T10:28:27Z</time>
      </trkpt>
      <trkpt lat="48.71657" lon="2.47843">
        <ele>80.6</ele>
        <time>2021-05-05T10:28:32Z</time>
      </trkpt>
      <trkpt lat="48.71653" lon="2.47847">
        <ele>80.3</ele>
        <time>2021-05-05T10:28:36Z</time>
      </trkpt>
      <trkpt lat="48.71648" lon="2.47849">
        <ele>80.1</ele>
        <time>2021-05-05T10:28:39Z</time>
      </trkpt>
      <trkpt lat="48.71642" lon="2.47849">
        <ele>79.8</ele>
        <time>2021-05-05T10:28:43Z</time>
      </trkpt>
      <trkpt lat="48.71637" lon="2.47849">
        <ele>79.5</ele>
        <time>2021-05-05T10:28:46Z</time>
      </trkpt>
      <trkpt lat="48.71633" lon="2.47849">
        <ele>79.2</ele>
        <time>2021-05-05T10:28:50Z</time>
      </trkpt>
      <trkpt lat="48.71627" lon="2.47848">
        <ele>78.8</ele>
        <time>2021-05-05T10:28:55Z</time>
      </trkpt>
      <trkpt lat="48.71622" lon="2.47848">
        <ele>78.4</ele>
        <time>2021-05-05T10:29:00Z</time>
      </trkpt>
      <trkpt lat="48.71616" lon="2.4785">
        <ele>78</ele>
        <time>2021-05-05T10:29:04Z</time>
      </trkpt>
      <trkpt lat="48.71612" lon="2.47851">
        <ele>77.7</ele>
        <time>2021-05-05T10:29:08Z</time>
      </trkpt>
      <trkpt lat="48.71607" lon="2.47854">
        <ele>76.8</ele>
        <time>2021-05-05T10:29:18Z</time>
      </trkpt>
      <trkpt lat="48.71601" lon="2.47856">
        <ele>76.2</ele>
        <time>2021-05-05T10:29:24Z</time>
      </trkpt>
      <trkpt lat="48.71597" lon="2.47856">
        <ele>75.9</ele>
        <time>2021-05-05T10:29:28Z</time>
      </trkpt>
      <trkpt lat="48.71592" lon="2.47858">
        <ele>74.2</ele>
        <time>2021-05-05T10:30:01Z</time>
      </trkpt>
      <trkpt lat="48.71587" lon="2.47861">
        <ele>73.9</ele>
        <time>2021-05-05T10:30:05Z</time>
      </trkpt>
      <trkpt lat="48.71583" lon="2.47865">
        <ele>73.5</ele>
        <time>2021-05-05T10:30:09Z</time>
      </trkpt>
      <trkpt lat="48.71579" lon="2.47867">
        <ele>73</ele>
        <time>2021-05-05T10:30:14Z</time>
      </trkpt>
      <trkpt lat="48.71575" lon="2.47863">
        <ele>72.5</ele>
        <time>2021-05-05T10:30:19Z</time>
      </trkpt>
      <trkpt lat="48.71571" lon="2.47858">
        <ele>72</ele>
        <time>2021-05-05T10:30:24Z</time>
      </trkpt>
      <trkpt lat="48.71566" lon="2.47857">
        <ele>71.4</ele>
        <time>2021-05-05T10:30:31Z</time>
      </trkpt>
      <trkpt lat="48.71561" lon="2.47857">
        <ele>70.9</ele>
        <time>2021-05-05T10:30:36Z</time>
      </trkpt>
      <trkpt lat="48.71555" lon="2.47859">
        <ele>70.5</ele>
        <time>2021-05-05T10:30:41Z</time>
      </trkpt>
      <trkpt lat="48.71551" lon="2.47862">
        <ele>70.1</ele>
        <time>2021-05-05T10:30:46Z</time>
      </trkpt>
      <trkpt lat="48.71547" lon="2.47866">
        <ele>69.7</ele>
        <time>2021-05-05T10:30:50Z</time>
      </trkpt>
      <trkpt lat="48.71542" lon="2.4787">
        <ele>69.3</ele>
        <time>2021-05-05T10:30:55Z</time>
      </trkpt>
      <trkpt lat="48.71537" lon="2.47872">
        <ele>68.8</ele>
        <time>2021-05-05T10:31:00Z</time>
      </trkpt>
      <trkpt lat="48.71532" lon="2.47873">
        <ele>68.3</ele>
        <time>2021-05-05T10:31:05Z</time>
      </trkpt>
      <trkpt lat="48.71527" lon="2.47872">
        <ele>67.8</ele>
        <time>2021-05-05T10:31:11Z</time>
      </trkpt>
      <trkpt lat="48.71522" lon="2.47874">
        <ele>67.4</ele>
        <time>2021-05-05T10:31:16Z</time>
      </trkpt>
      <trkpt lat="48.71516" lon="2.47876">
        <ele>67.1</ele>
        <time>2021-05-05T10:31:20Z</time>
      </trkpt>
      <trkpt lat="48.71511" lon="2.47878">
        <ele>66.8</ele>
        <time>2021-05-05T10:31:23Z</time>
      </trkpt>
      <trkpt lat="48.71506" lon="2.47879">
        <ele>66.4</ele>
        <time>2021-05-05T10:31:28Z</time>
      </trkpt>
      <trkpt lat="48.71502" lon="2.4788">
        <ele>66.1</ele>
        <time>2021-05-05T10:31:33Z</time>
      </trkpt>
      <trkpt lat="48.71499" lon="2.47886">
        <ele>65.7</ele>
        <time>2021-05-05T10:31:38Z</time>
      </trkpt>
      <trkpt lat="48.715" lon="2.47893">
        <ele>65.2</ele>
        <time>2021-05-05T10:31:45Z</time>
      </trkpt>
    </trkseg>
  </trk>
</gpx>